[[{"header":{"parameterUnit":"m.s-1","parameterCategory":1,"la1":30.6,"la2":28.766,"lo1":-90.7593,"lo2":-88.6598,"dy":0.0162,"dx":0.0183,"nx":116,"ny":114,"refTime":"2023-11-01T12:00:00:Z","depth":0,"parameterNumber":2,"parameterNumberName":"U-component_of_WINDS"},"data":[0.0,0.0,0.0,0.0,0.0,0.0,0.0,0.0,0.0,0.0,0.0,0.0,0.0,0.0,0.0,0.0,0.0,0.0,0.0,0.0,0.0,0.0,0.0,0.0,0.0,0.0,0.0,0.0,0.0,0.0,0.0,0.0,0.0,0.0,0.0,0.0,0.0,0.0,0.0,0.0,0.0,0.0,0.0,0.0,0.0,0.0,0.0,0.0,0.0,0.0,0.0,0.0,0.0,0.0,0.0,0.0,0.0,0.0,0.0,0.0,0.0,0.0,0.0,0.0,0.0,0.0,0.0,0.0,0.0,0.0,0.0,0.0,0.0,0.0,0.0,0.0,0.0,0.0,0.0,0.0,0.0,0.0,0.0,0.0,0.0,0.0,0.0,0.0,0.0,0.0,0.0,0.0,0.0,0.0,0.0,0.0,0.0,0.0,0.0,0.0,0.0,0.0,0.0,0.0,0.0,0.0,0.0,0.0,0.0,0.0,0.0,0.0,0.0,0.0,0.0,0.0,0.0,0.0,0.0,0.0,0.0,0.0,0.0,0.0,0.0,0.0,0.0,0.0,0.0,0.0,0.0,0.0,0.0,0.0,0.0,0.0,0.0,0.0,0.0,0.0,0.0,0.0,0.0,0.0,0.0,0.0,0.0,0.0,0.0,0.0,0.0,0.0,0.0,0.0,0.0,0.0,0.0,0.0,0.0,0.0,0.0,0.0,0.0,0.0,0.0,0.0,0.0,0.0,0.0,0.0,0.0,0.0,0.0,0.0,0.0,0.0,0.0,0.0,0.0,0.0,0.0,0.0,0.0,0.0,0.0,0.0,0.0,0.0,0.0,0.0,0.0,0.0,0.0,0.0,0.0,0.0,0.0,0.0,0.0,0.0,0.0,0.0,0.0,0.0,0.0,0.0,0.0,0.0,0.0,0.0,0.0,0.0,0.0,0.0,0.0,0.0,0.0,0.0,0.0,0.0,0.0,0.0,0.0,0.0,0.0,0.0,0.0,0.0,0.0,0.0,0.0,0.0,0.0,0.0,0.0,0.0,0.0,0.0,0.0,0.0,0.0,0.0,0.0,0.0,0.0,0.0,0.0,0.0,0.0,0.0,0.0,0.0,0.0,0.0,0.0,0.0,0.0,0.0,0.0,0.0,0.0,0.0,0.0,0.0,0.0,0.0,0.0,0.0,0.0,0.0,0.0,0.0,0.0,0.0,0.0,0.0,0.0,0.0,0.0,0.0,0.0,0.0,0.0,0.0,0.0,0.0,0.0,0.0,0.0,0.0,0.0,0.0,0.0,0.0,0.0,0.0,0.0,0.0,0.0,0.0,0.0,0.0,0.0,0.0,0.0,0.0,0.0,0.0,0.0,0.0,0.0,0.0,0.0,0.0,0.0,0.0,0.0,0.0,0.0,0.0,0.0,0.0,0.0,0.0,0.0,0.0,0.0,0.0,0.0,0.0,0.0,0.0,0.0,0.0,0.0,0.0,0.0,0.0,0.0,0.0,0.0,0.0,0.0,0.0,0.0,0.0,0.0,0.0,0.0,0.0,0.0,0.0,0.0,0.0,0.0,0.0,0.0,0.0,0.0,0.0,0.0,0.0,0.0,0.0,0.0,0.0,0.0,0.0,0.0,0.0,0.0,0.0,0.0,0.0,0.0,0.0,0.0,0.0,0.0,0.0,0.0,0.0,0.0,0.0,0.0,0.0,0.0,0.0,0.0,0.0,0.0,0.0,0.0,0.0,0.0,0.0,0.0,0.0,0.0,0.0,0.0,0.0,0.0,0.0,0.0,0.0,0.0,0.0,0.0,0.0,0.0,0.0,0.0,0.0,0.0,0.0,0.0,0.0,0.0,0.0,0.0,0.0,0.0,0.0,0.0,0.0,0.0,0.0,0.0,0.0,0.0,0.0,0.0,0.0,0.0,0.0,0.0,0.0,0.0,0.0,0.0,0.0,0.0,0.0,0.0,0.0,0.0,0.0,0.0,0.0,0.0,0.0,0.0,0.0,0.0,0.0,0.0,0.0,0.0,0.0,0.0,0.0,0.0,0.0,0.0,0.0,0.0,0.0,0.0,0.0,0.0,0.0,0.0,0.0,0.0,0.0,0.0,0.0,0.0,0.0,0.0,0.0,0.0,0.0,0.0,0.0,0.0,0.0,0.0,0.0,0.0,0.0,0.0,0.0,0.0,0.0,0.0,0.0,0.0,0.0,0.0,0.0,0.0,0.0,0.0,0.0,0.0,0.0,0.0,0.0,0.0,0.0,0.0,0.0,0.0,0.0,0.0,0.0,0.0,0.0,0.0,0.0,0.0,0.0,0.0,0.0,0.0,0.0,0.0,0.0,0.0,0.0,0.0,0.0,0.0,0.0,0.0,0.0,0.0,0.0,0.0,0.0,0.0,0.0,0.0,0.0,0.0,0.0,0.0,0.0,0.0,0.0,0.0,0.0,0.0,0.0,0.0,0.0,0.0,0.0,0.0,0.0,0.0,0.0,0.0,0.0,0.0,0.0,0.0,0.0,0.0,0.0,0.0,0.0,0.0,0.0,0.0,0.0,0.0,0.0,0.0,0.0,0.0,0.0,0.0,0.0,0.0,0.0,0.0,0.0,0.0,0.0,0.0,0.0,0.0,0.0,0.0,0.0,0.0,0.0,0.0,0.0,0.0,0.0,0.0,0.0,0.0,0.0,0.0,0.0,0.0,0.0,0.0,0.0,0.0,0.0,0.0,0.0,0.0,0.0,0.0,0.0,0.0,0.0,0.0,0.0,0.0,0.0,0.0,0.0,0.0,0.0,0.0,0.0,0.0,0.0,0.0,0.0,0.0,0.0,0.0,0.0,0.0,0.0,0.0,0.0,0.0,0.0,0.0,0.0,0.0,0.0,0.0,0.0,0.0,0.0,0.0,0.0,0.0,0.0,0.0,0.0,0.0,0.0,0.0,0.0,0.0,0.0,0.0,0.0,0.0,0.0,0.0,0.0,0.0,0.0,0.0,0.0,0.0,0.0,0.0,0.0,0.0,0.0,0.0,0.0,0.0,0.0,0.0,0.0,0.0,0.0,0.0,0.0,0.0,0.0,0.0,0.0,0.0,0.0,0.0,0.0,0.0,0.0,0.0,0.0,0.0,0.0,0.0,0.0,0.0,0.0,0.0,0.0,0.0,0.0,0.0,0.0,0.0,0.0,0.0,0.0,0.0,0.0,0.0,0.0,0.0,0.0,0.0,0.0,0.0,0.0,0.0,0.0,0.0,0.0,0.0,0.0,0.0,0.0,0.0,0.0,0.0,0.0,0.0,0.0,0.0,0.0,0.0,0.0,0.0,0.0,0.0,0.0,0.0,0.0,0.0,0.0,0.0,0.0,0.0,0.0,0.0,0.0,0.0,0.0,0.0,0.0,0.0,0.0,0.0,0.0,0.0,0.0,0.0,0.0,0.0,0.0,0.0,0.0,0.0,0.0,0.0,0.0,0.0,0.0,0.0,0.0,0.0,0.0,0.0,0.0,0.0,0.0,0.0,0.0,0.0,0.0,0.0,0.0,0.0,0.0,0.0,0.0,0.0,0.0,0.0,0.0,0.0,0.0,0.0,0.0,0.0,0.0,0.0,0.0,0.0,0.0,0.0,0.0,0.0,0.0,0.0,0.0,0.0,0.0,0.0,0.0,0.0,0.0,0.0,0.0,0.0,0.0,0.0,0.0,0.0,0.0,0.0,0.0,0.0,0.0,0.0,0.0,0.0,0.0,0.0,0.0,0.0,0.0,0.0,0.0,0.0,0.0,0.0,0.0,0.0,0.0,0.0,0.0,0.0,0.0,0.0,0.0,0.0,0.0,0.0,0.0,0.0,0.0,0.0,0.0,0.0,0.0,0.0,0.0,0.0,0.0,0.0,0.0,0.0,0.0,0.0,0.0,0.0,0.0,0.0,0.0,0.0,0.0,0.0,0.0,0.0,0.0,0.0,0.0,0.0,0.0,0.0,0.0,0.0,0.0,0.0,0.0,0.0,0.0,0.0,0.0,0.0,0.0,0.0,0.0,0.0,0.0,0.0,0.0,0.0,0.0,0.0,0.0,0.0,0.0,0.0,0.0,0.0,0.0,0.0,0.0,0.0,0.0,0.0,0.0,0.0,0.0,0.0,0.0,0.0,0.0,0.0,0.0,0.0,0.0,0.0,0.0,0.0,0.0,0.0,0.0,0.0,0.0,0.0,0.0,0.0,0.0,0.0,0.0,0.0,0.0,0.0,0.0,0.0,0.0,0.0,0.0,0.0,0.0,0.0,0.0,0.0,0.0,0.0,0.0,0.0,0.0,0.0,0.0,0.0,0.0,0.0,0.0,0.0,0.0,0.0,0.0,0.0,0.0,0.0,0.0,0.0,0.0,0.0,0.0,0.0,0.0,0.0,0.0,0.0,0.0,0.0,0.0,0.0,0.0,0.0,0.0,0.0,0.0,0.0,0.0,0.0,0.0,0.0,0.0,0.0,0.0,0.0,0.0,0.0,0.0,0.0,0.0,0.0,0.0,0.0,0.0,0.0,0.0,0.0,0.0,0.0,0.0,0.0,0.0,0.0,0.0,0.0,0.0,0.0,0.0,0.0,0.0,0.0,0.0,0.0,0.0,0.0,0.0,0.0,0.0,0.0,0.0,0.0,0.0,0.0,0.0,0.0,0.0,0.0,0.0,0.0,0.0,0.0,0.0,0.0,0.0,0.0,0.0,0.0,0.0,0.0,0.0,0.0,0.0,0.0,0.0,0.0,0.0,0.0,0.0,0.0,0.0,0.0,0.0,0.0,0.0,0.0,0.0,0.0,0.0,0.0,0.0,0.0,0.0,0.0,0.0,0.0,0.0,0.0,0.0,0.0,0.0,0.0,0.0,0.0,0.0,0.0,0.0,0.0,0.0,0.0,0.0,0.0,0.0,0.0,0.0,0.0,0.0,0.0,0.0,0.0,0.0,0.0,0.0,0.0,0.0,0.0,0.0,0.0,0.0,0.0,0.0,0.0,0.0,0.0,0.0,0.0,0.0,0.0,0.0,0.0,0.0,0.0,0.0,0.0,0.0,0.0,0.0,0.0,0.0,0.0,0.0,0.0,0.0,0.0,0.0,0.0,0.0,0.0,0.0,0.0,0.0,0.0,0.0,0.0,0.0,0.0,0.0,0.0,0.0,0.0,0.0,0.0,0.0,0.0,0.0,0.0,0.0,0.0,0.0,0.0,0.0,0.0,0.0,0.0,0.0,0.0,0.0,0.0,0.0,0.0,0.0,0.0,0.0,0.0,0.0,0.0,0.0,0.0,0.0,0.0,0.0,0.0,0.0,0.0,0.0,0.0,0.0,0.0,0.0,0.0,0.0,0.0,0.0,0.0,0.0,0.0,0.0,0.0,0.0,0.0,0.0,0.0,0.0,0.0,0.0,0.0,0.0,0.0,0.0,0.0,0.0,0.0,0.0,0.0,0.0,0.0,0.0,0.0,0.0,0.0,0.0,0.0,0.0,0.0,0.0,0.0,0.0,0.0,0.0,0.0,0.0,0.0,0.0,0.0,0.0,0.0,0.0,0.0,0.0,0.0,0.0,0.0,0.0,0.0,0.0,0.0,0.0,0.0,0.0,0.0,0.0,0.0,0.0,0.0,0.0,0.0,0.0,0.0,0.0,0.0,0.0,0.0,0.0,0.0,0.0,0.0,0.0,0.0,0.0,0.0,0.0,0.0,0.0,0.0,0.0,0.0,0.0,0.0,0.0,0.0,0.0,0.0,0.0,0.0,0.0,0.0,0.0,0.0,0.0,0.0,0.0,0.0,0.0,0.0,0.0,0.0,0.0,0.0,0.0,0.0,0.0,0.0,0.0,0.0,0.0,0.0,0.0,0.0,0.0,0.0,0.0,0.0,0.0,0.0,0.0,0.0,0.0,0.0,0.0,0.0,0.0,0.0,0.0,0.0,0.0,0.0,0.0,0.0,0.0,0.0,0.0,0.0,0.0,0.0,0.0,0.0,0.0,0.0,0.0,0.0,0.0,0.0,0.0,0.0,0.0,0.0,0.0,0.0,0.0,0.0,0.0,0.0,0.0,0.0,0.0,0.0,0.0,0.0,0.0,0.0,0.0,2.2964,0.0,0.0,0.0,0.0,0.0,0.0,0.0,0.0,0.0,0.0,0.0,0.0,0.0,0.0,0.0,0.0,0.0,0.0,0.0,0.0,0.0,0.0,0.0,0.0,0.0,0.0,0.0,0.0,0.0,0.0,0.0,0.0,0.0,0.0,0.0,0.0,0.0,0.0,0.0,1.3152,1.3949,1.4545,1.4367,1.3925,1.3276,0.0,0.0,0.0,0.0,0.0,0.0,0.0,0.0,0.0,0.0,0.0,0.0,0.0,0.0,0.0,0.0,0.0,0.0,0.0,0.0,0.0,0.0,0.0,0.0,0.0,0.0,0.0,0.0,0.0,0.0,0.0,0.0,0.0,0.0,0.0,0.0,0.0,0.0,0.0,0.0,0.0,0.0,0.0,0.0,0.0,0.0,0.0,0.0,0.0,0.0,0.0,0.0,0.0,0.0,0.0,0.0,0.0,0.0,0.0,0.0,0.0,0.0,0.0,0.0,0.0,0.0,0.0,0.0,0.0,0.0,0.0,2.3621,0.0,0.0,0.0,0.0,0.0,0.0,0.0,0.0,0.0,0.0,0.0,0.0,0.0,0.0,0.0,0.0,0.0,0.0,0.0,0.0,0.0,0.0,0.0,0.0,0.7507,0.7644,0.7858,0.7983,0.0,0.0,0.0,0.0,0.0,0.0,0.0,1.1106,1.1888,1.2397,1.3931,1.5169,1.6038,1.6167,1.5601,1.4436,1.4375,0.0,0.0,0.0,0.0,0.0,0.0,0.0,0.0,0.0,0.0,0.0,0.0,0.0,0.0,0.0,0.0,0.0,0.0,0.0,0.0,0.0,0.0,0.0,0.0,0.0,0.0,0.0,0.0,0.0,0.0,0.0,0.0,0.0,0.0,0.0,0.0,0.0,0.0,0.0,0.0,0.0,0.0,0.0,0.0,0.0,0.0,0.0,0.0,0.0,0.0,0.0,0.0,0.0,0.0,0.0,0.0,0.0,0.0,0.0,0.0,0.0,0.0,0.0,0.0,2.6643,2.6824,2.6339,2.6245,2.6458,2.5356,2.499,2.5105,0.0,0.0,0.0,0.0,0.0,0.0,0.0,0.0,0.0,0.0,0.0,0.0,0.0,0.0,0.0,0.0,0.0,0.0,0.0,0.0,0.0,0.0,0.7555,0.7829,0.8249,0.8322,0.8571,0.0,0.0,0.0,0.0,0.0,0.0,1.0754,1.1707,1.2657,1.3571,1.5125,1.5973,1.6187,1.6367,1.6506,1.6576,1.6228,1.5745,1.5238,0.0,0.0,0.0,0.0,0.0,0.0,0.0,0.0,0.0,0.0,0.0,0.0,0.0,0.0,0.0,0.0,0.0,0.0,0.0,0.0,0.0,0.0,0.0,0.0,0.0,0.0,0.0,0.0,0.0,0.0,0.0,0.0,0.0,0.0,0.0,0.0,0.0,0.0,0.0,0.0,0.0,2.1806,2.2963,0.0,0.0,0.0,0.0,0.0,0.0,0.0,0.0,0.0,0.0,0.0,0.0,0.0,0.0,2.7643,2.8541,2.9292,2.9895,3.0714,3.0637,2.973,2.9653,2.9116,2.8247,2.7794,0.0,2.5942,2.5755,0.0,0.0,0.0,0.0,0.0,0.0,0.0,0.0,0.0,0.0,0.0,0.0,0.0,0.0,0.0,0.0,0.0,0.0,0.0,0.0,0.0,0.8191,0.8641,0.9194,0.962,0.987,0.9905,1.0153,0.0,0.0,0.0,1.0983,1.1628,1.2625,1.409,1.6055,1.6935,1.7714,1.8342,1.8358,1.8538,1.8887,1.8501,1.7693,1.6638,1.6526,0.0,0.0,0.0,0.0,0.0,0.0,0.0,0.0,0.0,0.0,0.0,0.0,0.0,0.0,0.0,0.0,0.0,0.0,0.0,0.0,0.0,0.0,0.0,0.0,0.0,0.0,0.0,0.0,0.0,0.0,0.0,0.0,0.0,0.0,0.0,0.0,0.0,0.0,0.0,2.0899,2.2006,2.2696,2.2564,2.2315,0.0,0.0,0.0,0.0,0.0,0.0,0.0,0.0,0.0,2.8649,2.8726,2.917,3.0158,3.0547,3.0851,3.1105,3.1342,3.1241,3.0743,3.0603,3.0248,2.9754,2.9623,2.9071,2.8132,2.6944,2.6045,2.5435,0.0,0.0,0.0,0.0,0.0,2.5721,0.0,0.0,0.0,0.0,0.0,0.0,0.0,0.0,0.0,0.0,0.0,0.0,0.842,0.9024,0.9706,1.0418,1.0883,1.1102,1.1015,1.1121,0.0,1.0701,1.1115,1.1729,1.2518,1.3906,1.5806,1.8221,1.8659,1.9305,2.009,2.0004,2.01,2.0392,2.0096,1.9251,1.8035,1.7575,1.7262,1.7001,0.0,0.0,0.0,0.0,0.0,0.0,0.0,0.0,0.0,0.0,0.0,0.0,0.0,0.0,0.0,0.0,0.0,0.0,0.0,0.0,0.0,0.0,0.0,0.0,0.0,0.0,0.0,0.0,0.0,0.0,0.0,0.0,0.0,0.0,0.0,0.0,0.0,2.2021,2.2833,2.3105,2.3295,2.327,0.0,0.0,0.0,0.0,0.0,0.0,2.8352,2.8177,2.8894,3.075,3.0786,3.1241,3.2263,3.2143,3.2135,3.2286,3.1991,3.1695,3.1401,3.1188,3.0957,3.0712,3.0649,3.0343,2.9789,2.8169,2.7324,2.6995,2.6593,2.6441,0.0,2.6712,2.6989,2.729,0.0,0.0,0.0,0.0,0.0,0.0,0.0,0.0,0.0,0.0,0.0,0.8978,0.9132,0.9981,1.0951,1.1997,1.1704,1.19,1.2892,1.2161,1.1932,1.2538,1.2219,1.248,1.3415,1.5678,1.7664,1.9407,1.9874,2.0208,2.0372,2.0372,2.0392,2.0413,2.0392,1.9872,1.9036,1.8998,1.8485,1.7652,1.7631,0.0,0.0,0.0,0.0,0.0,0.0,0.0,0.0,0.0,0.0,0.0,0.0,0.0,0.0,0.0,0.0,0.0,0.0,0.0,0.0,0.0,0.0,0.0,0.0,0.0,0.0,0.0,0.0,0.0,0.0,0.0,0.0,0.0,0.0,0.0,0.0,0.0,0.0,2.5419,2.6217,0.0,0.0,0.0,0.0,2.6859,2.717,2.8142,2.998,3.0069,3.0712,3.213,3.2441,3.2714,3.3039,3.3039,3.331,3.3896,3.3873,3.3285,3.2234,3.2234,3.1669,3.0691,3.0483,3.025,2.9986,2.9793,2.8821,2.736,2.7354,2.7035,2.6643,2.7176,2.8055,2.8983,0.0,0.0,0.0,0.0,0.0,0.0,0.0,0.0,0.7755,0.7874,0.8691,0.9351,0.9624,1.0604,1.1714,1.2858,1.322,1.3615,1.4212,1.3778,1.345,1.3357,1.3113,1.3872,1.5791,1.74,1.8892,2.027,2.0312,2.0558,2.1047,2.0902,2.1013,2.1282,2.0992,2.0682,2.0348,1.9803,1.9367,1.8998,1.8382,1.7869,0.0,0.0,0.0,0.0,0.0,0.0,0.0,0.0,0.0,0.0,0.0,0.0,0.0,0.0,0.0,0.0,0.0,0.0,0.0,0.0,0.0,0.0,0.0,0.0,0.0,0.0,0.0,0.0,0.0,0.0,0.0,0.0,0.0,0.0,0.0,0.0,0.0,2.5623,2.6502,0.0,2.6469,2.7664,2.8573,2.8845,2.978,3.0859,3.2025,3.2071,3.2493,3.3361,3.35,3.3574,3.368,3.368,3.3779,3.3998,3.3814,3.355,3.3137,3.3003,3.2626,3.2107,3.2041,3.1861,3.1588,3.1579,3.0431,2.8692,2.8692,2.8654,2.8631,2.896,2.9253,2.9488,0.0,0.0,0.0,0.0,0.0,0.0,0.0,0.0,0.8232,0.8599,0.9547,1.0399,1.0956,1.1991,1.3049,1.401,1.4451,1.4758,1.4948,1.4759,1.4519,1.429,1.4626,1.5883,1.8155,1.91,2.0153,2.1298,2.1169,2.1252,2.1528,2.1323,2.1432,2.1778,2.1393,2.1267,2.1282,2.0718,2.0283,1.9951,1.933,1.8713,1.8076,0.0,0.0,0.0,0.0,0.0,0.0,0.0,0.0,0.0,0.0,0.0,0.0,0.0,0.0,0.0,0.0,0.0,0.0,0.0,0.0,0.0,0.0,0.0,0.0,0.0,0.0,0.0,0.0,0.0,0.0,0.0,0.0,0.0,0.0,0.0,2.6704,2.6608,2.7761,2.8412,2.8062,2.952,3.0628,3.088,3.1858,3.2831,3.3766,3.3698,3.4016,3.4771,3.4795,3.4795,3.4795,3.4795,3.4795,3.4795,3.4364,3.4052,3.386,3.348,3.3101,3.2771,3.2771,3.263,3.2371,3.2371,3.1506,3.0202,3.0191,3.0274,3.0381,3.0509,3.0585,3.0665,0.0,0.0,0.0,0.0,0.0,0.0,0.0,0.8339,0.8733,0.9774,1.0983,1.2124,1.3082,1.4087,1.4896,1.5444,1.5313,1.5199,1.5115,1.5018,1.5098,1.542,1.6741,1.8392,2.0372,2.0766,2.1479,2.2522,2.2522,2.2273,2.1838,2.1628,2.1627,2.1778,2.1608,2.1647,2.1838,2.1838,2.1302,2.0496,2.0454,1.9913,1.904,0.0,0.0,0.0,0.0,0.0,0.0,0.0,0.0,0.0,0.0,0.0,0.0,0.0,0.0,0.0,0.0,0.0,0.0,0.0,0.0,0.0,0.0,0.0,0.0,0.0,0.0,0.0,0.0,0.0,0.0,0.0,0.0,0.0,2.6596,2.7411,2.8247,2.8646,3.0198,3.1145,3.0862,3.1915,3.2653,3.2809,3.3159,3.3931,3.5138,3.4969,3.5328,3.6362,3.6411,3.6411,3.6385,3.6385,3.6385,3.6385,3.558,3.4955,3.4408,3.3691,3.3076,3.2582,3.2582,3.2417,3.218,3.218,3.2061,3.1849,3.1739,3.169,3.169,3.1713,3.2042,3.2488,0.0,0.0,0.0,0.0,0.0,0.0,0.0,0.896,0.9627,1.0055,1.1547,1.2728,1.3137,1.3867,1.4547,1.5087,1.5497,1.5617,1.5406,1.5716,1.5926,1.5977,1.7969,1.9517,2.0501,2.1548,2.2358,2.3018,2.3018,2.277,2.2315,2.2256,2.207,2.1818,2.2112,2.2276,2.2335,2.2666,2.2666,2.2335,2.1302,2.0558,1.9996,0.0,0.0,0.0,0.0,0.0,0.0,0.0,0.0,0.0,0.0,0.0,0.0,0.0,0.0,0.0,0.0,0.0,0.0,0.0,0.0,0.0,0.0,0.0,0.0,0.0,0.0,0.0,0.0,0.0,0.0,0.0,0.0,2.8501,2.8231,2.9296,3.0227,3.052,3.1509,3.2102,3.2035,3.3333,3.403,3.3715,3.4848,3.5521,3.5475,3.5786,3.6098,3.6386,3.6411,3.6309,3.613,3.613,3.6002,3.5821,3.5602,3.541,3.5268,3.5051,3.4783,3.4441,3.4441,3.4314,3.406,3.406,3.3805,3.3294,3.2127,3.1714,3.1784,3.1925,3.1971,3.1943,0.0,0.0,0.0,0.0,0.0,0.0,0.0,0.9484,1.0322,1.1139,1.2343,1.3491,1.4513,1.4849,1.5189,1.5616,1.5895,1.5826,1.5269,1.6012,1.69,1.7884,1.9388,2.0671,2.1667,2.2491,2.3103,2.3494,2.3494,2.3205,2.2631,2.2651,2.2507,2.222,2.2528,2.2711,2.2811,2.2959,2.3042,2.294,2.204,2.142,2.0909,2.0286,1.992,1.9699,1.9165,1.9344,1.9744,1.9126,0.0,0.0,0.0,0.0,0.0,0.0,0.0,0.0,0.0,0.0,0.0,0.0,0.0,0.0,0.0,0.0,0.0,0.0,0.0,0.0,0.0,0.0,0.0,0.0,2.9166,3.0444,3.0998,3.1458,3.1906,3.2392,3.3266,3.3838,3.3959,3.487,3.5328,3.5039,3.5856,3.6362,3.6266,3.6451,3.6687,3.6902,3.6772,3.6618,3.6462,3.6462,3.6357,3.6224,3.5931,3.5762,3.5762,3.5422,3.5199,0.0,3.5043,3.4938,3.4808,3.4808,3.4624,0.0,0.0,0.0,0.0,0.0,3.2805,3.2518,0.0,0.0,0.0,0.0,0.0,0.0,0.0,0.9991,1.0932,1.2596,1.3282,1.438,1.6362,1.6314,1.6262,1.6522,1.6439,1.6069,1.5366,1.6375,1.8009,2.0197,2.084,2.181,2.3237,2.3468,2.374,2.4054,2.3971,2.3556,2.288,2.2982,2.292,2.2757,2.292,2.3043,2.3185,2.3002,2.292,2.2879,2.2675,2.229,2.1803,2.0978,2.0547,2.0275,1.9692,1.9678,1.9889,1.979,0.0,0.0,0.0,0.0,0.0,0.0,0.0,0.0,0.0,0.0,0.0,0.0,0.0,0.0,0.0,0.0,0.0,0.0,0.0,0.0,0.0,0.0,0.0,0.0,3.1251,3.2747,3.3946,3.3693,3.3599,3.4207,3.5102,3.5756,3.598,3.628,3.6432,3.636,3.6528,3.6792,3.7174,0.0,0.0,0.0,0.0,3.716,3.7156,3.7086,3.7059,3.7079,3.6443,3.6151,3.6197,3.5468,3.5103,3.5077,3.5057,3.5034,3.5008,3.4939,3.4913,3.4932,3.4801,3.4432,3.4014,3.4184,3.3967,0.0,0.0,0.0,0.0,0.0,0.0,0.0,0.0,1.0868,1.1781,1.3316,1.4347,1.5291,1.6252,1.6431,1.6418,1.621,1.6563,1.7081,1.775,1.8524,1.9354,2.0255,2.1887,2.3054,2.3741,2.3977,2.4355,2.4942,2.4398,2.3881,2.3369,2.3598,2.3289,2.2574,2.3123,2.3307,2.3222,2.3502,2.36,2.358,2.3197,2.2775,2.2372,2.235,2.2406,2.2439,2.1945,2.2046,2.2235,2.1179,2.0853,2.0843,2.0504,1.9985,0.0,0.0,0.0,0.0,0.0,0.0,0.0,0.0,0.0,0.0,0.0,0.0,0.0,0.0,0.0,0.0,0.0,0.0,0.0,3.1052,3.263,3.3803,3.4278,3.5512,3.6116,3.5382,3.5865,3.6189,3.6004,3.6458,3.6556,3.6103,3.7271,3.7735,3.7163,3.8105,0.0,3.8496,3.7989,3.7618,3.7417,3.7002,3.6866,3.7013,0.0,0.0,3.7441,3.7293,3.7079,3.6804,3.6644,3.6434,3.6218,3.5781,3.5713,3.5746,3.4766,3.4193,3.3941,3.3952,3.3771,3.3519,0.0,0.0,0.0,0.0,0.0,0.0,0.0,1.1492,1.2326,1.3502,1.4257,1.5066,1.6035,1.5896,1.5913,1.6315,1.6902,1.7643,1.8582,1.9373,2.0273,2.1341,2.2335,2.3199,2.3987,2.4226,2.4524,2.4858,2.4655,2.428,2.3819,2.4057,2.4012,2.3687,2.4126,2.4248,2.4161,2.4249,2.4142,2.3923,2.3636,2.3214,2.28,2.2694,2.2696,2.2798,2.2634,2.2692,2.2748,2.241,2.1956,2.153,2.1782,2.1155,2.0323,0.0,0.0,0.0,0.0,0.0,0.0,0.0,0.0,0.0,0.0,0.0,0.0,0.0,0.0,2.6973,0.0,0.0,3.134,3.2982,3.4196,3.5123,3.5686,3.6671,3.7099,3.6461,3.7186,3.7681,3.7548,3.7672,3.7638,3.7355,3.8115,3.8363,3.7915,3.8524,3.8751,3.8442,3.8185,3.7906,3.765,3.7396,3.7289,3.7402,3.7402,3.754,3.7793,3.7793,3.7708,3.7543,3.7433,3.7228,3.6923,3.6477,3.6381,3.6403,3.5636,3.5345,3.5345,3.5207,3.5063,3.4924,0.0,0.0,0.0,0.0,0.0,0.0,0.0,1.2112,1.2812,1.3743,1.4101,1.4744,1.5878,1.5553,1.5609,1.6524,1.7386,1.8193,1.8914,1.9979,2.122,2.2693,2.2775,2.3295,2.4363,2.4506,2.4618,2.4744,2.4842,2.4668,2.4244,2.4491,2.4646,2.4733,2.4962,2.5011,2.4965,2.4848,2.4538,2.4154,2.4042,2.3756,2.332,2.3043,2.2852,2.2712,2.2878,2.2756,2.2594,2.3206,2.2687,2.1926,2.287,2.2308,2.1327,2.1296,2.1582,0.0,0.0,0.0,0.0,0.0,0.0,0.0,0.0,2.483,2.5489,2.7441,2.8034,2.8915,3.1087,3.2159,3.3253,3.4977,3.5829,3.6517,3.7243,3.7671,3.7826,3.7719,3.8485,3.8978,3.8923,3.8723,3.8606,3.8606,3.87,3.8765,3.8802,3.8976,3.8956,3.8711,3.8526,3.8296,3.8091,3.7885,3.7839,3.7982,3.7982,3.7999,3.8091,3.8091,3.8034,3.7919,3.7748,3.7457,3.708,3.685,3.6773,3.6834,3.6573,3.6691,3.6998,3.65,3.6331,3.6244,0.0,0.0,0.0,0.0,0.0,0.0,0.0,0.0,1.3501,1.4609,1.4896,1.5253,1.5931,1.6255,1.6471,1.6577,1.8046,1.9106,1.9554,2.1252,2.2652,2.3613,2.3811,2.436,2.5321,2.4944,2.5059,2.5648,2.5082,2.4768,2.4723,2.4951,2.4811,2.446,2.4733,2.469,2.4483,2.471,2.4625,2.4401,2.4608,2.45,2.4281,2.4476,2.4051,2.3398,2.3419,2.3028,2.2553,2.2997,2.2676,2.2205,2.3095,2.2964,2.2394,2.1794,2.1825,2.1675,2.0216,2.0832,2.2302,2.4145,2.4336,2.4761,0.0,2.7489,2.7643,3.0283,3.0851,3.1517,3.3617,3.4458,3.5279,3.6617,3.7301,3.7782,3.8125,3.8831,3.9328,3.9494,3.907,3.8634,3.833,3.8273,3.8273,3.8273,3.8692,3.9042,3.9219,3.9916,4.0379,4.0486,3.9636,3.9154,3.9124,3.8229,3.8022,3.8504,3.8504,3.8711,3.9124,3.9124,3.8853,3.8297,3.7495,3.6904,3.6505,3.6447,3.6567,3.6728,3.6669,3.7172,3.7793,3.6523,3.6041,3.6041,0.0,0.0,0.0,0.0,0.0,0.0,0.0,0.0,0.0,1.4482,1.4599,1.4852,1.5407,1.6042,1.6356,1.615,1.8267,1.9655,1.9707,2.193,2.3484,2.4013,2.4182,2.4641,2.548,2.5301,2.5348,2.5621,2.5348,2.5202,2.5202,2.5132,2.513,2.5171,2.5267,2.5404,2.5571,2.5555,2.5484,2.5393,2.5254,2.5086,2.4831,2.4505,2.4254,2.4071,2.3941,2.3416,0.0,2.3388,2.2939,2.2392,2.3639,2.3246,2.2358,2.2351,2.2322,2.2404,2.2826,2.3088,2.3654,2.5621,2.6273,2.6802,2.8343,2.879,2.953,3.1775,3.2435,3.3219,3.5143,3.5683,3.6248,0.0,3.8064,3.8514,3.9053,3.9279,3.9545,3.9936,3.9701,3.9627,3.9958,3.9579,3.9416,3.9686,3.9923,4.0071,4.0181,4.0478,4.0716,4.0793,4.038,4.0181,4.0181,3.9767,3.9515,3.9475,3.9475,3.9429,3.9308,3.9308,3.9072,3.8626,3.8177,3.7968,3.797,3.7838,3.7959,3.8196,3.8003,3.8151,3.837,3.7221,3.6989,3.7178,0.0,0.0,0.0,0.0,0.0,0.0,0.0,0.0,0.0,0.0,1.4583,1.4903,1.5528,1.6022,1.6257,1.6111,1.8341,1.977,1.9824,2.2268,2.3954,2.4439,2.4628,2.5015,2.5658,2.5587,2.5587,2.5658,2.5587,2.5611,2.5777,2.5492,2.5554,2.5936,2.6054,2.6315,2.6616,2.655,2.6483,2.6371,2.6028,2.5682,2.5306,2.476,2.4431,2.419,2.393,2.3398,2.2869,2.3287,2.2817,2.2309,2.3616,2.3227,2.2308,2.2416,2.2392,2.2681,2.4446,2.4841,2.5175,2.68,2.7922,2.8743,2.9342,3.014,3.1283,3.3186,3.3853,3.4615,3.6383,3.6833,3.7307,3.8467,3.8903,3.9353,4.0038,3.9844,3.9817,4.0384,4.011,4.0308,4.1398,4.0784,4.041,4.077,4.0793,4.0839,4.103,4.103,4.1099,4.1206,4.1099,4.103,4.103,4.0862,4.064,4.0303,4.0303,4.0036,3.9572,3.9393,3.916,3.8942,3.8745,3.8777,3.9014,3.8872,3.8963,3.9129,3.8879,3.883,3.8767,3.8064,3.7946,3.804,0.0,0.0,0.0,0.0,0.0,0.0,0.0,0.0,0.0,0.0,0.0,0.0,0.0,1.652,1.6451,1.6836,1.8248,1.941,2.006,2.2249,2.402,2.5128,2.5358,2.5658,2.6071,2.5824,2.5824,2.6071,2.5824,2.5945,2.6452,2.6211,2.6211,2.6492,2.6959,2.716,2.7185,2.746,2.7411,2.7169,2.6943,2.6428,2.5789,2.5769,2.4838,2.3469,2.3069,2.2768,2.2492,2.2307,2.2049,2.1929,2.2636,2.2819,2.2635,2.1778,2.1665,2.2159,2.3792,2.5223,2.652,2.7674,2.905,3.0362,3.1302,3.1939,3.2911,3.4915,3.5343,3.5846,3.7456,3.8189,3.8804,3.9627,4.0144,4.0632,4.1173,4.0794,4.0678,4.1219,4.0138,4.0025,0.0,4.1253,4.077,4.0793,4.0793,4.103,4.1543,4.1589,4.1788,4.2238,4.1811,4.1589,4.1589,4.1053,4.0793,4.077,4.077,4.0594,4.0263,3.9614,3.9303,3.9272,3.8919,3.8816,3.8816,3.8784,3.8806,3.8806,3.8806,3.8868,3.8991,3.8811,3.8574,3.8163,0.0,0.0,0.0,0.0,0.0,0.0,0.0,0.0,0.0,0.0,0.0,0.0,0.0,0.0,0.0,0.0,1.8653,1.964,2.0003,2.2494,2.4269,2.497,2.5591,2.612,2.6616,2.6033,2.5917,2.6376,2.611,2.6159,2.6496,2.64,2.6424,2.6496,2.6657,2.6878,2.714,2.715,2.724,2.7345,2.671,2.6396,2.6221,2.5139,2.4492,2.4008,0.0,2.209,2.1708,2.2229,2.205,2.177,2.2757,2.2816,2.2547,2.257,2.2983,2.384,2.5572,2.6887,2.8188,2.994,3.0752,3.1411,3.235,3.3224,3.4087,3.5178,3.54,3.5768,3.7061,3.742,3.7867,3.8833,3.9692,4.0523,4.1376,4.1023,4.0907,4.1445,4.1099,0.0,0.0,0.0,0.0,4.1756,4.1802,4.1871,4.2032,4.2055,4.2123,4.2307,4.2146,4.2055,4.2055,4.1894,4.1619,4.1329,4.0984,4.0616,4.0278,3.9845,3.9503,3.9285,3.9323,3.9328,3.9372,3.9668,3.9799,3.9799,3.9799,3.966,3.939,3.8798,3.8594,3.8473,0.0,0.0,0.0,0.0,0.0,0.0,0.0,0.0,0.0,0.0,0.0,0.0,0.0,0.0,0.0,0.0,0.0,1.9654,2.0072,2.2388,2.4011,2.4607,2.5211,2.569,2.6033,2.5365,2.5225,2.5667,2.5551,2.5805,2.6434,2.6408,2.655,2.6904,2.6971,2.7146,2.739,2.7296,2.7225,2.7099,2.6385,2.5904,2.5502,2.4374,2.3781,0.0,2.2491,2.1681,2.1157,2.1914,2.1999,2.1923,2.2525,2.2585,2.2643,2.3602,2.4361,2.5338,2.7272,2.8556,2.9758,3.1473,3.2154,3.2612,3.3399,3.429,3.5127,3.5809,3.5781,3.5976,3.6827,3.7061,3.7404,3.8183,3.9177,4.0165,4.1168,4.0869,4.0831,4.1645,4.1514,4.1437,0.0,0.0,0.0,4.2238,4.2402,4.2503,4.2559,4.2582,4.2651,4.2835,4.2835,4.2835,4.2835,4.2706,4.2514,4.2225,4.1747,4.1398,4.1185,4.0676,4.0268,3.989,4.0027,4.0006,3.9875,4.0181,4.0421,4.0541,4.0388,4.0201,3.9965,3.9446,3.9066,3.8682,0.0,0.0,0.0,0.0,0.0,0.0,0.0,0.0,0.0,0.0,0.0,0.0,0.0,0.0,0.0,0.0,0.0,0.0,2.0237,2.1906,2.3248,2.4157,2.4387,2.4508,2.455,2.4078,2.3949,2.4228,2.4373,2.5023,2.6216,2.6174,2.661,2.7468,2.7648,2.7738,2.7738,2.7734,2.7241,2.648,2.598,2.5048,2.3867,2.3555,2.2776,2.1862,2.2021,2.1575,2.0961,2.1409,2.1994,2.2452,2.2114,2.2312,2.3034,2.4913,2.5787,2.6644,2.8722,3.0128,3.1261,3.2267,3.3185,3.3994,3.4475,3.5181,3.5957,3.6694,3.6459,3.6297,3.6781,3.7132,3.744,3.777,3.8717,3.9744,4.0755,4.0509,4.0647,0.0,0.0,0.0,0.0,0.0,0.0,4.2353,0.0,4.291,4.3161,4.3152,4.3326,4.3785,4.3775,4.3775,4.3775,4.3435,4.327,4.327,4.2938,4.2794,4.2761,4.2036,4.1492,4.1044,4.1044,4.0782,4.0377,4.0377,4.0629,4.1011,4.0601,4.0513,4.0635,4.0601,3.995,3.8903,0.0,0.0,0.0,0.0,0.0,0.0,0.0,0.0,0.0,0.0,0.0,0.0,0.0,0.0,0.0,0.0,0.0,0.0,2.0416,2.1747,2.2932,2.3856,2.4284,2.4657,2.4935,2.4508,2.4379,2.4636,2.4697,2.4843,2.5185,2.5332,2.5415,2.5519,2.5578,2.5598,2.5576,2.5421,2.5341,2.5202,2.4635,2.4199,2.3826,2.3041,2.2566,2.2274,2.1989,2.2045,2.2324,2.2428,2.3166,2.4121,2.4525,2.4849,2.5402,2.6887,2.8077,2.9132,3.0196,3.1473,3.2823,3.4053,3.4527,3.4891,3.5597,3.6001,3.6207,3.6111,3.5516,3.5093,3.5321,3.6016,3.6925,3.7993,3.9439,0.0,4.2101,4.1959,0.0,4.2172,0.0,4.2155,4.2756,4.2971,0.0,0.0,4.3161,4.3346,4.4026,4.3788,4.3671,4.3808,4.3545,4.3435,4.3435,4.3048,4.2849,4.2849,4.2772,4.2605,4.2337,4.217,4.1869,4.1524,4.1524,4.1437,4.1328,4.1328,4.1393,4.1524,4.1402,4.1253,4.101,4.0703,4.0259,3.9708,0.0,0.0,0.0,0.0,0.0,0.0,0.0,0.0,0.0,0.0,0.0,0.0,0.0,0.0,0.0,0.0,0.0,0.0,0.0,2.1647,2.2362,2.3196,2.3268,2.3419,2.3653,2.3222,2.3065,2.3222,2.3354,2.3585,2.3876,2.4088,2.4406,2.4787,2.4682,2.4682,2.4786,2.4679,2.4429,0.0,0.0,2.3349,2.2915,2.2397,2.2315,2.2459,2.2211,2.3009,2.4216,2.4318,2.472,2.538,2.6368,2.6843,2.738,2.8825,2.9916,3.0889,3.1887,3.2765,3.3726,3.4996,3.5141,3.5157,3.5703,3.6022,3.596,3.5274,3.4795,3.4487,3.4454,3.5371,3.6406,3.7262,3.8942,4.0655,4.2061,4.212,4.2215,0.0,4.2949,0.0,4.3372,4.359,4.3863,0.0,4.389,4.3877,4.446,4.412,4.4078,4.4474,4.3995,4.3658,4.3489,4.3421,4.332,4.315,4.315,4.3049,4.2845,4.273,4.2394,4.2005,0.0,4.1896,4.1699,4.1699,4.1808,4.1971,4.1665,4.1521,4.1473,4.0919,4.0605,4.0355,0.0,0.0,0.0,0.0,0.0,0.0,0.0,0.0,0.0,0.0,0.0,0.0,0.0,0.0,0.0,0.0,0.0,0.0,0.0,0.0,2.1761,2.2421,2.2024,2.1803,2.1838,2.1507,2.1315,2.1315,2.1603,2.2048,2.2641,2.285,2.3493,2.4384,2.4206,2.4195,2.4346,2.4388,2.3845,2.3015,2.3057,2.258,2.1835,0.0,2.2164,2.262,2.2724,2.4115,2.6,2.6541,2.6627,2.6689,2.7976,2.8653,2.9258,3.0752,3.1571,3.2301,3.3496,3.3961,3.4378,3.5523,3.5563,3.5358,3.5383,3.5626,3.5495,3.4388,3.4233,3.4224,3.3953,3.4922,3.5918,3.6493,3.8097,3.9912,4.1629,4.1827,4.2302,4.3648,4.3808,4.3831,4.39,4.3969,4.4354,4.5152,4.4884,4.4682,4.4748,4.447,4.4584,4.5244,4.465,4.4098,4.365,4.3997,4.3997,4.365,4.365,4.365,4.3615,4.3337,4.2944,4.2529,0.0,0.0,4.1896,4.1896,4.2136,4.246,4.1748,4.1705,4.1983,4.1274,4.0989,4.0954,0.0,0.0,0.0,0.0,0.0,0.0,0.0,0.0,0.0,0.0,1.937,1.949,0.0,0.0,0.0,0.0,0.0,0.0,0.0,0.0,0.0,2.2139,2.1934,2.1872,2.2045,2.1976,2.1941,2.1941,2.1996,2.2084,2.2208,2.2626,2.2646,2.234,2.2571,2.2443,2.2071,2.2203,2.2136,2.1993,2.2374,2.2343,2.2063,2.2233,0.0,0.0,2.3876,2.4701,2.5787,2.8217,2.8964,2.9068,3.0076,3.0883,3.1649,3.245,3.34,3.416,3.4134,3.4936,3.5882,3.6319,3.6725,3.6719,3.5717,3.5654,3.5368,3.3785,3.3612,3.3674,3.3474,3.4277,3.5642,3.7632,3.873,4.0255,4.289,4.3014,4.3074,4.3716,4.3808,4.3969,4.4428,4.4841,0.0,0.0,0.0,4.6219,4.5695,4.5725,4.537,4.4514,4.4432,4.4035,4.3289,4.3337,4.3337,4.3289,4.3289,4.3289,4.3267,4.3219,4.3176,4.3053,0.0,0.0,4.2957,4.2957,4.3001,4.3019,4.2557,4.2425,4.2405,4.1686,4.1402,4.1232,0.0,0.0,0.0,0.0,0.0,0.0,0.0,0.0,1.934,1.9945,2.0112,2.0285,2.0488,2.1012,0.0,0.0,0.0,0.0,0.0,0.0,0.0,0.0,2.1893,2.1805,2.1904,2.1717,2.1634,2.1634,0.0,2.1375,2.1391,2.1604,2.1665,2.1603,2.1761,2.1716,2.1529,2.1941,2.1955,2.1761,2.2323,2.2496,2.2443,0.0,0.0,0.0,2.5109,2.5888,2.6824,2.854,2.9828,3.0845,3.211,3.2945,3.3514,3.3848,3.4472,3.5037,3.4873,3.529,3.591,3.6465,3.6589,3.6241,3.5004,3.4997,3.4739,3.2853,3.3086,3.3593,3.334,3.4247,3.5502,3.7007,3.8533,4.0359,4.2616,4.3401,4.3959,4.4553,4.4645,4.4819,4.5347,4.5622,0.0,0.0,0.0,4.7001,4.645,4.6058,4.5275,4.4031,4.401,4.3898,4.3569,4.3329,4.3329,4.3569,4.3329,4.3289,4.3441,4.3289,4.3302,4.3441,0.0,0.0,4.3219,4.3219,4.3058,4.2848,4.2441,4.2194,4.1947,4.1381,4.1188,4.1111,0.0,0.0,0.0,0.0,0.0,0.0,0.0,1.8988,1.9538,2.0464,2.0932,2.1174,2.1187,2.1578,2.1848,0.0,0.0,0.0,0.0,0.0,0.0,0.0,0.0,0.0,0.0,0.0,0.0,2.1312,2.0994,0.0,0.0,0.0,0.0,0.0,2.1441,2.1419,2.1435,2.2117,2.2145,0.0,0.0,2.2955,0.0,0.0,0.0,0.0,0.0,2.6896,2.7698,2.8745,3.0143,3.1747,3.3398,3.4276,3.4692,3.458,3.4998,3.5535,3.5733,3.5773,3.5919,3.6637,3.6405,3.5677,3.4205,3.4349,3.4211,3.2216,3.2802,3.3666,3.3517,3.4384,3.541,3.6337,3.8217,4.022,4.2143,4.341,4.447,4.53,4.5404,0.0,4.6047,4.6184,0.0,0.0,0.0,0.0,4.7069,4.6257,4.5277,4.4169,4.3994,4.3894,4.3897,4.3438,4.3394,4.3744,4.3394,4.3337,4.358,4.3302,4.3337,4.358,0.0,0.0,0.0,4.3093,4.2883,4.2524,4.2089,4.1735,4.1437,4.1061,4.0918,4.0882,0.0,0.0,0.0,0.0,0.0,0.0,0.0,1.9871,2.0484,2.1054,2.1691,2.2079,2.2065,2.1871,2.1721,0.0,0.0,0.0,0.0,0.0,0.0,0.0,0.0,0.0,0.0,0.0,0.0,2.1651,2.1431,0.0,0.0,0.0,0.0,0.0,0.0,2.1403,2.1015,2.1795,0.0,0.0,0.0,0.0,0.0,0.0,0.0,0.0,0.0,2.7049,2.7332,2.966,3.0556,3.1043,3.3034,3.4178,3.4674,3.4144,3.488,3.601,3.6769,3.6911,3.6938,3.7317,3.7155,3.6269,3.3889,3.4096,3.4262,3.2433,3.2948,3.379,3.3988,3.446,3.5329,3.6778,3.8028,3.9726,4.2373,4.327,4.4077,4.5254,4.5404,4.5587,4.6047,4.6541,0.0,0.0,0.0,0.0,0.0,4.6753,4.6074,4.5524,4.4882,4.4326,4.3897,4.3438,4.3241,4.3263,4.3241,4.3219,4.3232,4.3219,4.3219,4.3232,0.0,0.0,0.0,4.2791,4.2651,4.2546,4.1827,4.1508,4.1437,4.1061,4.0918,4.0811,0.0,0.0,0.0,0.0,0.0,0.0,0.0,1.9677,2.0203,2.1021,2.1542,2.1822,2.1732,2.1671,2.161,0.0,0.0,0.0,0.0,0.0,0.0,0.0,0.0,0.0,0.0,0.0,0.0,2.1824,2.1659,0.0,0.0,0.0,0.0,0.0,0.0,2.1369,2.1136,2.2198,0.0,0.0,0.0,0.0,0.0,0.0,0.0,0.0,0.0,0.0,2.7281,2.914,3.0205,3.0896,3.1525,3.2817,3.417,3.4564,3.5161,3.5923,3.6843,3.7095,3.7068,3.7041,3.6468,3.5455,3.3687,3.3616,3.3551,3.2341,3.3093,3.3965,3.4064,3.4636,3.5299,3.6064,3.7753,3.9467,4.0761,4.2366,4.375,4.4688,4.4871,4.5334,0.0,0.0,0.0,0.0,0.0,0.0,0.0,4.706,4.6088,4.5281,4.4573,4.4094,4.3897,4.3438,4.3351,4.3613,4.3351,4.3324,4.3511,4.3289,4.3302,4.3476,0.0,0.0,0.0,4.2686,4.2335,4.1933,4.1615,4.1366,4.1096,4.0704,4.0704,4.0775,0.0,0.0,0.0,0.0,0.0,1.8885,1.9365,1.9598,2.0017,2.0852,2.1193,2.1374,2.1395,2.1393,2.134,2.1222,0.0,0.0,0.0,0.0,0.0,0.0,0.0,0.0,0.0,0.0,0.0,0.0,0.0,2.1761,0.0,0.0,2.1698,2.1682,0.0,0.0,0.0,0.0,0.0,0.0,0.0,0.0,0.0,0.0,0.0,0.0,0.0,0.0,0.0,0.0,0.0,3.0626,3.0709,3.1733,3.3171,3.4129,3.4903,3.5718,3.6705,3.7052,3.7113,3.7196,3.6273,3.4974,3.3723,3.3444,3.3243,3.2392,3.3287,3.4259,3.4523,3.5099,3.5673,3.6017,3.7765,3.9271,3.9791,4.1452,4.2935,4.3816,4.3988,4.4615,0.0,4.6427,0.0,0.0,0.0,0.0,0.0,4.7454,4.6501,4.5698,4.4746,4.4222,4.4116,4.3504,4.3372,4.37,4.3504,4.3469,4.3546,4.3456,4.3469,0.0,0.0,0.0,0.0,4.237,4.1969,4.1473,4.1366,4.1132,4.0882,4.0596,4.0668,4.0811,0.0,0.0,0.0,0.0,0.0,0.0,0.0,1.9903,2.0148,2.0562,2.0725,2.0962,2.1371,2.1039,2.0811,2.0811,0.0,0.0,0.0,0.0,0.0,0.0,0.0,0.0,0.0,0.0,0.0,0.0,0.0,0.0,0.0,0.0,2.1698,2.1698,0.0,0.0,0.0,0.0,0.0,0.0,0.0,0.0,0.0,0.0,0.0,0.0,0.0,0.0,0.0,0.0,0.0,0.0,0.0,3.1354,3.165,3.2321,3.3811,3.543,3.65,3.6953,3.7315,3.8183,3.698,3.5254,3.3998,3.3866,3.371,3.27,3.3504,3.4649,3.5446,3.6001,3.6579,3.7108,3.8118,3.9145,4.0058,4.0681,4.1482,4.266,4.2814,4.3418,4.495,4.6623,0.0,0.0,0.0,0.0,0.0,4.8013,4.7589,4.7163,4.5884,4.5014,4.4582,4.3678,4.3219,4.3219,4.3678,4.3657,4.3219,4.3678,0.0,0.0,0.0,0.0,0.0,4.1827,4.1508,4.1437,4.1061,4.0918,4.0918,4.0918,4.0918,4.0847,0.0,0.0,0.0,0.0,0.0,0.0,0.0,1.9505,1.978,2.0263,2.0378,2.044,2.0569,2.0475,2.0234,1.9867,0.0,0.0,0.0,0.0,0.0,0.0,0.0,0.0,0.0,0.0,0.0,0.0,0.0,0.0,0.0,0.0,0.0,0.0,2.2151,0.0,0.0,0.0,0.0,0.0,0.0,0.0,0.0,0.0,0.0,0.0,0.0,0.0,0.0,0.0,0.0,0.0,0.0,0.0,0.0,3.2002,3.3142,3.458,3.5452,3.5763,3.5757,3.5696,3.4692,3.3598,3.3028,3.2795,3.2723,3.277,3.3624,3.4607,3.5211,3.6059,3.6738,3.6882,3.7983,3.882,3.8884,4.0324,4.1738,4.2853,4.4328,4.5505,0.0,0.0,0.0,0.0,0.0,0.0,0.0,4.8268,4.7745,4.6729,4.6039,4.5331,4.4582,4.4006,4.3678,4.3678,4.3504,4.3351,4.3219,4.3372,0.0,0.0,0.0,0.0,0.0,4.1579,4.1331,4.1061,4.0954,4.0918,4.0882,4.0596,4.0874,4.1266,0.0,0.0,0.0,0.0,0.0,0.0,0.0,1.9355,1.9583,1.9874,1.9939,2.0026,2.018,2.0062,1.9916,1.9793,0.0,0.0,0.0,0.0,0.0,0.0,0.0,0.0,0.0,0.0,0.0,0.0,0.0,0.0,0.0,0.0,0.0,0.0,0.0,0.0,0.0,0.0,0.0,0.0,0.0,0.0,2.6015,0.0,0.0,0.0,0.0,0.0,0.0,0.0,0.0,0.0,0.0,0.0,0.0,0.0,3.3183,3.401,3.4594,3.5039,3.5211,3.4799,3.4006,3.3237,3.2841,3.2644,3.2561,3.2806,3.3758,3.4697,3.5234,3.6063,3.6697,3.6792,3.7681,3.8407,3.8574,3.9921,4.1448,4.2929,4.4694,0.0,0.0,0.0,0.0,0.0,0.0,0.0,0.0,0.0,4.7622,4.6451,4.6234,4.5791,4.5084,4.4296,4.3897,4.3897,4.3613,4.3372,4.3219,0.0,0.0,0.0,0.0,0.0,0.0,4.1331,4.1132,4.0918,4.0918,4.0918,4.0882,4.0632,4.0889,4.126,0.0,0.0,0.0,0.0,0.0,0.0,0.0,0.0,0.0,1.9447,1.9538,1.9737,2.0122,1.9835,1.979,0.0,0.0,0.0,0.0,0.0,0.0,0.0,0.0,0.0,0.0,0.0,0.0,0.0,2.2824,2.31,2.3125,0.0,0.0,0.0,0.0,0.0,0.0,0.0,0.0,0.0,0.0,0.0,0.0,0.0,0.0,0.0,0.0,0.0,0.0,0.0,0.0,0.0,0.0,0.0,0.0,0.0,0.0,0.0,0.0,3.4562,3.5279,3.4991,3.4401,3.3762,3.3255,3.3142,0.0,3.2873,3.386,3.4906,3.5472,3.6014,3.6481,3.6745,3.723,3.7946,3.897,3.9769,4.0983,4.2936,4.4254,0.0,0.0,0.0,0.0,0.0,0.0,0.0,0.0,0.0,4.725,4.632,4.637,4.622,4.5843,4.4557,4.3897,4.3897,4.3853,4.3613,4.3219,0.0,0.0,0.0,0.0,0.0,0.0,4.1061,4.0918,4.0918,4.0918,4.0918,4.0918,4.0918,4.0939,4.0959,0.0,0.0,0.0,0.0,0.0,0.0,0.0,0.0,0.0,0.0,1.963,1.968,1.9869,1.9718,1.968,0.0,0.0,0.0,0.0,0.0,0.0,0.0,0.0,0.0,0.0,0.0,0.0,2.2524,2.2676,2.2999,2.3495,2.345,0.0,0.0,0.0,0.0,0.0,0.0,0.0,0.0,0.0,0.0,0.0,0.0,0.0,0.0,2.8546,2.9222,0.0,0.0,0.0,0.0,0.0,0.0,0.0,0.0,3.2713,3.2643,3.2322,0.0,3.346,3.2599,3.258,3.2747,0.0,3.2714,3.2871,3.3068,3.363,3.4352,3.5138,3.5734,3.6255,3.6726,3.7071,3.7801,3.9333,4.1909,4.3753,4.3983,4.546,4.639,0.0,0.0,0.0,0.0,0.0,0.0,0.0,0.0,4.6547,4.6297,4.577,4.5442,4.5276,4.4359,4.3897,4.3897,4.3547,4.3307,4.3184,4.2991,0.0,0.0,0.0,0.0,4.1025,4.0954,4.0918,4.0918,4.0918,4.0918,4.0918,4.0918,4.1146,4.1436,0.0,0.0,0.0,0.0,0.0,0.0,0.0,0.0,0.0,0.0,0.0,0.0,0.0,0.0,0.0,0.0,0.0,0.0,0.0,0.0,0.0,0.0,0.0,0.0,0.0,0.0,0.0,0.0,0.0,2.3381,0.0,0.0,0.0,0.0,0.0,0.0,0.0,0.0,0.0,0.0,2.646,0.0,0.0,0.0,0.0,0.0,2.8658,2.9305,0.0,3.0629,3.0849,3.0953,0.0,0.0,0.0,0.0,3.246,3.2269,3.1652,3.2127,3.2638,3.1872,3.2219,3.2705,3.2571,3.2723,3.2928,3.3121,3.3745,3.4405,3.4894,3.5845,3.652,3.645,3.7419,3.8723,4.0348,4.2593,4.4226,4.4635,4.5613,4.6418,0.0,0.0,0.0,0.0,0.0,0.0,0.0,0.0,4.5846,4.5395,4.4892,4.4794,4.5158,4.4316,4.3897,4.3897,4.3241,4.2918,4.2918,4.2511,0.0,0.0,0.0,0.0,4.0918,4.0918,4.0918,4.0918,4.0918,4.0918,4.0918,4.0918,4.1063,4.1291,0.0,0.0,0.0,0.0,0.0,0.0,0.0,0.0,0.0,0.0,0.0,0.0,0.0,0.0,0.0,0.0,0.0,0.0,0.0,0.0,0.0,0.0,0.0,0.0,0.0,0.0,0.0,0.0,0.0,0.0,0.0,0.0,0.0,0.0,0.0,0.0,0.0,0.0,0.0,0.0,2.6634,0.0,0.0,0.0,0.0,0.0,0.0,0.0,0.0,3.0715,3.1011,3.1097,3.1672,0.0,0.0,0.0,0.0,0.0,3.1375,3.1833,3.2382,3.1951,3.2464,3.3047,3.281,3.2939,3.309,3.309,3.3822,3.4527,3.4778,3.5931,3.6688,3.63,3.809,4.0042,4.1512,4.2818,4.3959,4.4946,4.543,0.0,0.0,0.0,0.0,0.0,0.0,0.0,0.0,0.0,0.0,4.4226,4.3942,4.4126,4.4887,4.4148,4.3788,4.3788,4.2986,4.2616,4.2559,4.2124,0.0,0.0,0.0,0.0,4.0918,4.0918,4.0918,4.0918,4.0918,4.0918,4.0918,4.0954,4.0954,4.0918,0.0,0.0,0.0,0.0,0.0,0.0,0.0,0.0,0.0,0.0,0.0,0.0,0.0,0.0,0.0,0.0,0.0,0.0,0.0,0.0,0.0,0.0,0.0,0.0,0.0,0.0,0.0,0.0,0.0,0.0,2.4563,2.4363,2.4175,0.0,0.0,0.0,0.0,0.0,0.0,0.0,0.0,0.0,0.0,0.0,0.0,0.0,0.0,0.0,0.0,3.1145,3.1142,3.1116,3.1825,0.0,0.0,0.0,0.0,0.0,3.117,3.1833,3.2322,3.1637,3.2294,3.309,3.3047,3.3068,3.309,3.309,3.3241,3.3746,3.513,3.523,3.5564,3.7096,3.9233,4.1044,0.0,0.0,4.5274,4.4907,0.0,0.0,0.0,0.0,0.0,0.0,0.0,0.0,0.0,0.0,0.0,4.3789,4.3473,4.3351,4.3508,4.3351,4.3307,4.3307,4.2835,4.2616,4.2581,4.1898,4.1544,0.0,0.0,4.0954,4.0918,4.0918,4.0918,4.0918,4.0918,4.0918,4.0954,4.1295,4.1167,4.0918,0.0,0.0,0.0,0.0,0.0,0.0,0.0,0.0,0.0,0.0,0.0,0.0,0.0,0.0,0.0,0.0,0.0,0.0,0.0,0.0,0.0,0.0,0.0,0.0,0.0,0.0,0.0,0.0,0.0,2.4102,2.4706,2.4334,2.4157,2.4096,0.0,0.0,0.0,0.0,0.0,0.0,0.0,0.0,0.0,0.0,0.0,0.0,0.0,0.0,0.0,0.0,3.141,3.1344,3.1589,0.0,0.0,0.0,0.0,0.0,3.108,3.134,3.1614,3.2181,3.3144,3.3906,3.364,3.3773,3.3928,3.377,3.3998,3.4547,3.5572,3.6176,3.732,3.9853,0.0,4.1659,4.3212,4.4053,4.4744,0.0,0.0,0.0,0.0,0.0,0.0,0.0,0.0,0.0,0.0,0.0,0.0,0.0,4.3289,4.3219,4.3219,4.29,4.2796,4.2861,4.2476,4.2194,4.1983,4.1416,4.1167,4.1188,0.0,4.0918,4.0918,4.0918,4.0918,4.0918,4.0918,4.0918,4.0954,4.1366,4.1259,4.0954,0.0,0.0,0.0,0.0,0.0,0.0,0.0,0.0,0.0,0.0,0.0,0.0,0.0,0.0,0.0,0.0,0.0,0.0,0.0,0.0,0.0,0.0,0.0,0.0,0.0,0.0,2.3285,2.4175,2.4136,2.4339,2.4791,2.439,2.4187,0.0,0.0,0.0,0.0,0.0,0.0,0.0,0.0,0.0,0.0,0.0,0.0,0.0,0.0,0.0,0.0,0.0,0.0,0.0,0.0,0.0,0.0,3.1048,3.071,3.0535,3.106,3.1102,3.129,3.2717,3.3596,3.4162,3.4324,3.4531,3.4733,3.4801,3.5107,3.5605,3.6252,3.7417,3.9136,4.1684,4.1778,4.2182,4.4107,0.0,0.0,0.0,0.0,0.0,0.0,0.0,0.0,0.0,0.0,0.0,0.0,0.0,0.0,0.0,4.3254,4.3219,4.3219,4.2722,4.2492,4.2594,4.2066,4.17,4.1473,4.1061,4.0918,4.0918,4.0918,4.0918,4.0918,4.0918,4.0918,4.0918,4.0918,4.0954,4.1061,4.1295,4.1224,4.1132,0.0,0.0,0.0,0.0,0.0,0.0,0.0,0.0,0.0,0.0,0.0,0.0,0.0,0.0,0.0,0.0,0.0,0.0,0.0,0.0,0.0,0.0,0.0,0.0,0.0,2.3192,2.3622,2.4909,2.4367,2.4339,2.4806,2.4649,2.445,2.4305,0.0,0.0,0.0,0.0,0.0,0.0,0.0,0.0,0.0,0.0,0.0,0.0,0.0,0.0,0.0,0.0,0.0,0.0,0.0,0.0,3.1254,3.1048,3.071,3.0535,3.106,3.1615,3.2219,3.2846,3.2696,3.2921,3.4936,3.5034,3.4979,3.6031,3.607,3.6252,3.727,3.8396,3.9536,4.0817,4.1598,4.2728,4.467,0.0,0.0,0.0,0.0,0.0,0.0,0.0,0.0,0.0,0.0,0.0,0.0,0.0,0.0,0.0,0.0,4.3219,4.3219,4.2805,4.2608,4.2594,4.1746,4.1383,4.1473,4.1061,4.0918,4.0918,4.0918,4.0918,4.0918,4.0918,4.0918,4.0918,4.0918,4.1132,4.1402,4.1061,4.1167,4.1437,0.0,0.0,0.0,0.0,0.0,0.0,0.0,0.0,0.0,0.0,0.0,0.0,0.0,0.0,0.0,0.0,0.0,0.0,0.0,0.0,0.0,0.0,0.0,2.3484,2.4372,2.4213,2.446,2.5104,2.4886,2.4816,2.4934,2.4791,0.0,0.0,0.0,0.0,0.0,0.0,0.0,0.0,0.0,0.0,0.0,0.0,0.0,0.0,0.0,0.0,0.0,0.0,3.1179,3.1174,3.1368,3.1347,3.1254,3.1048,3.071,3.0535,3.106,3.1312,3.1705,3.28,3.2657,3.2841,3.5066,3.5531,3.5747,3.6494,3.6553,3.6773,3.7696,3.8858,4.0181,4.1678,4.2745,4.3799,0.0,0.0,0.0,0.0,0.0,0.0,0.0,0.0,0.0,0.0,0.0,0.0,0.0,0.0,0.0,0.0,0.0,4.2704,4.2704,4.2261,4.1964,4.178,4.1524,4.1319,4.1096,4.0954,4.0918,4.0918,4.0918,4.1025,4.1259,4.0989,4.1061,4.1295,4.1295,4.1366,4.1544,4.1841,4.1771,4.1579,0.0,0.0,0.0,0.0,0.0,0.0,0.0,0.0,0.0,0.0,0.0,0.0,0.0,0.0,0.0,0.0,0.0,0.0,0.0,0.0,0.0,0.0,0.0,2.3768,2.4622,2.4825,2.5033,2.5188,2.5272,2.5202,2.5018,0.0,0.0,0.0,0.0,0.0,0.0,0.0,0.0,0.0,0.0,0.0,0.0,0.0,0.0,0.0,0.0,0.0,0.0,0.0,3.1091,3.1293,3.1312,3.1347,3.1328,3.1093,3.0877,3.0849,3.1238,3.1438,3.1789,3.3022,3.3183,3.3585,3.5637,3.6055,3.6325,3.7468,3.7565,3.7594,3.8174,3.9147,0.0,0.0,4.3328,0.0,0.0,0.0,0.0,0.0,0.0,0.0,0.0,0.0,0.0,0.0,0.0,0.0,0.0,0.0,0.0,0.0,0.0,0.0,4.218,4.1615,4.1262,4.1103,4.0955,4.0715,4.0448,4.0448,4.0448,4.0448,4.0448,4.068,4.1032,4.0645,4.0728,4.1142,4.1395,4.1508,4.1579,4.2194,4.2089,4.1756,0.0,0.0,0.0,0.0,0.0,0.0,0.0,0.0,0.0,0.0,0.0,0.0,0.0,0.0,0.0,0.0,0.0,0.0,0.0,0.0,0.0,0.0,0.0,2.4496,2.4327,2.4887,2.5188,2.5188,2.5383,2.5314,2.5018,2.5018,0.0,0.0,0.0,0.0,0.0,0.0,0.0,0.0,2.7317,2.7913,0.0,0.0,0.0,0.0,0.0,0.0,0.0,0.0,3.0708,3.0778,3.1162,3.1447,3.1503,3.1104,3.1232,3.1532,3.1665,3.2143,3.2811,3.3686,3.4301,3.5155,3.681,3.6592,3.6696,3.9194,3.9206,3.8802,3.88,3.9248,0.0,0.0,0.0,0.0,0.0,0.0,0.0,0.0,0.0,0.0,0.0,0.0,0.0,0.0,0.0,0.0,0.0,0.0,0.0,0.0,0.0,0.0,4.1677,4.0954,4.0601,4.0567,3.9847,3.9502,3.9502,3.9502,3.9502,3.9502,3.9502,3.9744,4.0087,3.9675,3.9792,4.0282,4.1163,4.1508,4.1544,4.1877,4.2018,4.2053,0.0,0.0,0.0,0.0,0.0,0.0,0.0,0.0,0.0,0.0,0.0,0.0,0.0,0.0,0.0,0.0,0.0,0.0,0.0,0.0,0.0,0.0,0.0,0.0,0.0,0.0,2.5522,2.5188,2.5508,2.5536,0.0,0.0,0.0,2.5757,0.0,0.0,0.0,0.0,0.0,0.0,2.7714,2.8115,0.0,0.0,0.0,0.0,0.0,0.0,0.0,0.0,0.0,0.0,3.0448,3.0789,3.1131,3.0868,3.0763,3.0785,3.106,3.1896,3.2786,3.3244,3.4352,3.5658,3.6913,3.7167,3.7494,3.8804,3.8919,3.8855,3.9045,3.9675,0.0,0.0,0.0,0.0,0.0,0.0,0.0,0.0,0.0,0.0,0.0,0.0,0.0,0.0,0.0,0.0,0.0,0.0,0.0,0.0,0.0,0.0,4.0863,4.0629,4.0259,3.9753,3.9181,3.9133,3.9502,3.9813,3.9916,3.9916,3.9916,4.0238,4.0806,4.0803,4.0529,4.0317,4.1425,4.1841,4.1912,4.2603,4.2651,4.2405,0.0,0.0,0.0,0.0,0.0,0.0,0.0,0.0,0.0,0.0,1.9708,1.9721,0.0,0.0,0.0,0.0,0.0,0.0,0.0,0.0,0.0,0.0,0.0,0.0,0.0,2.5798,2.5729,0.0,0.0,0.0,0.0,0.0,0.0,2.6399,0.0,2.6674,0.0,0.0,2.732,2.81,2.81,2.8377,2.881,0.0,0.0,0.0,0.0,0.0,0.0,0.0,0.0,0.0,3.0283,3.0584,3.104,3.1158,3.1158,3.1238,3.2033,3.2836,3.3629,3.4367,3.5481,3.6701,3.7941,3.8317,3.8563,3.9015,3.9108,3.9247,3.9601,4.0057,0.0,0.0,0.0,0.0,0.0,0.0,0.0,0.0,0.0,0.0,0.0,0.0,0.0,0.0,0.0,0.0,0.0,0.0,0.0,0.0,0.0,0.0,4.0188,4.0034,3.9702,3.9135,3.8695,3.8741,3.9182,3.9419,3.9453,3.9372,3.9643,3.996,4.0351,4.0618,4.0491,4.0271,4.1305,4.172,4.1833,4.2818,4.2844,4.2322,0.0,0.0,0.0,0.0,0.0,0.0,0.0,0.0,0.0,0.0,1.9604,1.9642,0.0,0.0,0.0,0.0,0.0,0.0,0.0,0.0,0.0,0.0,0.0,0.0,0.0,0.0,0.0,0.0,0.0,0.0,0.0,0.0,2.6929,2.7445,0.0,2.7897,0.0,2.7837,2.7861,2.8406,2.8489,2.8744,2.9113,2.9097,0.0,0.0,0.0,0.0,0.0,0.0,0.0,0.0,3.0456,3.065,3.1088,3.1678,3.1943,3.2342,3.3701,3.4354,3.4944,3.635,3.7171,3.7991,3.9318,3.9645,3.9664,3.966,0.0,3.9802,4.0351,4.0455,0.0,0.0,0.0,0.0,0.0,0.0,0.0,0.0,0.0,0.0,0.0,0.0,0.0,0.0,0.0,0.0,0.0,0.0,0.0,0.0,0.0,0.0,3.9658,3.9299,3.8948,0.0,3.8275,3.8308,3.8585,3.866,3.8549,3.8325,3.9,3.9243,3.9252,3.972,3.9998,4.0169,4.1,4.1329,4.1497,4.2744,4.2692,4.2055,0.0,0.0,0.0,0.0,0.0,0.0,0.0,0.0,0.0,0.0,0.0,0.0,0.0,0.0,0.0,0.0,0.0,0.0,0.0,0.0,0.0,0.0,0.0,0.0,0.0,0.0,0.0,0.0,0.0,0.0,0.0,0.0,0.0,2.6946,0.0,2.734,2.7973,2.7789,2.798,2.8462,2.8979,2.9148,2.9097,2.8938,2.8858,0.0,0.0,0.0,0.0,0.0,0.0,0.0,3.0306,3.0566,3.0769,3.0746,3.1111,3.1612,3.224,3.3511,3.4878,3.5643,3.6875,3.8081,3.8823,3.9317,3.969,3.9947,3.9945,4.0081,4.0623,0.0,0.0,0.0,0.0,0.0,0.0,0.0,0.0,0.0,0.0,0.0,0.0,0.0,0.0,0.0,0.0,0.0,0.0,0.0,0.0,0.0,0.0,4.0154,3.9308,3.8881,3.8331,0.0,3.7665,3.7665,3.7785,3.8414,3.8781,3.9033,3.9757,3.9735,3.9252,3.9987,4.0143,4.0066,4.1272,4.1787,4.1887,4.2849,4.3084,4.2857,0.0,0.0,0.0,0.0,0.0,0.0,0.0,0.0,0.0,0.0,0.0,0.0,0.0,0.0,0.0,0.0,0.0,0.0,0.0,0.0,0.0,0.0,0.0,0.0,0.0,0.0,0.0,0.0,0.0,0.0,0.0,0.0,0.0,2.6919,0.0,2.768,2.8212,2.8137,2.8398,2.8923,2.9273,2.935,2.924,2.9033,2.8954,2.8922,2.8697,0.0,0.0,0.0,0.0,0.0,0.0,0.0,3.0701,3.1381,3.1402,3.1514,3.2915,3.4098,3.5258,3.6601,3.7656,3.8518,3.9058,3.9298,3.9612,4.0289,4.0416,4.0505,4.0898,0.0,0.0,0.0,0.0,0.0,0.0,0.0,0.0,0.0,0.0,0.0,0.0,0.0,0.0,0.0,0.0,0.0,0.0,0.0,0.0,0.0,4.0069,3.9728,3.8529,3.8529,3.8151,3.7488,3.7488,3.7612,3.7872,3.8266,3.8735,3.921,3.9625,3.9658,3.9483,3.9883,4.0098,4.0189,4.0939,4.1201,4.1278,4.2152,4.2257,4.1921,0.0,0.0,0.0,0.0,0.0,0.0,0.0,0.0,0.0,0.0,0.0,0.0,0.0,0.0,0.0,0.0,0.0,0.0,0.0,0.0,0.0,0.0,0.0,0.0,0.0,0.0,0.0,0.0,0.0,0.0,0.0,0.0,0.0,2.7074,0.0,2.812,2.8596,2.8387,2.869,2.9324,2.9404,2.9444,2.9429,0.0,0.0,2.9113,2.8745,2.8931,2.941,2.9611,0.0,0.0,0.0,0.0,3.0727,3.206,3.1852,3.1624,3.3652,3.4698,3.5671,3.7685,3.84,3.8727,3.922,3.9231,3.9409,4.038,4.0671,4.0833,0.0,0.0,0.0,0.0,0.0,0.0,0.0,0.0,0.0,0.0,0.0,0.0,0.0,0.0,0.0,0.0,0.0,0.0,3.8838,0.0,3.9125,3.8806,3.9484,3.9199,3.7806,3.8124,3.7939,3.726,3.7343,3.7653,3.8191,3.8191,3.857,3.9177,3.9243,3.9494,3.9789,3.9789,4.0038,4.0384,4.0525,4.0546,4.059,4.1356,4.1226,4.0733,0.0,0.0,0.0,0.0,0.0,0.0,0.0,0.0,0.0,0.0,2.0486,2.0549,0.0,0.0,0.0,0.0,0.0,0.0,0.0,0.0,0.0,0.0,0.0,0.0,0.0,0.0,0.0,0.0,0.0,0.0,2.6458,0.0,0.0,2.7269,0.0,0.0,2.8253,2.7977,2.8314,2.9011,2.9423,2.9585,2.9554,0.0,0.0,0.0,0.0,2.8735,2.9034,2.9964,3.0254,0.0,0.0,0.0,3.0648,3.0727,3.1055,3.1515,3.1841,3.3542,3.5535,3.7012,3.7556,3.7836,3.8123,3.8535,3.9038,0.0,4.0122,4.0604,0.0,0.0,0.0,0.0,0.0,0.0,0.0,0.0,0.0,0.0,0.0,0.0,0.0,0.0,0.0,0.0,0.0,0.0,3.8838,3.8755,3.8742,3.8784,3.8903,3.862,3.7806,3.7551,3.7085,3.6308,3.6701,3.7343,3.8191,3.8191,3.857,3.921,3.9527,3.9855,4.0214,4.0214,4.0258,4.0345,4.0781,4.0934,4.0966,4.1176,4.1214,4.1108,0.0,0.0,0.0,0.0,0.0,0.0,0.0,0.0,0.0,0.0,0.0,2.0775,0.0,0.0,0.0,2.0997,2.1157,2.1496,2.2205,0.0,0.0,0.0,0.0,0.0,0.0,0.0,0.0,0.0,0.0,2.6458,2.6963,2.7346,2.749,0.0,0.0,0.0,0.0,2.8636,2.8903,2.9425,2.9631,2.9863,0.0,0.0,0.0,0.0,0.0,0.0,0.0,3.0137,3.0185,3.0129,3.1241,0.0,0.0,0.0,3.0808,3.1037,3.2193,3.3933,3.5707,3.6914,3.751,3.791,3.8356,3.8864,3.9417,3.9946,4.0475,4.0851,0.0,0.0,0.0,0.0,0.0,0.0,0.0,0.0,0.0,0.0,0.0,0.0,0.0,0.0,0.0,0.0,0.0,3.8241,3.8038,3.7964,3.7872,3.7752,3.7981,3.7701,3.6738,3.6855,3.6645,3.6121,3.6768,3.7448,3.8074,3.8271,3.8582,3.8946,3.9276,3.9625,3.9986,4.0214,4.0312,4.0334,4.052,4.0607,4.0629,4.066,4.0873,4.1133,0.0,0.0,0.0,0.0,0.0,0.0,0.0,0.0,0.0,0.0,0.0,0.0,0.0,0.0,0.0,0.0,2.1288,2.1876,2.2834,2.3205,0.0,0.0,0.0,0.0,0.0,0.0,0.0,0.0,2.6152,2.6542,2.7094,2.7472,2.77,0.0,2.7762,2.8339,0.0,0.0,0.0,0.0,0.0,0.0,0.0,0.0,0.0,0.0,0.0,0.0,0.0,0.0,0.0,0.0,3.1276,3.0908,0.0,0.0,0.0,3.054,3.2406,3.379,3.5038,3.6433,3.7154,3.7678,3.8428,3.8912,3.9345,0.0,4.025,0.0,0.0,0.0,0.0,0.0,0.0,0.0,0.0,0.0,0.0,0.0,0.0,0.0,0.0,0.0,0.0,0.0,0.0,3.7555,3.7413,3.7314,3.7154,3.6911,3.7179,3.6869,3.5932,3.6143,3.6279,3.6287,3.6958,3.7611,3.8189,3.8515,3.8771,3.8979,3.921,3.9527,3.9888,4.0182,4.0312,4.0312,4.0312,4.0312,4.0279,4.0182,4.0506,4.0952,0.0,0.0,0.0,0.0,0.0,0.0,0.0,0.0,0.0,0.0,0.0,0.0,0.0,2.112,2.1193,2.1205,2.1422,2.1945,2.2834,2.361,2.4331,0.0,0.0,0.0,0.0,0.0,0.0,2.6098,2.6111,2.626,2.6569,2.7216,2.7904,2.8623,2.851,2.8871,2.9566,0.0,0.0,0.0,0.0,0.0,0.0,0.0,0.0,0.0,0.0,0.0,0.0,0.0,0.0,0.0,0.0,0.0,3.0872,0.0,0.0,0.0,3.1419,3.1975,3.2745,3.511,3.5896,3.6439,3.7729,3.8072,3.8238,3.8791,3.8694,0.0,0.0,0.0,0.0,0.0,0.0,0.0,0.0,0.0,0.0,0.0,0.0,0.0,0.0,0.0,0.0,0.0,0.0,3.7555,3.7413,3.7093,3.6932,3.6902,3.6714,3.6394,3.5901,3.5614,3.5894,3.6763,3.7125,3.7779,3.8672,3.9002,3.9341,3.9658,3.9658,3.9888,4.0279,4.0279,4.0312,4.0312,4.0312,4.0312,4.0247,3.9855,4.008,4.0521,0.0,0.0,0.0,0.0,0.0,0.0,0.0,0.0,0.0,0.0,0.0,0.0,0.0,2.1132,2.1242,2.1313,2.1566,2.2284,2.3569,2.3827,2.4399,2.5527,0.0,0.0,0.0,2.5907,2.5935,2.5976,2.6152,2.65,2.7036,2.789,2.8638,2.9276,2.9233,2.9595,3.0248,3.0144,0.0,0.0,0.0,0.0,0.0,0.0,0.0,0.0,0.0,0.0,0.0,0.0,0.0,0.0,0.0,0.0,0.0,3.0056,3.0058,3.0215,3.0884,3.177,3.2799,3.4026,3.504,3.5972,3.6794,3.7519,3.8142,3.8668,3.8861,0.0,0.0,0.0,0.0,0.0,0.0,0.0,0.0,0.0,0.0,0.0,0.0,0.0,0.0,0.0,0.0,0.0,0.0,0.0,3.6516,3.6465,3.6338,3.6157,3.6147,3.5976,3.5572,3.5448,3.5552,3.5914,3.6227,3.6845,3.7689,3.8327,3.9002,3.9659,3.9953,4.0182,4.0312,4.0312,4.0312,4.0312,4.0312,4.0312,4.0279,4.0149,4.0388,4.0823,0.0,0.0,0.0,0.0,0.0,0.0,0.0,0.0,0.0,0.0,0.0,0.0,0.0,0.0,2.1406,2.1806,2.1952,2.2696,2.429,2.4169,2.4575,2.5851,2.5756,0.0,0.0,2.5907,2.5907,2.5907,2.6179,2.6641,2.7311,2.825,2.9029,2.961,2.9827,3.019,0.0,0.0,0.0,3.0502,0.0,0.0,3.2676,0.0,0.0,0.0,0.0,0.0,0.0,0.0,0.0,0.0,0.0,0.0,0.0,0.0,0.0,3.001,3.0331,3.1268,3.2311,3.3144,3.4122,3.5162,3.593,3.6742,3.7508,3.8139,3.8316,0.0,0.0,0.0,0.0,0.0,0.0,0.0,0.0,0.0,0.0,0.0,0.0,0.0,0.0,0.0,0.0,0.0,0.0,0.0,3.5845,3.597,3.5905,3.5601,3.5556,3.5488,3.5387,3.551,3.5655,3.5821,3.6265,3.6829,3.7525,3.8161,3.8856,3.9644,3.9918,4.0159,4.0312,4.0312,4.0312,4.0312,4.0312,4.0312,4.0312,4.0312,4.0585,4.1,0.0,0.0,0.0,0.0,0.0,0.0,0.0,0.0,0.0,0.0,0.0,0.0,0.0,0.0,0.0,2.2652,2.2608,2.3244,2.4883,2.4689,2.4926,2.5838,2.5756,0.0,0.0,2.5907,2.5907,2.5907,2.6165,2.6641,2.7311,2.8279,2.9029,2.9624,3.0292,3.0598,3.0598,0.0,3.0598,3.0669,0.0,3.2319,3.2986,0.0,0.0,0.0,3.3595,3.3403,0.0,0.0,0.0,0.0,0.0,0.0,0.0,0.0,0.0,0.0,0.0,0.0,0.0,3.2386,3.3121,3.3877,3.5209,3.5729,3.6152,3.7008,3.6906,0.0,0.0,0.0,0.0,0.0,0.0,0.0,0.0,0.0,0.0,0.0,0.0,0.0,0.0,0.0,0.0,0.0,0.0,3.5922,3.5511,3.5571,3.558,3.5397,3.5034,3.5013,3.5387,3.5726,3.6111,3.6603,3.7269,3.7816,3.8269,3.8605,3.9078,3.9601,3.9601,3.9853,4.0312,4.0312,4.0312,4.0312,4.0312,4.0312,4.0312,4.0312,4.0585,4.0978,0.0,0.0,0.0,0.0,0.0,0.0,0.0,0.0,0.0,0.0,0.0,0.0,0.0,0.0,0.0,2.3315,2.3315,2.3751,2.4792,2.4769,2.5047,2.5715,2.5701,2.5743,2.5907,2.5907,2.5907,2.5907,2.6084,0.0,0.0,0.0,0.0,0.0,3.0292,3.0598,3.0598,3.0598,0.0,3.0516,3.2033,3.2639,0.0,0.0,0.0,0.0,0.0,3.3203,0.0,0.0,3.2385,3.1176,0.0,0.0,0.0,0.0,0.0,0.0,2.9799,0.0,0.0,0.0,0.0,0.0,3.3138,3.3718,3.4558,3.6265,3.6413,3.6407,0.0,0.0,0.0,0.0,0.0,0.0,0.0,0.0,0.0,0.0,0.0,0.0,0.0,0.0,0.0,0.0,3.5685,3.5335,3.4793,3.4822,3.4886,3.4951,3.5128,3.5293,3.5387,3.5726,3.5964,3.609,3.6768,3.7139,3.732,3.8006,3.8575,3.9034,3.9034,3.9515,4.0312,4.0312,4.0312,4.0312,4.0312,4.0312,4.0312,4.0312,4.0399,4.0476,0.0,0.0,0.0,0.0,0.0,0.0,0.0,0.0,0.0,0.0,0.0,0.0,0.0,0.0,0.0,0.0,2.4029,2.4357,2.521,2.5159,2.5312,2.5756,2.5715,2.5743,2.5907,2.5907,2.602,2.6273,0.0,0.0,0.0,0.0,0.0,0.0,0.0,0.0,0.0,0.0,0.0,0.0,3.1919,0.0,0.0,3.3476,3.4333,0.0,0.0,0.0,3.406,3.4088,3.2834,0.0,0.0,0.0,0.0,0.0,0.0,0.0,0.0,0.0,0.0,0.0,0.0,0.0,3.2381,3.2921,3.3766,3.5664,3.5962,3.5987,0.0,0.0,0.0,0.0,0.0,0.0,0.0,0.0,0.0,0.0,0.0,0.0,0.0,0.0,0.0,3.584,3.5561,3.5124,3.4452,3.3972,3.398,3.4475,3.4527,3.4816,3.5312,3.5668,3.5987,3.6331,3.685,3.7123,3.7123,3.7588,3.8073,3.8501,3.8501,3.9078,4.0006,4.0006,4.0115,4.0312,4.0312,4.0312,4.0312,4.0312,4.0312,4.0312,0.0,0.0,0.0,0.0,0.0,0.0,0.0,0.0,0.0,0.0,0.0,0.0,0.0,0.0,0.0,0.0,2.4692,2.5063,2.5824,2.5688,0.0,2.588,2.577,2.577,2.5907,2.5907,2.6188,0.0,0.0,0.0,0.0,0.0,0.0,0.0,0.0,0.0,0.0,0.0,0.0,3.0584,3.155,3.2184,0.0,0.0,3.4527,0.0,3.5002,3.504,3.4946,3.4653,3.3526,0.0,0.0,0.0,0.0,0.0,2.9829,0.0,0.0,0.0,0.0,0.0,0.0,0.0,3.2213,3.2625,3.3213,3.4872,3.522,3.5299,0.0,0.0,0.0,0.0,0.0,0.0,0.0,0.0,0.0,0.0,0.0,0.0,0.0,3.5887,3.6077,3.5745,3.5433,3.4933,3.4203,3.3283,3.3161,3.3998,3.3758,3.4093,3.5104,3.5592,3.6136,3.676,3.7179,3.7382,3.7339,3.7382,3.7667,3.8117,3.8117,3.8663,3.9622,3.9622,3.9875,4.0312,4.0312,4.0312,4.0279,4.0247,4.0247,4.0312,0.0,0.0,0.0,0.0,0.0,0.0,0.0,0.0,0.0,0.0,0.0,0.0,0.0,0.0,0.0,0.0,0.0,2.5562,0.0,0.0,2.5798,2.5729,2.5811,2.588,2.5907,2.5907,2.6188,2.6792,2.6821,0.0,0.0,0.0,0.0,0.0,0.0,0.0,0.0,0.0,0.0,3.1884,3.1562,0.0,3.2693,3.3474,3.4506,3.552,3.5197,3.5014,3.4725,0.0,3.3094,3.2857,0.0,0.0,0.0,0.0,0.0,0.0,0.0,0.0,0.0,0.0,0.0,0.0,3.0323,3.051,3.0943,3.2421,3.2831,3.3034,3.3363,0.0,0.0,0.0,0.0,0.0,0.0,0.0,0.0,0.0,0.0,0.0,0.0,3.5382,3.5523,3.5277,3.4703,3.4073,3.3472,3.3322,3.3356,3.3542,3.4402,3.4772,3.4622,3.6002,3.6376,3.5797,3.6883,3.7178,3.685,3.7229,3.7667,3.8117,3.8117,3.8663,3.9622,3.9622,3.9875,4.0312,4.0312,4.0312,4.0247,3.9953,4.0018,4.0345,0.0,0.0,0.0,0.0,0.0,0.0,0.0,0.0,0.0,0.0,0.0,0.0,0.0,0.0,0.0,0.0,0.0,0.0,0.0,0.0,2.588,2.5784,2.588,2.6007,2.6232,2.6315,2.6764,2.7617,2.769,2.8301,0.0,0.0,0.0,0.0,0.0,0.0,3.0968,0.0,3.1604,3.1922,3.2144,0.0,3.4104,3.4487,3.5301,3.6189,3.5876,3.5415,3.4915,3.4328,3.3573,0.0,0.0,3.1815,3.1244,0.0,3.0559,3.0383,0.0,0.0,0.0,2.9696,0.0,0.0,0.0,3.0762,3.1013,3.1951,3.231,3.2369,3.2097,0.0,0.0,0.0,0.0,0.0,0.0,0.0,0.0,0.0,0.0,0.0,0.0,3.4932,3.5081,3.4881,3.4285,3.3855,3.3664,3.3421,3.3375,3.3518,3.3959,3.4357,3.4657,3.5449,3.5943,3.612,3.6747,3.7046,3.7076,3.7295,3.7535,3.7745,3.8008,3.851,3.9209,3.9481,3.9875,4.0312,4.0312,4.0312,4.0279,4.0084,4.0116,4.029,2.2343,0.0,0.0,0.0,0.0,0.0,0.0,0.0,0.0,0.0,0.0,0.0,0.0,0.0,0.0,0.0,0.0,0.0,0.0,0.0,0.0,2.6258,2.6132,2.633,2.6913,2.6974,2.745,2.8391,2.8614,2.9059,2.9747,0.0,0.0,0.0,0.0,3.0723,3.1287,0.0,0.0,3.224,0.0,3.4226,3.5169,3.5278,3.5864,3.6574,3.6429,3.5858,3.518,3.5304,0.0,3.2694,3.2921,3.2252,0.0,0.0,0.0,0.0,0.0,0.0,0.0,0.0,0.0,3.0097,0.0,0.0,0.0,3.167,3.1865,0.0,0.0,0.0,0.0,0.0,0.0,0.0,0.0,0.0,0.0,0.0,0.0,0.0,0.0,3.4203,3.4357,3.4459,3.3915,3.3704,3.3987,3.3523,3.3381,3.3607,3.3551,3.3884,3.4654,3.4905,3.5483,3.6413,3.661,3.6894,3.7273,3.7361,3.7404,3.7448,3.7986,3.8392,3.8697,3.935,3.9809,4.0181,4.0268,4.0312,4.0279,4.0214,4.0247,4.0269,2.3149,2.295,0.0,0.0,0.0,0.0,0.0,0.0,0.0,0.0,0.0,0.0,0.0,0.0,0.0,0.0,0.0,0.0,2.758,0.0,0.0,0.0,2.7003,2.717,2.8168,2.7857,2.7928,2.8391,2.8614,2.9014,2.9632,2.9632,0.0,0.0,3.0507,0.0,3.1111,0.0,3.3571,0.0,3.4761,3.4536,0.0,3.4002,3.4927,3.6191,3.6322,3.5958,3.5271,0.0,3.3964,3.3285,0.0,3.2408,3.2642,0.0,0.0,0.0,0.0,0.0,0.0,0.0,2.9707,0.0,0.0,0.0,3.035,2.9682,0.0,0.0,0.0,0.0,0.0,0.0,0.0,0.0,0.0,0.0,0.0,0.0,0.0,0.0,0.0,0.0,3.3017,3.3824,3.3165,3.3007,3.3607,3.3607,3.3579,3.3607,3.4247,3.4489,3.4173,3.5308,3.5714,3.5386,3.6282,3.6719,3.6784,3.7229,3.7404,3.747,3.8357,3.8501,3.827,3.9197,3.9644,3.97,4.0137,4.0312,4.0247,3.9888,3.9986,4.028,2.3636,2.381,0.0,0.0,0.0,0.0,0.0,0.0,0.0,0.0,0.0,0.0,0.0,0.0,0.0,0.0,0.0,2.8311,0.0,0.0,0.0,0.0,0.0,0.0,0.0,2.8243,2.8426,2.8979,2.9146,2.9364,2.9601,2.9601,0.0,0.0,3.0978,0.0,3.2209,0.0,3.4284,0.0,0.0,0.0,0.0,3.5081,3.5723,3.63,3.6354,3.5958,3.5338,0.0,3.4059,0.0,0.0,0.0,0.0,0.0,0.0,0.0,0.0,0.0,0.0,0.0,0.0,0.0,0.0,0.0,2.9611,0.0,0.0,0.0,0.0,0.0,0.0,0.0,2.9048,0.0,0.0,0.0,0.0,0.0,0.0,0.0,0.0,0.0,0.0,0.0,0.0,3.2463,3.3424,3.3433,3.3561,3.3868,3.4224,3.4365,3.4339,3.5133,3.5647,3.5907,3.6436,3.6947,3.7412,3.7407,3.7404,3.7448,3.8117,3.8261,3.8182,3.9175,3.9622,3.9666,4.0115,4.0312,4.0247,3.9855,3.9822,3.9876,2.4202,0.0,0.0,0.0,0.0,0.0,0.0,0.0,0.0,0.0,0.0,0.0,2.6789,2.7335,0.0,0.0,2.9401,2.9463,0.0,0.0,2.8929,0.0,0.0,0.0,0.0,0.0,2.883,2.9334,2.9476,2.957,2.9601,2.9601,2.9826,0.0,0.0,3.2075,3.2845,0.0,3.4775,3.4893,3.505,3.5172,3.5317,3.5996,3.6338,3.6464,3.6258,3.5858,3.5345,3.4919,3.4039,0.0,3.3779,0.0,0.0,0.0,0.0,0.0,3.0978,0.0,0.0,0.0,0.0,0.0,0.0,0.0,0.0,0.0,0.0,0.0,0.0,0.0,0.0,0.0,0.0,2.8992,0.0,0.0,0.0,0.0,0.0,0.0,0.0,0.0,0.0,3.2589,3.1731,3.1742,3.3063,3.3204,3.3485,3.401,3.4134,3.4311,3.4507,3.4947,3.5542,3.6273,3.6502,3.7014,3.7758,3.7495,3.7404,3.7426,3.7898,3.8117,3.816,3.9044,3.9459,3.9644,3.9984,4.0203,4.0279,3.9986,3.9789,3.9625,2.495,2.4405,0.0,0.0,0.0,0.0,0.0,0.0,0.0,0.0,0.0,0.0,0.0,0.0,0.0,0.0,0.0,3.1403,3.1403,0.0,3.0122,0.0,0.0,2.9148,0.0,0.0,0.0,2.9129,2.9319,2.9476,2.9601,2.9601,2.9601,0.0,3.0953,3.1853,3.25,3.3914,3.5082,3.6052,3.5976,3.6119,3.6298,0.0,3.6192,3.6623,3.5978,0.0,0.0,3.4285,3.377,0.0,0.0,0.0,0.0,0.0,0.0,0.0,0.0,0.0,0.0,3.0017,0.0,0.0,0.0,0.0,2.9381,0.0,0.0,0.0,0.0,0.0,0.0,0.0,0.0,0.0,0.0,0.0,0.0,0.0,0.0,0.0,0.0,0.0,0.0,3.1206,3.0561,3.0827,3.2354,3.2853,3.3311,3.3792,3.4245,3.4507,3.4507,3.4835,3.5348,3.6034,3.6295,3.6773,3.7404,3.7404,3.7404,3.7426,3.7898,3.8117,3.8139,3.8632,3.9122,3.9622,3.9644,3.9896,4.0312,4.0279,4.0018,3.9658,0.0,0.0,0.0,0.0,0.0,0.0,0.0,2.5812,0.0,0.0,0.0,0.0,0.0,3.0103,3.1089,0.0,0.0,3.2207,3.2496,3.1333,0.0,0.0,0.0,2.9171,0.0,0.0,0.0,0.0,0.0,2.9303,2.9476,2.9476,2.9719,3.0247,0.0,3.2737,0.0,0.0,0.0,0.0,0.0,3.5789,3.5836,0.0,0.0,3.6266,3.5858,3.5568,0.0,3.4709,3.4187,3.3776,3.3647,3.3493,3.329,3.3002,3.3018,0.0,0.0,0.0,3.2446,3.1395,0.0,0.0,0.0,0.0,0.0,0.0,0.0,0.0,0.0,0.0,0.0,0.0,0.0,0.0,0.0,0.0,0.0,0.0,0.0,0.0,0.0,0.0,0.0,3.0237,2.9752,3.0079,0.0,3.1919,3.2555,3.3524,3.3557,3.3989,3.4841,3.4924,3.5368,3.6124,3.6624,3.7023,3.7273,3.7363,3.7404,3.7426,3.7579,3.7645,3.768,3.8457,3.8893,3.9143,3.9809,4.0159,4.0279,3.9986,3.9691,3.933,2.5046,0.0,0.0,0.0,0.0,0.0,0.0,0.0,0.0,0.0,2.8221,0.0,3.0263,0.0,3.1651,0.0,3.2803,3.2705,3.2688,3.1946,0.0,3.1229,3.0074,0.0,0.0,0.0,0.0,0.0,0.0,2.9527,2.9942,2.9942,3.0185,3.0685,3.1718,3.2933,3.4245,3.5171,3.5862,0.0,0.0,3.5751,0.0,0.0,3.5802,0.0,0.0,3.5311,3.5174,3.5014,3.4731,3.4386,3.4396,3.4249,3.4,3.3441,3.3404,3.3425,3.2817,3.297,0.0,0.0,3.1654,0.0,3.0272,0.0,0.0,0.0,0.0,0.0,0.0,0.0,0.0,0.0,0.0,0.0,0.0,2.8134,0.0,0.0,0.0,0.0,0.0,0.0,2.8704,2.9462,2.8925,2.9195,0.0,0.0,3.1879,3.3025,3.3078,3.3638,3.4813,3.4748,3.5102,3.5829,3.6536,3.6935,3.7023,3.7276,3.7404,3.7426,3.7601,3.7636,3.7702,3.8685,3.91,3.9165,3.9973,4.0312,4.0279,4.0018,3.9625,3.9144,0.0,0.0,0.0,0.0,2.541,0.0,0.0,0.0,2.6989,0.0,2.9159,2.9816,3.0392,3.1719,3.2567,3.2595,3.3083,0.0,3.2309,3.2201,0.0,0.0,3.1117,3.0986,3.1668,0.0,0.0,0.0,0.0,3.0096,3.0874,3.0874,3.0874,3.093,3.1526,3.2475,3.367,3.4315,3.5308,3.6353,3.5912,3.5953,3.6198,3.5408,0.0,3.4792,3.4791,3.4797,3.4861,3.5141,3.5265,3.5222,3.4938,3.5266,3.5458,3.3895,3.3795,3.3951,3.2841,3.2749,3.287,3.2527,0.0,0.0,0.0,0.0,2.9722,0.0,0.0,0.0,0.0,0.0,0.0,0.0,0.0,0.0,0.0,0.0,0.0,0.0,0.0,0.0,0.0,2.7935,2.7945,2.8835,2.8092,2.8276,0.0,0.0,0.0,3.2333,3.2813,3.3535,3.4491,3.4307,3.4527,3.5196,3.6009,3.6487,3.6675,3.7186,3.7404,3.7426,3.7907,3.8104,3.8169,3.9185,3.9579,3.9622,4.0115,4.0312,4.0312,4.0247,3.9822,3.9144,2.5778,2.6079,2.6422,0.0,2.596,2.591,0.0,0.0,0.0,0.0,3.1629,3.2694,3.3806,3.4253,3.4655,3.5114,3.4696,0.0,0.0,0.0,0.0,3.3353,3.2355,3.2082,3.2699,3.1458,0.0,3.1113,0.0,0.0,3.045,3.0295,3.0556,3.112,3.1441,3.2516,3.4146,3.447,3.5354,3.6538,3.6542,3.631,0.0,0.0,3.5171,3.4729,3.4786,3.4797,3.4762,3.4497,3.4666,3.4917,3.4506,3.4783,3.5115,3.4245,3.41,3.4049,3.3364,3.3457,3.3622,3.2957,3.2607,3.2378,0.0,0.0,0.0,0.0,0.0,0.0,0.0,0.0,0.0,0.0,0.0,0.0,0.0,0.0,0.0,2.7125,0.0,0.0,2.7042,2.725,2.7454,2.7522,2.7713,0.0,0.0,0.0,0.0,3.1782,3.2493,3.3325,3.4268,3.424,3.4483,3.5067,3.5963,3.6311,3.6202,3.7033,3.7404,3.7404,3.78,3.7934,3.8023,3.8971,3.9368,3.9425,4.0081,4.0312,4.0247,3.967,3.9341,3.9144,2.6229,0.0,0.0,2.7242,0.0,0.0,2.854,0.0,0.0,3.1461,3.2363,0.0,3.4017,3.4677,3.5125,3.5366,3.4955,0.0,0.0,0.0,0.0,3.3566,3.314,3.3105,3.343,3.2443,0.0,3.1965,0.0,0.0,3.0851,3.0771,3.0931,3.1397,3.1748,3.2632,3.3915,3.4787,3.5744,3.6676,3.6663,0.0,0.0,3.6016,3.5614,3.5304,3.5267,3.4931,3.4491,3.4458,3.4753,3.4992,3.4302,3.4692,3.5193,3.38,3.3652,3.3771,3.3133,3.324,3.342,3.3073,3.2992,3.2918,3.2561,3.1897,3.1408,0.0,0.0,0.0,0.0,0.0,0.0,0.0,0.0,0.0,0.0,0.0,0.0,0.0,2.7127,0.0,2.6441,2.7025,2.7316,2.7015,0.0,0.0,0.0,0.0,0.0,3.1099,3.22,3.3201,3.4015,3.4037,3.4279,3.4785,3.5533,3.5931,3.6027,3.677,3.7229,3.7426,3.7979,3.8017,3.7786,3.9077,3.9421,3.9176,3.9983,4.0312,4.0214,3.9658,3.9308,3.9177,2.6724,0.0,0.0,0.0,0.0,0.0,0.0,2.9479,0.0,3.2111,0.0,3.2816,3.3191,3.4298,3.4954,3.4765,0.0,3.4403,3.3704,3.4112,3.4118,3.3468,3.3853,3.4113,3.4113,3.33,0.0,0.0,0.0,0.0,3.1466,3.1503,3.1503,3.1511,3.2106,3.2783,3.362,3.529,3.6311,3.6821,3.6682,3.6915,3.7265,3.644,3.6139,3.6069,3.5845,3.5106,3.4331,3.4736,3.5054,3.5095,3.4192,3.4667,3.5163,3.3113,3.2923,3.3209,3.2567,3.2571,3.281,3.3004,3.3261,3.3322,3.2881,3.2696,3.2456,3.1902,3.1364,0.0,0.0,0.0,0.0,0.0,0.0,0.0,0.0,0.0,0.0,0.0,0.0,0.0,0.0,2.7011,2.7308,0.0,0.0,0.0,0.0,0.0,0.0,0.0,3.1999,0.0,3.3737,0.0,3.406,3.4507,3.4993,3.543,3.5918,3.6435,3.6915,3.7339,3.8147,3.8125,3.7604,3.9192,3.9396,3.8893,3.9908,4.0268,4.0159,3.9899,3.956,3.9243,0.0,0.0,0.0,0.0,0.0,3.0531,3.1903,3.2297,3.2881,3.415,3.5102,3.5729,3.5975,3.608,3.6113,3.6073,3.5916,0.0,0.0,0.0,0.0,3.5248,3.5177,3.513,3.513,3.4366,3.3608,0.0,0.0,0.0,3.0849,3.1037,3.1018,3.0894,3.1765,3.3079,3.4778,3.5913,0.0,3.6996,3.7241,3.7246,3.7088,3.6499,3.6245,3.6193,3.5641,3.5336,3.5139,3.4841,3.4625,3.4429,3.408,3.3837,3.361,3.338,3.297,3.2542,3.2447,3.2702,3.2982,3.281,3.3215,3.3674,3.3809,3.3313,3.2931,3.3169,3.2378,3.157,3.1314,0.0,0.0,0.0,0.0,0.0,0.0,0.0,0.0,0.0,0.0,0.0,0.0,0.0,0.0,0.0,0.0,0.0,0.0,0.0,0.0,0.0,0.0,0.0,0.0,0.0,0.0,3.4507,3.4993,3.5255,3.5364,3.6282,3.6741,3.688,3.767,3.7937,3.7862,3.8556,3.8834,3.8893,3.9908,4.0071,3.9765,4.0061,3.9953,3.9527,0.0,0.0,0.0,0.0,0.0,0.0,0.0,3.4753,0.0,3.4703,3.5098,3.5399,3.5399,3.6148,3.6488,3.6066,3.6211,3.6184,3.5764,3.5636,3.5487,3.5386,3.5311,0.0,3.5249,3.4778,3.3972,3.283,0.0,0.0,0.0,3.0634,3.0827,3.1183,3.2646,3.4,0.0,0.0,0.0,3.6812,3.6993,3.7085,3.7059,3.6662,3.6583,3.665,3.6093,3.5925,3.5778,3.4994,3.4628,3.4433,3.3616,3.3491,3.3484,3.2761,3.2374,3.2157,3.2069,3.2266,3.2528,3.2528,3.2874,3.3279,3.3641,3.3232,3.2829,3.3094,3.2417,3.1632,3.1037,2.9591,0.0,0.0,0.0,0.0,0.0,0.0,0.0,0.0,0.0,0.0,0.0,0.0,0.0,0.0,0.0,0.0,0.0,0.0,0.0,0.0,0.0,0.0,0.0,0.0,0.0,3.498,3.5201,3.5493,3.5835,3.6318,3.6736,3.7098,3.7648,3.7818,3.7659,3.8165,3.8525,3.8872,3.9656,3.9787,3.9666,4.0137,4.0182,3.992,0.0,2.9536,0.0,0.0,3.2728,0.0,3.4891,3.6381,3.6891,3.5401,3.5173,3.5096,3.4999,3.6197,3.677,3.6144,3.6462,3.646,3.5836,3.5721,3.5645,3.5479,3.5438,3.5343,3.521,3.4961,3.4134,0.0,0.0,0.0,0.0,0.0,0.0,0.0,0.0,0.0,0.0,0.0,3.6564,3.6627,3.6671,3.6805,3.6922,3.6664,3.6687,3.6805,3.6381,3.6192,3.602,3.5169,3.4743,3.435,3.3243,3.3189,3.3278,3.2113,3.1849,3.1915,3.1805,3.1915,3.2159,3.2356,3.2593,3.2896,3.3261,3.2916,3.252,3.2544,3.2072,3.1408,3.0591,2.9511,0.0,0.0,0.0,0.0,0.0,0.0,0.0,0.0,0.0,0.0,0.0,0.0,0.0,0.0,0.0,0.0,0.0,0.0,0.0,0.0,0.0,0.0,3.3896,0.0,3.4935,0.0,3.5535,3.5843,3.6349,3.6571,3.6935,3.7393,3.7744,3.7728,3.7448,3.7898,3.8335,3.8697,3.935,3.9622,3.9666,4.0137,4.0312,4.0182,0.0,0.0,0.0,0.0,0.0,0.0,0.0,3.6527,3.7298,3.7468,3.7322,3.728,3.7441,3.7464,3.7419,3.7344,3.7229,3.7101,3.7026,3.6786,3.6657,3.6636,3.6464,3.6118,3.5569,3.5118,3.4228,0.0,0.0,0.0,0.0,0.0,0.0,0.0,0.0,0.0,0.0,3.6279,3.6453,3.668,3.6684,3.6617,3.6428,3.6169,3.6074,3.6051,3.5788,3.5524,3.5331,3.5474,3.4693,3.3656,3.3352,3.2631,3.1926,3.1962,3.1849,3.1761,3.1915,3.2181,3.2378,3.24,3.2723,3.3068,3.3111,3.2659,3.221,3.2081,3.1539,3.0768,2.9794,3.0204,3.0089,0.0,0.0,0.0,0.0,0.0,0.0,0.0,0.0,0.0,0.0,0.0,0.0,0.0,0.0,0.0,0.0,0.0,0.0,3.1275,0.0,3.3011,3.3894,3.4668,0.0,3.5395,3.5899,3.6168,3.6252,3.7097,3.7391,3.7237,3.7709,3.7728,3.7448,3.7898,3.8139,3.827,3.9219,3.9622,3.9666,4.0137,4.0312,4.0182,0.0,0.0,0.0,0.0,0.0,0.0,0.0,3.7551,3.8109,3.8258,3.7812,3.7528,3.7606,3.7875,3.787,3.7342,3.7574,3.7456,3.6827,3.6693,3.6471,3.6214,3.6127,3.5891,3.5504,3.4968,3.4208,0.0,0.0,0.0,0.0,0.0,0.0,0.0,0.0,3.5376,3.6311,3.646,3.6599,3.6662,3.6381,3.631,3.6358,3.6098,3.6098,3.6193,3.5764,3.574,3.5835,3.5283,3.4558,3.3833,3.3752,3.3006,3.2223,3.2422,3.2204,3.1966,3.2348,3.2533,3.2571,3.2571,3.2831,3.309,3.309,3.2616,3.2168,3.2041,3.1474,3.088,3.0464,3.0165,2.9753,0.0,0.0,0.0,0.0,0.0,0.0,0.0,0.0,0.0,0.0,0.0,0.0,0.0,0.0,0.0,0.0,0.0,0.0,3.1575,0.0,3.3979,3.4693,3.5122,3.553,3.595,3.6445,3.6748,3.6866,3.7595,3.7805,3.765,3.8029,3.7908,3.7448,3.8135,3.8271,3.8204,3.9197,3.9622,3.9634,3.9877,4.0084,4.0182,3.3072,0.0,3.4789,0.0,3.6532,3.7219,3.7892,3.8268,3.8512,3.858,3.8148,3.7833,3.7833,3.8184,3.8221,3.7665,3.7948,3.7781,3.6981,3.6845,3.6601,3.6203,3.618,0.0,3.5676,3.5222,3.4583,3.3785,3.3186,0.0,0.0,0.0,0.0,0.0,3.4813,3.5671,3.6338,3.644,3.6546,3.6593,3.6264,3.6241,3.6358,3.6003,3.6003,3.6097,3.5572,3.5596,3.5835,3.5138,3.4511,3.4005,3.4018,3.3366,3.2626,3.276,3.2485,3.2211,3.2576,3.2693,3.2702,3.2702,3.2896,3.309,3.309,3.2616,3.2097,3.1756,3.1209,3.0804,3.0804,3.0173,2.965,0.0,0.0,0.0,0.0,0.0,0.0,0.0,2.8794,2.8709,2.9081,0.0,0.0,0.0,0.0,0.0,0.0,0.0,0.0,0.0,0.0,0.0,0.0,0.0,3.6002,3.6507,3.7012,3.7376,3.7702,3.8115,3.8258,3.8178,3.835,3.8208,3.7948,3.826,3.8442,3.8534,3.9141,3.9459,3.9602,3.9682,3.9953,4.0149,3.5413,3.6144,3.6814,3.7949,3.8187,3.8255,3.8557,3.8372,3.8304,3.8557,3.8575,3.8575,3.8575,3.8575,3.8575,3.8575,3.8349,3.8096,3.789,3.7641,3.7364,0.0,0.0,3.6826,3.6285,3.6009,3.5479,3.4678,0.0,0.0,3.3068,0.0,0.0,3.3496,3.3717,3.4778,3.6381,3.6122,3.6169,3.6405,3.6405,3.6405,3.6334,3.5812,3.562,3.5548,3.4993,3.4799,3.4848,3.509,3.4679,3.3982,3.4006,3.3448,3.2805,3.2805,3.2619,3.24,3.24,3.255,3.2702,3.2702,3.2896,3.309,3.309,3.2616,3.1976,3.1093,3.0643,3.0406,3.0406,3.0381,3.0182,2.9607,0.0,0.0,0.0,0.0,0.0,0.0,2.8692,2.8907,2.8888,0.0,0.0,0.0,0.0,0.0,0.0,0.0,0.0,3.2078,3.3588,0.0,3.4787,3.5786,3.653,3.7007,3.754,3.8068,3.8596,3.8732,3.8789,3.8782,3.8507,3.8679,3.9,3.8228,3.8484,3.937,3.8963,3.9143,3.9602,3.9682,3.9953,4.0149,3.5939,3.6254,3.6644,3.7557,3.7736,3.7958,3.8556,3.8297,3.8169,3.8605,3.8339,3.8129,3.8129,3.8398,3.8534,0.0,3.8122,3.7893,0.0,3.739,3.7108,3.6851,3.6826,3.6611,3.6108,3.5662,3.5107,3.4492,0.0,0.0,0.0,3.3787,3.403,3.4669,3.4928,3.5435,3.6122,3.6241,3.631,3.6381,3.6217,3.6122,3.6098,3.574,3.5596,3.5548,3.5211,3.5211,3.5283,3.5017,3.4897,3.48,3.4607,3.3737,3.2901,3.3448,3.3133,3.2667,3.3039,3.304,3.2961,3.2961,3.3025,3.309,3.309,3.2747,3.2327,3.2056,3.142,3.0951,3.0951,3.0644,3.0298,2.9948,0.0,0.0,0.0,0.0,0.0,0.0,0.0,2.991,0.0,3.0181,0.0,0.0,0.0,0.0,0.0,0.0,0.0,0.0,3.4763,0.0,3.5871,3.6719,3.7091,3.7007,3.7907,3.8596,3.9078,3.9098,3.9019,3.8812,3.8953,3.8866,3.8627,3.8693,3.8956,3.9329,3.9345,3.9656,4.0061,3.979,3.9953,4.0182,3.6968,3.7166,3.7386,3.7887,3.7987,3.8138,3.8666,3.8456,3.8352,3.869,3.8456,3.8249,3.8249,3.8504,0.0,3.7992,3.7733,3.7479,3.7201,3.7038,3.6805,3.6452,3.663,3.6465,3.586,0.0,0.0,3.4558,3.4219,3.4123,3.4267,3.4267,3.4484,3.4895,3.5063,3.5471,3.5979,3.5954,3.6049,3.6241,3.5955,3.5836,3.5812,3.5548,3.5452,3.5428,3.5163,3.5138,3.5235,3.4896,3.4896,3.5017,3.4848,3.4172,3.3509,3.3987,3.3599,3.3074,3.3422,3.3321,3.309,3.309,3.309,3.309,3.309,3.2726,3.2407,3.2407,3.1797,3.1244,3.1184,3.0708,3.0308,3.0153,0.0,0.0,0.0,0.0,0.0,0.0,0.0,0.0,0.0,3.0353,0.0,0.0,0.0,0.0,0.0,0.0,0.0,3.3958,3.5295,0.0,3.6391,3.6917,3.722,3.7305,3.8367,3.901,3.9308,3.9308,3.919,3.899,3.9197,3.9126,3.8852,3.8821,3.8914,3.9033,3.9078,3.9375,3.9713,3.9595,3.9855,4.0182,3.8258,3.8581,0.0,0.0,3.8777,0.0,3.8852,3.8827,3.8802,3.8852,3.8827,3.8801,3.8801,3.8777,3.8463,3.7619,0.0,0.0,0.0,3.674,3.6529,3.6054,3.6501,0.0,3.5622,3.5844,3.5598,3.4798,3.4333,3.4073,3.4006,3.4054,3.4173,3.441,3.4434,3.5011,3.5908,3.5428,3.5524,3.5931,3.5668,3.5572,3.5548,3.5259,3.5163,3.5163,3.4896,3.4799,3.4799,3.4823,3.4823,3.4799,3.4823,3.4631,3.4434,3.4433,3.3977,3.3496,3.3518,3.3321,3.309,3.309,3.309,3.309,3.309,3.2667,3.2244,3.2244,3.1838,3.14,3.1215,3.0726,3.0353,3.0238,2.9821,2.9601,2.9816,0.0,0.0,0.0,0.0,0.0,0.0,2.9825,3.0469,0.0,0.0,0.0,0.0,0.0,3.3252,3.415,3.5415,3.6208,3.6464,3.6664,3.7132,3.789,3.8826,3.9308,3.9308,3.9308,3.9308,3.9308,3.9308,3.9405,3.9462,3.871,3.8491,3.8561,3.8391,3.8491,3.8833,3.9119,3.9691,4.0116,0.0,0.0,3.8237,3.8459,3.8508,3.8708,3.9314,3.9057,3.8955,3.9364,3.9057,3.8801,3.8801,3.863,3.8405,3.8199,3.793,3.7583,3.7108,3.7095,3.685,3.6333,3.6431,3.6211,3.5597,3.5644,3.5396,3.4803,3.4326,3.409,3.4071,3.4437,3.4534,3.4413,3.4848,3.5162,3.5404,3.5476,3.5572,3.5668,3.5404,3.5308,3.5284,3.4993,3.4896,3.4872,3.4823,3.4799,3.4823,3.5042,3.4969,3.4823,3.5042,3.4921,3.4703,3.472,3.4114,3.3543,3.3765,3.3452,3.309,3.309,3.309,3.309,3.309,3.2989,3.2889,3.2889,3.2416,3.1993,3.193,3.148,3.0999,3.0558,3.0613,3.0557,3.0154,0.0,0.0,0.0,3.0758,3.0881,3.0339,3.1255,3.1666,0.0,0.0,0.0,0.0,0.0,3.4318,3.5809,3.6552,3.7042,3.7299,3.7527,3.7887,3.8441,3.901,3.9308,3.9308,3.9308,3.9308,3.9308,3.9308,3.9177,3.8963,3.8575,3.8491,3.8561,3.8391,3.8581,3.9001,3.9443,3.9691,3.9822,3.8768,3.8667,3.8642,3.8793,3.8793,3.8894,3.9195,3.9121,3.9146,3.9424,3.9095,3.8869,3.902,3.8919,3.8642,3.8241,3.8091,3.7815,3.7393,3.737,3.7095,3.6427,3.6646,3.6419,3.5623,3.5734,3.5557,3.5168,3.4425,3.4242,3.4615,3.4526,3.4433,3.4409,3.4823,3.509,3.5211,3.5211,3.5308,3.5404,3.5138,3.5017,3.4993,3.4848,3.4799,3.4799,3.4799,3.4872,3.4969,3.4993,3.4993,3.4945,3.4703,3.48,3.4896,3.4521,3.4091,3.3781,3.4028,3.3583,3.309,3.309,3.309,3.309,3.309,3.309,3.3068,3.2939,3.2646,3.2358,3.2144,3.1656,3.1207,3.0918,3.0635,3.0421,3.0433,3.0376,0.0,3.0663,3.1399,3.1669,3.1129,3.2196,3.2647,3.1979,0.0,0.0,3.3958,3.4895,3.5661,3.6208,3.6759,3.7128,3.7358,3.7813,3.8162,3.843,3.9022,3.9308,3.9308,3.9308,3.9219,3.9078,3.9249,3.8953,3.8388,3.8424,3.8326,3.8142,3.8177,3.852,3.9024,3.9334,3.956,3.9691,3.9645,3.949,3.9362,3.9362,3.931,3.9206,3.8919,3.9076,3.9206,3.9206,3.8971,3.8919,3.918,3.9206,3.8929,3.8202,3.8064,3.7942,3.7617,3.7591,3.7263,3.648,3.686,3.6625,3.5679,3.5838,3.5815,3.5556,3.4655,3.4456,3.4993,3.4588,3.4378,3.436,3.4749,3.4993,3.5114,3.4896,3.492,3.5114,3.4896,3.4799,3.4799,3.4799,3.4799,3.4799,3.4799,3.4945,3.5114,3.4969,3.5017,3.5041,3.4365,3.4654,3.504,3.4271,3.4044,3.4065,3.4193,3.3692,3.309,3.309,3.309,3.309,3.309,3.309,3.3025,3.2766,3.2702,3.2596,3.2257,3.1728,3.1339,3.1269,3.0518,3.0142,3.058,0.0,3.0363,3.0901,3.1782,3.2174,3.1807,3.2828,3.3394,3.3126,3.4125,0.0,0.0,3.6357,3.6803,3.6137,3.6692,3.7088,3.7291,3.7952,3.8268,3.8333,3.8995,3.9279,3.9249,3.9279,3.9101,3.8752,3.9078,3.8761,3.8033,3.8318,3.8191,3.7807,3.7953,3.8399,3.9024,3.9138,3.9374,3.9593,3.9362,3.9491,3.9645,3.9645,3.9439,3.9284,3.9232,3.9024,3.8867,3.8867,3.8841,3.8815,3.8867,3.8867,3.8842,3.8692,3.8488,3.8139,3.7624,3.7595,3.7328,3.6768,3.658,3.6318,3.5855,3.566,3.5554,3.5511,3.5184,3.4724,3.4208,3.5219,3.5138,3.4186,3.5082,3.5256,3.4848,3.4823,3.4823,3.4848,3.4823,3.4799,3.4799,3.4799,3.4799,3.4799,3.4799,3.4823,3.492,3.5356,3.5211,3.4872,3.4981,3.5107,3.5088,3.4431,3.4247,3.4193,3.4015,3.3549,3.309,3.309,3.309,3.309,3.309,3.309,3.3025,3.2766,3.2702,3.276,3.2968,3.2577,3.204,3.1553,3.1552,3.1347,0.0,0.0,3.1614,3.2169,3.2387,3.2605,3.2967,3.3024,3.3409,3.439,3.4461,3.5052,3.6435,3.6512,3.6555,3.659,3.7405,3.7931,3.8183,3.8468,3.8704,3.8896,3.9156,3.9137,3.8901,3.919,3.8983,3.85,3.8752,3.8732,3.8467,3.8258,3.8357,3.8552,3.8155,3.8399,3.9024,3.9138,3.921,3.9276,3.9024,3.8998,3.8998,3.8998,3.8893,3.8788,3.8631,3.8605,3.8579,3.8579,3.8473,3.8421,3.8579,3.8579,3.8473,3.8181,3.8183,3.793,3.7374,3.7506,3.7343,3.6787,3.6631,3.6417,3.6121,3.5991,3.6014,3.6148,3.5614,3.5349,3.53,3.531,3.5112,3.4712,3.5011,3.5039,3.4799,3.4799,3.4799,3.4799,3.4799,3.4799,3.4799,3.4799,3.4799,3.4799,3.4799,3.4896,3.5017,3.5114,3.509,3.4945,3.465,3.4845,3.504,3.4154,3.4004,3.3992,3.3574,3.3517,3.352,3.352,3.3746,3.3897,3.3617,3.352,3.3333,3.2689,3.2528,3.2591,3.28,3.2635,3.2443,3.2467,3.2111,0.0,0.0,3.1677,3.1807,3.2621,3.2955,3.3337,3.3839,3.4174,3.4652,3.5393,3.5601,3.5947,3.6551,3.6703,3.6751,3.6688,3.751,3.8068,3.8408,3.8858,3.915,3.927,3.9114,3.896,3.8812,3.8805,3.8567,3.8171,3.8717,3.8631,3.8068,3.8434,3.8506,3.8349,3.8187,3.8519,3.9075,3.896,3.9045,3.9177,3.893,3.88,3.8646,3.8524,3.8447,3.8342,3.8106,3.8212,3.8315,3.8315,3.8077,3.7998,3.8183,3.8157,3.7945,3.7515,3.7625,3.7495,3.7036,3.717,3.7116,3.6739,3.6634,3.6522,3.6305,3.6305,3.6413,3.663,3.5995,3.5802,3.6019,3.5369,3.5102,3.5094,3.5106,3.5038,3.4991,3.4991,3.4919,3.4799,3.4799,3.4871,3.4967,3.4847,3.4871,3.4967,3.4847,3.492,3.509,3.4945,3.4969,3.5017,3.4365,3.4654,3.4992,3.3993,3.3794,3.3865,3.3549,3.3771,3.4098,3.4098,3.4377,3.458,3.4084,3.3984,3.3751,3.2843,3.268,3.2719,3.2824,3.2755,3.2827,3.3212,0.0,0.0,0.0,3.224,3.2008,3.2889,3.3458,3.398,3.4527,3.5223,3.5774,3.6145,3.6495,3.6646,3.6476,3.6825,3.692,3.6765,3.7493,3.815,3.8737,3.9269,3.9518,3.9572,3.9189,3.8871,3.8604,3.8537,3.8238,3.781,3.8497,3.8411,3.7828,3.8444,3.8551,3.8285,3.8312,3.8735,3.9276,3.8946,3.8979,3.9144,3.9274,3.9338,3.9351,3.886,3.8579,3.837,3.8368,3.8183,3.8027,3.8027,3.7785,3.7649,3.7649,3.7385,3.7197,3.7143,3.6928,3.6793,3.6739,3.6522,3.6495,3.6712,3.6468,3.6332,3.6305,3.6305,3.6332,3.6332,3.6259,3.5776,3.4906,3.5587,3.5523,3.4841,3.5568,3.575,3.5544,3.5544,3.5256,3.4799,3.4799,3.5087,3.5472,3.4991,3.5111,3.5472,3.4967,3.4799,3.4848,3.509,3.5017,3.48,3.4769,3.494,3.504,3.4202,3.3973,3.4061,3.449,3.4603,3.4653,3.4653,3.4678,3.461,3.4334,3.4266,3.4127,3.3601,3.3509,3.3586,3.3837,3.3525,3.3236,3.3284,0.0,0.0,3.2266,3.2507,3.2912,3.3242,3.3687,3.428,3.5074,3.5419,3.5937,3.669,3.6551,3.6496,3.6673,3.6715,3.6812,3.6966,3.7593,3.8504,3.9783,3.9826,3.9826,3.9767,3.9749,3.9101,3.7998,3.8514,3.8276,3.7465,3.7832,3.8095,3.8237,3.7975,3.8369,3.9068,3.876,3.9078,3.9625,3.9297,3.9177,3.9144,3.9187,3.9117,3.9137,3.9282,3.8935,3.868,3.8803,3.8506,3.8156,3.7966,3.7547,3.7277,3.7277,3.7197,3.7012,3.6874,3.6766,3.663,3.6468,3.6359,3.6359,3.6468,3.6359,3.6305,3.6305,3.6305,3.6305,3.6305,3.5983,3.5692,3.5558,3.5521,3.5427,3.5312,3.5624,3.559,3.5367,3.5702,3.5634,3.5328,3.564,3.5904,3.6074,3.5856,3.5712,3.5568,3.5376,3.5087,3.4823,3.492,3.4872,3.4799,3.48,3.4872,3.4921,3.4797,3.4746,3.4817,3.5171,3.5017,3.4791,3.4977,3.5133,3.5142,3.4703,3.4606,3.4414,3.3749,3.3607,3.3685,3.3933,3.3862,3.3934,3.4631,0.0,3.3815,3.3982,3.3789,3.3688,3.3958,3.4421,3.4986,3.5629,3.5942,3.6271,3.6707,3.6647,3.6556,3.6445,3.6932,3.7298,3.7494,3.8409,3.9127,3.9642,3.9771,3.9826,3.9785,3.9374,3.8745,3.7931,3.843,3.8204,3.7448,3.8152,3.827,3.8007,3.8178,3.8375,3.8603,3.8648,3.8979,3.9363,3.9012,3.9012,3.9111,3.9235,3.9094,3.9066,3.928,3.8994,3.882,3.8931,3.8552,3.8166,3.7923,3.7367,3.6958,3.6958,3.6901,3.6812,3.6808,3.678,3.6726,3.6534,3.6396,3.625,3.6141,3.625,3.625,3.6141,3.625,3.6213,3.6075,3.568,3.5557,3.563,3.5257,3.532,3.5723,3.5744,3.5714,3.5741,3.6098,3.6108,3.5881,3.6266,3.6507,3.6627,3.6459,3.617,3.5808,3.5664,3.5256,3.4799,3.4799,3.4799,3.4799,3.4799,3.4799,3.4848,3.5114,3.5138,3.5163,3.55,3.5207,3.4866,3.5245,3.5469,3.5474,3.5035,3.4913,3.4744,3.412,3.3976,3.4027,3.4222,3.439,3.4703,3.5256,3.4798,3.4532,3.5023,3.4535,3.4237,3.4495,3.5002,3.5468,3.5945,3.6294,3.6554,3.6688,3.6712,3.6646,3.6534,3.7377,3.7971,3.817,3.9275,3.9815,3.9729,3.9849,3.9837,3.9638,3.9167,3.8664,3.8122,3.8454,3.8314,3.7876,3.8407,3.842,3.805,3.838,3.8381,3.8258,3.8681,3.9012,3.9144,3.8814,3.8913,3.9078,3.9588,3.9494,3.9329,3.8784,3.869,3.869,3.8714,3.8244,3.7919,3.7895,3.7204,3.6712,3.6712,3.6468,3.6484,3.6961,3.7007,3.7007,3.7007,3.6553,3.6141,3.5813,3.6114,3.6141,3.5813,3.6141,3.6052,3.5493,3.5493,3.5241,3.4808,3.4808,3.5241,3.5995,3.6018,3.6285,3.6785,3.6809,3.6631,3.6411,3.6411,3.6723,3.7156,3.6627,3.6411,3.6338,3.5784,3.5256,3.4799,3.4799,3.4799,3.4799,3.4799,3.4799,3.4848,3.5114,3.4993,3.492,3.5452,3.5211,3.492,3.5476,3.5596,3.5524,3.5259,3.5211,3.5114,3.4848,3.4799,3.4823,3.4823,3.5232,3.5424,3.4895,3.5033,3.5118,3.4841,3.4563,3.4518,3.4765,3.5221,3.5649,3.5968,3.641,3.6712,3.6712,3.6712,3.6808,3.6984,3.8106,3.8817,3.8989,4.0103,4.0537,4.0194,4.0194,3.9873,3.9308,3.9308,3.9047,3.8578,3.8631,3.868,3.8775,3.846,3.8369,3.8508,3.8508,3.8381,3.8291,3.8934,3.9177,3.9144,3.8847,3.8913,3.9078,3.9739,3.9556,3.9512,3.97,3.9442,3.9239,3.9435,3.9039,3.8464,3.7919,3.7294,3.6916,3.6916,3.6833,3.7012,3.7517,3.7214,3.6847,3.653,3.6373,3.6141,3.5813,3.6114,3.625,3.6141,3.625,3.6213,3.6075,3.568,3.5424,3.5313,3.5313,3.5408,3.5676,3.6022,3.632,3.6546,3.6873,3.6972,3.6988,3.7348,3.7639,3.7733,3.7565,3.706,3.6386,3.6218,3.5568,3.4799,3.4799,3.4799,3.4799,3.4799,3.4799,3.4823,3.4896,3.4848,3.4799,3.475,3.4628,3.4653,3.5211,3.5042,3.4775,3.4896,3.4775,3.4677,3.4775,3.5087,3.5352,3.5352,3.5784,3.6242,3.6459,3.6238,3.6011,3.5926,3.5843,3.5681,3.5343,3.5749,3.6102,3.6183,3.6348,3.644,3.644,3.6709,3.7118,3.754,3.8642,3.9101,3.8747,3.9785,4.01,3.9573,3.9808,3.9603,3.896,3.9347,3.9084,3.8293,3.9192,3.9296,3.8828,3.9092,3.9054,3.883,3.8605,3.8523,3.8582,3.9012,3.9177,3.9177,3.9078,3.9111,3.9078,3.9596,3.9348,3.9297,3.9767,3.9558,3.9407,3.9556,3.9186,3.8539,3.7748,3.7272,3.6883,3.6566,3.6516,3.6749,3.7279,3.6939,3.6647,3.6599,3.6283,3.6059,3.6004,3.6196,3.625,3.6114,3.625,3.619,3.5979,3.5657,3.5493,3.5493,3.5493,3.5611,3.5818,3.6167,3.6387,3.6537,3.6814,3.7089,3.7383,3.7719,3.7918,3.7976,3.7757,3.7156,3.6386,3.617,3.552,3.4799,3.4799,3.4799,3.4775,3.4677,3.4702,3.4799,3.4799,3.4726,3.4604,3.4433,3.4477,3.4596,3.4725,3.458,3.4481,3.4867,3.4915,3.4986,3.5351,3.5613,3.5804,3.5904,3.6261,3.6643,3.6842,3.6718,3.6534,3.6396,3.6312,3.6144,3.5849,3.6121,3.6305,3.6305,3.6413,3.6537,3.6768,3.7114,3.7563,3.8068,3.8878,3.9243,3.9076,3.982,3.9902,3.9308,3.9811,3.9755,3.9107,3.9175,3.9084,3.8872,3.9528,3.9684,3.9395,3.9583,3.952,3.9261,3.8914,3.8823,3.8913,3.9111,3.9276,3.9363,3.9111,3.9078,3.9078,3.9249,3.9049,3.893,3.9219,3.9279,3.9279,3.9279,3.8866,3.8274,3.752,3.716,3.6657,3.5949,3.5853,3.6057,3.6583,3.6382,3.6393,3.6827,3.6172,3.5895,3.6223,3.625,3.6114,3.5813,3.6141,3.6075,3.5562,3.5562,3.5562,3.5562,3.5562,3.5841,3.6305,3.6305,3.6468,3.6712,3.6712,3.7036,3.7569,3.7569,3.7705,3.7899,3.737,3.6842,3.6338,3.5784,3.5256,3.4799,3.4799,3.4775,3.4726,3.4506,3.458,3.475,3.4822,3.4627,3.4383,3.4454,3.4611,3.4672,3.4272,3.4353,3.4645,3.5098,3.5417,3.5759,3.6289,3.6205,3.6151,3.6432,3.6707,3.6794,3.655,3.6707,3.678,3.6461,3.6223,3.612,3.6263,3.6305,3.6305,3.6305,3.6545,3.6963,3.7497,3.7755,3.8091,3.8619,3.888,3.9262,3.972,3.9984,3.9843,3.9308,4.0052,4.0126,3.9553,3.9065,3.9237,3.9983,3.9804,3.9907,4.0279,3.992,3.9757,3.9724,3.9363,3.921,3.9243,3.9177,3.9374,3.9625,3.8946,3.8913,3.9078,3.9279,3.9249,3.9108,3.893,3.9108,3.9197,3.896,3.8521,3.8078,3.7776,3.6935,3.6398,3.6425,3.643,3.655,3.6798,3.6449,3.6067,3.5768,3.5578,3.5533,3.5588,3.5808,3.5868,3.5808,3.6141,3.6236,3.6144,3.6144,3.6144,3.6144,3.6144,3.619,3.6305,3.6305,3.6468,3.6712,3.6712,3.6901,3.7224,3.7224,3.7385,3.7631,3.708,3.6685,3.6338,3.5784,3.5256,3.4799,3.4799,3.4653,3.4506,3.4677,3.4506,3.4356,3.4932,3.4667,3.4301,3.4873,3.4771,3.4506,3.4627,3.4981,3.5321,3.5239,3.5577,3.6013,3.6336,3.6516,3.6699,3.6984,3.7233,3.7432,3.7342,3.7411,3.7246,3.671,3.6576,3.6514,3.6309,3.6305,3.6305,3.6305,3.6677,3.7248,3.798,3.8286,3.8619,3.9124,3.9206,3.9281,3.9397,3.9455,3.9426,3.9308,3.9634,3.9613,3.9219,4.013,4.0374,4.0091,4.0381,4.0462,4.0312,4.0214,4.0182,4.0116,3.9473,3.9363,3.956,3.9012,3.9177,3.9625,3.8946,3.8913,3.9078,3.8864,3.8745,3.8686,3.8782,3.893,3.9049,3.9049,3.8491,3.7933,3.744,3.668,3.6129,3.5854,3.5832,3.5955,3.6305,3.5963,3.5892,3.6286,3.5837,3.5675,3.5954,3.5728,3.5616,3.5616,3.5895,3.6141,3.6305,3.6305,3.6305,3.6305,3.6305,3.6305,3.6305,3.6305,3.6386,3.6522,3.6332,3.6522,3.6901,3.6793,3.6982,3.7311,3.6814,3.6374,3.5957,3.5408,3.4959,3.4627,3.4768,3.4622,3.4432,3.4545,3.4375,3.4184,3.4567,3.43,3.4053,3.4646,3.4704,3.4647,3.4924,3.5655,3.6206,3.5866,3.6169,3.6689,3.7082,3.7056,3.7035,3.7326,3.7272,3.7251,3.7542,3.7489,3.7251,3.6955,3.6793,3.658,3.6332,3.6305,3.6506,3.701,3.741,3.7947,3.8741,3.9047,3.9202,3.9285,3.9137,3.9108,3.9308,3.9137,3.9163,3.9437,3.9939,4.0121,4.0062,4.0424,4.0552,4.0455,4.0505,4.0474,4.0312,4.0312,4.0312,4.0247,3.9691,3.956,3.9658,3.9144,3.9144,3.9428,3.9078,3.8946,3.8922,3.847,3.8208,3.8118,3.8574,3.8693,3.8812,3.9042,3.8335,3.7582,3.6981,3.6307,3.5675,3.5052,3.5018,3.5189,3.5672,3.5499,3.5789,3.6888,3.6108,3.5813,3.6224,3.5675,3.534,3.534,3.5588,3.5868,3.6223,3.6223,3.6223,3.6223,3.6223,3.6223,3.6223,3.6277,3.6277,3.6196,3.5922,3.6059,3.6468,3.6305,3.6522,3.6911,3.6473,3.6036,3.5547,3.5004,3.4659,3.45,3.4775,3.4659,3.4425,3.4565,3.4353,3.4129,3.4341,3.4167,3.4013,3.4567,3.4829,3.4998,3.5306,3.622,3.6918,3.6546,3.6877,3.739,3.7849,3.7441,3.7143,3.7542,3.7116,3.6874,3.7355,3.7197,3.7036,3.6982,3.6793,3.6549,3.6332,3.6305,3.6707,3.7794,3.8139,3.8619,3.9447,3.9698,3.9655,3.9308,3.893,3.8901,3.9279,3.9021,3.9122,3.9674,4.051,4.1013,4.1174,4.057,4.0497,4.0874,4.0517,4.0344,4.0312,4.0312,4.0312,4.0279,3.9789,3.9658,3.9658,3.9276,3.9177,3.9276,3.921,3.9009,3.8716,3.8752,3.8537,3.8261,3.8058,3.8268,3.838,3.8118,3.7251,3.6709,3.6873,3.5644,3.4796,3.4974,3.5109,3.5316,3.5666,3.5828,3.5801,3.5514,3.5347,3.5122,3.4812,3.4969,3.5035,3.5035,3.5312,3.5588,3.589,3.589,3.589,3.589,3.589,3.589,3.5868,3.6168,3.6141,3.584,3.5813,3.5703,3.5588,3.5785,3.6086,3.6371,3.6077,3.5803,3.5547,3.5004,3.4794,3.4797,3.5069,3.4819,3.4515,3.5228,3.4788,3.4226,3.5312,3.5184,3.4837,3.5784,3.573,3.552,3.6037,3.646,3.6742,3.6673,3.713,3.7554,3.7625,3.717,3.6928,3.7489,3.7116,3.6739,3.682,3.6793,3.6685,3.644,3.6386,3.6359,3.6305,3.6305,3.6707,3.7794,3.8139,3.8619,3.9447,3.9698,3.9655,3.9308,3.8745,3.8716,3.9279,3.9153,3.9371,4.0036,4.0984,4.1512,4.1519,4.1257,4.1184,4.1219,4.0874,4.0582,4.0312,4.0312,4.0312,4.0247,3.956,3.9461,3.9625,3.9012,3.9111,3.9593,3.933,3.9,3.8805,3.8096,3.7916,3.7848,3.7878,3.7998,3.8118,3.8171,3.7429,3.6904,3.7043,3.6046,3.5269,3.5147,3.5166,3.5487,3.6201,3.6114,3.6092,3.6311,3.5632,3.5181,3.5181,3.4722,3.4562,3.473,3.4841,3.498,3.5069,3.5423,3.5588,3.5588,3.5588,3.5588,3.5588,3.573,3.5726,3.5588,3.5423,3.5368,3.5395,3.5368,3.5643,3.6009,3.5889,3.5557,3.5085,3.4598,3.4581,3.4863,3.5296,3.516,3.492,3.5405,3.5037,3.4558,3.5123,3.5073,3.4946,3.5657,3.568,3.5661,3.6356,3.663,3.6712,3.6712,3.6901,3.7143,3.7277,3.6982,3.6793,3.7036,3.6766,3.6549,3.6685,3.6553,3.6495,3.6522,3.6386,3.6305,3.6305,3.653,3.7118,3.824,3.8723,3.9319,4.0124,4.0071,3.9896,3.9596,3.8827,3.8792,3.9721,3.9326,3.968,4.0923,4.1383,4.1656,4.171,4.1428,4.1315,4.1283,4.0744,4.0442,4.0312,4.0312,4.0182,3.9953,3.9625,3.9363,3.9111,3.9012,3.9276,3.9625,3.9111,3.9142,3.9382]},{"header":{"parameterUnit":"m.s-1","parameterCategory":1,"la1":30.6,"la2":28.766,"lo1":-90.7593,"lo2":-88.6598,"dy":0.0162,"dx":0.0183,"nx":116,"ny":114,"refTime":"2023-11-01T12:00:00:Z","depth":0,"parameterNumber":3,"parameterNumberName":"V-component_of_WINDS"},"data":[0.0,0.0,0.0,0.0,0.0,0.0,0.0,0.0,0.0,0.0,0.0,0.0,0.0,0.0,0.0,0.0,0.0,0.0,0.0,0.0,0.0,0.0,0.0,0.0,0.0,0.0,0.0,0.0,0.0,0.0,0.0,0.0,0.0,0.0,0.0,0.0,0.0,0.0,0.0,0.0,0.0,0.0,0.0,0.0,0.0,0.0,0.0,0.0,0.0,0.0,0.0,0.0,0.0,0.0,0.0,0.0,0.0,0.0,0.0,0.0,0.0,0.0,0.0,0.0,0.0,0.0,0.0,0.0,0.0,0.0,0.0,0.0,0.0,0.0,0.0,0.0,0.0,0.0,0.0,0.0,0.0,0.0,0.0,0.0,0.0,0.0,0.0,0.0,0.0,0.0,0.0,0.0,0.0,0.0,0.0,0.0,0.0,0.0,0.0,0.0,0.0,0.0,0.0,0.0,0.0,0.0,0.0,0.0,0.0,0.0,0.0,0.0,0.0,0.0,0.0,0.0,0.0,0.0,0.0,0.0,0.0,0.0,0.0,0.0,0.0,0.0,0.0,0.0,0.0,0.0,0.0,0.0,0.0,0.0,0.0,0.0,0.0,0.0,0.0,0.0,0.0,0.0,0.0,0.0,0.0,0.0,0.0,0.0,0.0,0.0,0.0,0.0,0.0,0.0,0.0,0.0,0.0,0.0,0.0,0.0,0.0,0.0,0.0,0.0,0.0,0.0,0.0,0.0,0.0,0.0,0.0,0.0,0.0,0.0,0.0,0.0,0.0,0.0,0.0,0.0,0.0,0.0,0.0,0.0,0.0,0.0,0.0,0.0,0.0,0.0,0.0,0.0,0.0,0.0,0.0,0.0,0.0,0.0,0.0,0.0,0.0,0.0,0.0,0.0,0.0,0.0,0.0,0.0,0.0,0.0,0.0,0.0,0.0,0.0,0.0,0.0,0.0,0.0,0.0,0.0,0.0,0.0,0.0,0.0,0.0,0.0,0.0,0.0,0.0,0.0,0.0,0.0,0.0,0.0,0.0,0.0,0.0,0.0,0.0,0.0,0.0,0.0,0.0,0.0,0.0,0.0,0.0,0.0,0.0,0.0,0.0,0.0,0.0,0.0,0.0,0.0,0.0,0.0,0.0,0.0,0.0,0.0,0.0,0.0,0.0,0.0,0.0,0.0,0.0,0.0,0.0,0.0,0.0,0.0,0.0,0.0,0.0,0.0,0.0,0.0,0.0,0.0,0.0,0.0,0.0,0.0,0.0,0.0,0.0,0.0,0.0,0.0,0.0,0.0,0.0,0.0,0.0,0.0,0.0,0.0,0.0,0.0,0.0,0.0,0.0,0.0,0.0,0.0,0.0,0.0,0.0,0.0,0.0,0.0,0.0,0.0,0.0,0.0,0.0,0.0,0.0,0.0,0.0,0.0,0.0,0.0,0.0,0.0,0.0,0.0,0.0,0.0,0.0,0.0,0.0,0.0,0.0,0.0,0.0,0.0,0.0,0.0,0.0,0.0,0.0,0.0,0.0,0.0,0.0,0.0,0.0,0.0,0.0,0.0,0.0,0.0,0.0,0.0,0.0,0.0,0.0,0.0,0.0,0.0,0.0,0.0,0.0,0.0,0.0,0.0,0.0,0.0,0.0,0.0,0.0,0.0,0.0,0.0,0.0,0.0,0.0,0.0,0.0,0.0,0.0,0.0,0.0,0.0,0.0,0.0,0.0,0.0,0.0,0.0,0.0,0.0,0.0,0.0,0.0,0.0,0.0,0.0,0.0,0.0,0.0,0.0,0.0,0.0,0.0,0.0,0.0,0.0,0.0,0.0,0.0,0.0,0.0,0.0,0.0,0.0,0.0,0.0,0.0,0.0,0.0,0.0,0.0,0.0,0.0,0.0,0.0,0.0,0.0,0.0,0.0,0.0,0.0,0.0,0.0,0.0,0.0,0.0,0.0,0.0,0.0,0.0,0.0,0.0,0.0,0.0,0.0,0.0,0.0,0.0,0.0,0.0,0.0,0.0,0.0,0.0,0.0,0.0,0.0,0.0,0.0,0.0,0.0,0.0,0.0,0.0,0.0,0.0,0.0,0.0,0.0,0.0,0.0,0.0,0.0,0.0,0.0,0.0,0.0,0.0,0.0,0.0,0.0,0.0,0.0,0.0,0.0,0.0,0.0,0.0,0.0,0.0,0.0,0.0,0.0,0.0,0.0,0.0,0.0,0.0,0.0,0.0,0.0,0.0,0.0,0.0,0.0,0.0,0.0,0.0,0.0,0.0,0.0,0.0,0.0,0.0,0.0,0.0,0.0,0.0,0.0,0.0,0.0,0.0,0.0,0.0,0.0,0.0,0.0,0.0,0.0,0.0,0.0,0.0,0.0,0.0,0.0,0.0,0.0,0.0,0.0,0.0,0.0,0.0,0.0,0.0,0.0,0.0,0.0,0.0,0.0,0.0,0.0,0.0,0.0,0.0,0.0,0.0,0.0,0.0,0.0,0.0,0.0,0.0,0.0,0.0,0.0,0.0,0.0,0.0,0.0,0.0,0.0,0.0,0.0,0.0,0.0,0.0,0.0,0.0,0.0,0.0,0.0,0.0,0.0,0.0,0.0,0.0,0.0,0.0,0.0,0.0,0.0,0.0,0.0,0.0,0.0,0.0,0.0,0.0,0.0,0.0,0.0,0.0,0.0,0.0,0.0,0.0,0.0,0.0,0.0,0.0,0.0,0.0,0.0,0.0,0.0,0.0,0.0,0.0,0.0,0.0,0.0,0.0,0.0,0.0,0.0,0.0,0.0,0.0,0.0,0.0,0.0,0.0,0.0,0.0,0.0,0.0,0.0,0.0,0.0,0.0,0.0,0.0,0.0,0.0,0.0,0.0,0.0,0.0,0.0,0.0,0.0,0.0,0.0,0.0,0.0,0.0,0.0,0.0,0.0,0.0,0.0,0.0,0.0,0.0,0.0,0.0,0.0,0.0,0.0,0.0,0.0,0.0,0.0,0.0,0.0,0.0,0.0,0.0,0.0,0.0,0.0,0.0,0.0,0.0,0.0,0.0,0.0,0.0,0.0,0.0,0.0,0.0,0.0,0.0,0.0,0.0,0.0,0.0,0.0,0.0,0.0,0.0,0.0,0.0,0.0,0.0,0.0,0.0,0.0,0.0,0.0,0.0,0.0,0.0,0.0,0.0,0.0,0.0,0.0,0.0,0.0,0.0,0.0,0.0,0.0,0.0,0.0,0.0,0.0,0.0,0.0,0.0,0.0,0.0,0.0,0.0,0.0,0.0,0.0,0.0,0.0,0.0,0.0,0.0,0.0,0.0,0.0,0.0,0.0,0.0,0.0,0.0,0.0,0.0,0.0,0.0,0.0,0.0,0.0,0.0,0.0,0.0,0.0,0.0,0.0,0.0,0.0,0.0,0.0,0.0,0.0,0.0,0.0,0.0,0.0,0.0,0.0,0.0,0.0,0.0,0.0,0.0,0.0,0.0,0.0,0.0,0.0,0.0,0.0,0.0,0.0,0.0,0.0,0.0,0.0,0.0,0.0,0.0,0.0,0.0,0.0,0.0,0.0,0.0,0.0,0.0,0.0,0.0,0.0,0.0,0.0,0.0,0.0,0.0,0.0,0.0,0.0,0.0,0.0,0.0,0.0,0.0,0.0,0.0,0.0,0.0,0.0,0.0,0.0,0.0,0.0,0.0,0.0,0.0,0.0,0.0,0.0,0.0,0.0,0.0,0.0,0.0,0.0,0.0,0.0,0.0,0.0,0.0,0.0,0.0,0.0,0.0,0.0,0.0,0.0,0.0,0.0,0.0,0.0,0.0,0.0,0.0,0.0,0.0,0.0,0.0,0.0,0.0,0.0,0.0,0.0,0.0,0.0,0.0,0.0,0.0,0.0,0.0,0.0,0.0,0.0,0.0,0.0,0.0,0.0,0.0,0.0,0.0,0.0,0.0,0.0,0.0,0.0,0.0,0.0,0.0,0.0,0.0,0.0,0.0,0.0,0.0,0.0,0.0,0.0,0.0,0.0,0.0,0.0,0.0,0.0,0.0,0.0,0.0,0.0,0.0,0.0,0.0,0.0,0.0,0.0,0.0,0.0,0.0,0.0,0.0,0.0,0.0,0.0,0.0,0.0,0.0,0.0,0.0,0.0,0.0,0.0,0.0,0.0,0.0,0.0,0.0,0.0,0.0,0.0,0.0,0.0,0.0,0.0,0.0,0.0,0.0,0.0,0.0,0.0,0.0,0.0,0.0,0.0,0.0,0.0,0.0,0.0,0.0,0.0,0.0,0.0,0.0,0.0,0.0,0.0,0.0,0.0,0.0,0.0,0.0,0.0,0.0,0.0,0.0,0.0,0.0,0.0,0.0,0.0,0.0,0.0,0.0,0.0,0.0,0.0,0.0,0.0,0.0,0.0,0.0,0.0,0.0,0.0,0.0,0.0,0.0,0.0,0.0,0.0,0.0,0.0,0.0,0.0,0.0,0.0,0.0,0.0,0.0,0.0,0.0,0.0,0.0,0.0,0.0,0.0,0.0,0.0,0.0,0.0,0.0,0.0,0.0,0.0,0.0,0.0,0.0,0.0,0.0,0.0,0.0,0.0,0.0,0.0,0.0,0.0,0.0,0.0,0.0,0.0,0.0,0.0,0.0,0.0,0.0,0.0,0.0,0.0,0.0,0.0,0.0,0.0,0.0,0.0,0.0,0.0,0.0,0.0,0.0,0.0,0.0,0.0,0.0,0.0,0.0,0.0,0.0,0.0,0.0,0.0,0.0,0.0,0.0,0.0,0.0,0.0,0.0,0.0,0.0,0.0,0.0,0.0,0.0,0.0,0.0,0.0,0.0,0.0,0.0,0.0,0.0,0.0,0.0,0.0,0.0,0.0,0.0,0.0,0.0,0.0,0.0,0.0,0.0,0.0,0.0,0.0,0.0,0.0,0.0,0.0,0.0,0.0,0.0,0.0,0.0,0.0,0.0,0.0,0.0,0.0,0.0,0.0,0.0,0.0,0.0,0.0,0.0,0.0,0.0,0.0,0.0,0.0,0.0,0.0,0.0,0.0,0.0,0.0,0.0,0.0,0.0,0.0,0.0,0.0,0.0,0.0,0.0,0.0,0.0,0.0,0.0,0.0,0.0,0.0,0.0,0.0,0.0,0.0,0.0,0.0,0.0,0.0,0.0,0.0,0.0,0.0,0.0,0.0,0.0,0.0,0.0,0.0,0.0,0.0,0.0,0.0,0.0,0.0,0.0,0.0,0.0,0.0,0.0,0.0,0.0,0.0,0.0,0.0,0.0,0.0,0.0,0.0,0.0,0.0,0.0,0.0,0.0,0.0,0.0,0.0,0.0,0.0,0.0,0.0,0.0,0.0,0.0,0.0,0.0,0.0,0.0,0.0,0.0,0.0,0.0,0.0,0.0,0.0,0.0,0.0,0.0,0.0,0.0,0.0,0.0,0.0,0.0,0.0,0.0,0.0,0.0,0.0,0.0,0.0,0.0,0.0,0.0,0.0,0.0,0.0,0.0,0.0,0.0,0.0,0.0,0.0,0.0,0.0,0.0,0.0,0.0,0.0,0.0,0.0,0.0,0.0,0.0,0.0,0.0,0.0,0.0,0.0,0.0,0.0,0.0,0.0,0.0,0.0,0.0,0.0,0.0,0.0,0.0,0.0,0.0,0.0,0.0,0.0,0.0,0.0,0.0,0.0,0.0,0.0,0.0,0.0,0.0,0.0,0.0,0.0,0.0,0.0,0.0,0.0,0.0,0.0,0.0,0.0,0.0,0.0,0.0,0.0,0.0,0.0,0.0,0.0,0.0,0.0,0.0,0.0,0.0,0.0,0.0,0.0,0.0,0.0,0.0,0.0,0.0,0.0,0.0,0.0,0.0,0.0,0.0,0.0,0.0,0.0,0.0,0.0,0.0,0.0,0.0,0.0,0.0,0.0,0.0,0.0,0.0,0.0,0.0,0.0,0.0,0.0,0.0,0.0,0.0,0.0,0.0,0.0,0.0,0.0,0.0,0.0,0.0,0.0,0.0,0.0,0.0,0.0,0.0,0.0,0.0,0.0,0.0,0.0,0.0,0.0,0.0,2.468,0.0,0.0,0.0,0.0,0.0,0.0,0.0,0.0,0.0,0.0,0.0,0.0,0.0,0.0,0.0,0.0,0.0,0.0,0.0,0.0,0.0,0.0,0.0,0.0,0.0,0.0,0.0,0.0,0.0,0.0,0.0,0.0,0.0,0.0,0.0,0.0,0.0,0.0,0.0,2.2808,2.3563,2.4117,2.4269,2.3759,2.2736,0.0,0.0,0.0,0.0,0.0,0.0,0.0,0.0,0.0,0.0,0.0,0.0,0.0,0.0,0.0,0.0,0.0,0.0,0.0,0.0,0.0,0.0,0.0,0.0,0.0,0.0,0.0,0.0,0.0,0.0,0.0,0.0,0.0,0.0,0.0,0.0,0.0,0.0,0.0,0.0,0.0,0.0,0.0,0.0,0.0,0.0,0.0,0.0,0.0,0.0,0.0,0.0,0.0,0.0,0.0,0.0,0.0,0.0,0.0,0.0,0.0,0.0,0.0,0.0,0.0,0.0,0.0,0.0,0.0,0.0,0.0,2.5721,0.0,0.0,0.0,0.0,0.0,0.0,0.0,0.0,0.0,0.0,0.0,0.0,0.0,0.0,0.0,0.0,0.0,0.0,0.0,0.0,0.0,0.0,0.0,0.0,1.921,1.9282,1.9238,1.9272,0.0,0.0,0.0,0.0,0.0,0.0,0.0,2.1081,2.1726,2.18,2.371,2.5246,2.6365,2.6285,2.5396,2.3818,2.3718,0.0,0.0,0.0,0.0,0.0,0.0,0.0,0.0,0.0,0.0,0.0,0.0,0.0,0.0,0.0,0.0,0.0,0.0,0.0,0.0,0.0,0.0,0.0,0.0,0.0,0.0,0.0,0.0,0.0,0.0,0.0,0.0,0.0,0.0,0.0,0.0,0.0,0.0,0.0,0.0,0.0,0.0,0.0,0.0,0.0,0.0,0.0,0.0,0.0,0.0,0.0,0.0,0.0,0.0,0.0,0.0,0.0,0.0,0.0,0.0,0.0,0.0,0.0,0.0,3.0616,3.1028,3.0467,3.0392,3.057,2.8628,2.7907,2.8066,0.0,0.0,0.0,0.0,0.0,0.0,0.0,0.0,0.0,0.0,0.0,0.0,0.0,0.0,0.0,0.0,0.0,0.0,0.0,0.0,0.0,0.0,1.9149,1.9377,2.0007,2.0061,2.0253,0.0,0.0,0.0,0.0,0.0,0.0,2.1482,2.2134,2.3041,2.4232,2.5455,2.6129,2.6319,2.6161,2.6351,2.6721,2.6064,2.5536,2.5205,0.0,0.0,0.0,0.0,0.0,0.0,0.0,0.0,0.0,0.0,0.0,0.0,0.0,0.0,0.0,0.0,0.0,0.0,0.0,0.0,0.0,0.0,0.0,0.0,0.0,0.0,0.0,0.0,0.0,0.0,0.0,0.0,0.0,0.0,0.0,0.0,0.0,0.0,0.0,0.0,0.0,2.5503,2.6827,0.0,0.0,0.0,0.0,0.0,0.0,0.0,0.0,0.0,0.0,0.0,0.0,0.0,0.0,3.1765,3.2797,3.3697,3.4466,3.541,3.5322,3.4351,3.4262,3.3642,3.2638,3.2615,0.0,2.9777,2.9628,0.0,0.0,0.0,0.0,0.0,0.0,0.0,0.0,0.0,0.0,0.0,0.0,0.0,0.0,0.0,0.0,0.0,0.0,0.0,0.0,0.0,2.0115,2.0605,2.1304,2.1671,2.1816,2.1672,2.1557,0.0,0.0,0.0,2.1673,2.2307,2.3282,2.4746,2.6719,2.7602,2.8452,2.9211,2.9201,2.9595,3.0299,2.9572,2.8419,2.7051,2.6936,0.0,0.0,0.0,0.0,0.0,0.0,0.0,0.0,0.0,0.0,0.0,0.0,0.0,0.0,0.0,0.0,0.0,0.0,0.0,0.0,0.0,0.0,0.0,0.0,0.0,0.0,0.0,0.0,0.0,0.0,0.0,0.0,0.0,0.0,0.0,0.0,0.0,0.0,0.0,2.5296,2.6459,2.6899,2.6653,2.6301,0.0,0.0,0.0,0.0,0.0,0.0,0.0,0.0,0.0,3.3323,3.3411,3.3854,3.4807,3.5452,3.5963,3.6259,3.6982,3.7067,3.6516,3.6633,3.637,3.5815,3.5975,3.5266,3.3862,3.2361,3.1177,3.0313,0.0,0.0,0.0,0.0,0.0,2.9916,0.0,0.0,0.0,0.0,0.0,0.0,0.0,0.0,0.0,0.0,0.0,0.0,2.0485,2.1292,2.2189,2.3026,2.3372,2.3441,2.3223,2.2739,0.0,2.2031,2.2262,2.2651,2.3206,2.4895,2.6867,2.9195,2.9934,3.082,3.1803,3.1858,3.2166,3.2674,3.2122,3.0808,2.8896,2.84,2.7997,2.7607,0.0,0.0,0.0,0.0,0.0,0.0,0.0,0.0,0.0,0.0,0.0,0.0,0.0,0.0,0.0,0.0,0.0,0.0,0.0,0.0,0.0,0.0,0.0,0.0,0.0,0.0,0.0,0.0,0.0,0.0,0.0,0.0,0.0,0.0,0.0,0.0,0.0,2.6952,2.7853,2.7627,2.7978,2.7948,0.0,0.0,0.0,0.0,0.0,0.0,3.3269,3.3468,3.4396,3.6203,3.6326,3.6863,3.7942,3.8095,3.8255,3.8434,3.868,3.862,3.8305,3.8429,3.8314,3.801,3.8061,3.7806,3.7199,3.4942,3.3667,3.3078,3.2549,3.2219,0.0,3.2046,3.2272,3.2631,0.0,0.0,0.0,0.0,0.0,0.0,0.0,0.0,0.0,0.0,0.0,2.1184,2.116,2.2451,2.3857,2.5222,2.4712,2.4879,2.6177,2.4969,2.4429,2.5045,2.4374,2.4198,2.4675,2.7258,2.958,3.163,3.2352,3.2696,3.2641,3.2641,3.2674,3.2707,3.2674,3.1802,3.039,3.0367,2.9582,2.8352,2.8319,0.0,0.0,0.0,0.0,0.0,0.0,0.0,0.0,0.0,0.0,0.0,0.0,0.0,0.0,0.0,0.0,0.0,0.0,0.0,0.0,0.0,0.0,0.0,0.0,0.0,0.0,0.0,0.0,0.0,0.0,0.0,0.0,0.0,0.0,0.0,0.0,0.0,0.0,3.0326,3.1593,0.0,0.0,0.0,0.0,3.2583,3.344,3.4713,3.649,3.6518,3.7506,3.9677,3.9574,3.9906,4.08,4.08,4.1134,4.1765,4.1783,4.1104,3.9894,3.9894,3.9195,3.8027,3.8194,3.8329,3.8338,3.7246,3.5671,3.3938,3.3893,3.3498,3.3012,3.3635,3.4683,3.5791,0.0,0.0,0.0,0.0,0.0,0.0,0.0,0.0,1.991,1.9863,2.1177,2.2298,2.2777,2.4098,2.5483,2.6845,2.7104,2.7345,2.7743,2.6824,2.6115,2.5899,2.5057,2.5449,2.7283,2.9101,3.0754,3.2243,3.2586,3.2939,3.3278,3.3369,3.3668,3.4099,3.3635,3.3138,3.2564,3.1615,3.0919,3.0367,2.9417,2.8631,0.0,0.0,0.0,0.0,0.0,0.0,0.0,0.0,0.0,0.0,0.0,0.0,0.0,0.0,0.0,0.0,0.0,0.0,0.0,0.0,0.0,0.0,0.0,0.0,0.0,0.0,0.0,0.0,0.0,0.0,0.0,0.0,0.0,0.0,0.0,0.0,0.0,3.1677,3.2874,0.0,3.265,3.4546,3.572,3.5501,3.7105,3.8493,3.946,3.9473,4.0036,4.1243,4.1231,4.1322,4.1638,4.1638,4.176,4.1984,4.2132,4.1943,4.1473,4.163,4.1479,4.1142,4.1243,4.1382,4.1493,4.1155,3.9525,3.7265,3.7265,3.7048,3.6769,3.6859,3.7274,3.7785,0.0,0.0,0.0,0.0,0.0,0.0,0.0,0.0,2.0898,2.1383,2.2767,2.406,2.501,2.6388,2.7706,2.8805,2.9023,2.9043,2.8946,2.8164,2.7451,2.691,2.6729,2.7861,3.0516,3.136,3.2409,3.3674,3.3755,3.3887,3.4037,3.4165,3.4466,3.4894,3.4444,3.42,3.4099,3.3116,3.242,3.189,3.0897,2.9947,2.8963,0.0,0.0,0.0,0.0,0.0,0.0,0.0,0.0,0.0,0.0,0.0,0.0,0.0,0.0,0.0,0.0,0.0,0.0,0.0,0.0,0.0,0.0,0.0,0.0,0.0,0.0,0.0,0.0,0.0,0.0,0.0,0.0,0.0,0.0,0.0,3.3912,3.3639,3.5018,3.5799,3.5278,3.7362,3.8678,3.8476,4.0095,4.1367,4.2071,4.2175,4.2621,4.3518,4.3548,4.3548,4.3548,4.3548,4.3548,4.3548,4.3542,4.3389,4.3193,4.3142,4.3089,4.2998,4.2998,4.3105,4.3251,4.3251,4.2239,4.0629,4.0247,4.0038,3.9908,3.9761,3.9949,4.0281,0.0,0.0,0.0,0.0,0.0,0.0,0.0,2.1653,2.217,2.3561,2.4998,2.6413,2.7777,2.9245,3.0372,3.106,3.0339,2.9871,2.9826,2.9042,2.8471,2.8253,2.944,3.1419,3.4242,3.4096,3.4667,3.6042,3.6042,3.5644,3.4949,3.5079,3.5034,3.4894,3.5046,3.5067,3.4949,3.4949,3.4132,3.284,3.2774,3.1868,3.0433,0.0,0.0,0.0,0.0,0.0,0.0,0.0,0.0,0.0,0.0,0.0,0.0,0.0,0.0,0.0,0.0,0.0,0.0,0.0,0.0,0.0,0.0,0.0,0.0,0.0,0.0,0.0,0.0,0.0,0.0,0.0,0.0,0.0,3.3549,3.4499,3.563,3.646,3.8221,3.9464,3.9636,4.0895,4.1607,4.1385,4.2204,4.3187,4.4274,4.4557,4.5268,4.6542,4.6603,4.6603,4.6623,4.6623,4.6623,4.6623,4.616,4.5606,4.4942,4.4507,4.3943,4.3336,4.3336,4.3412,4.3539,4.3539,4.3626,4.3685,4.2601,4.215,4.215,4.2133,4.2618,4.3212,0.0,0.0,0.0,0.0,0.0,0.0,0.0,2.2458,2.3495,2.4501,2.6244,2.7769,2.8785,2.9695,3.0497,3.1191,3.1469,3.1366,3.0773,3.0352,2.9756,2.8972,3.1123,3.2887,3.4119,3.4991,3.5868,3.6791,3.6791,3.6439,3.5711,3.5747,3.5449,3.4916,3.5515,3.5735,3.5744,3.6274,3.6274,3.5744,3.4132,3.2939,3.2,0.0,0.0,0.0,0.0,0.0,0.0,0.0,0.0,0.0,0.0,0.0,0.0,0.0,0.0,0.0,0.0,0.0,0.0,0.0,0.0,0.0,0.0,0.0,0.0,0.0,0.0,0.0,0.0,0.0,0.0,0.0,0.0,3.7018,3.6585,3.7539,3.8645,3.9506,4.042,4.0997,4.1049,4.2712,4.3556,4.3008,4.4553,4.5414,4.5253,4.5753,4.6203,4.6573,4.6603,4.6683,4.6821,4.6821,4.6919,4.7107,4.6979,4.6831,4.6644,4.6514,4.6422,4.6385,4.6385,4.6479,4.6665,4.6665,4.6368,4.5773,4.3966,4.3252,4.3249,4.3096,4.3256,4.3665,0.0,0.0,0.0,0.0,0.0,0.0,0.0,2.3511,2.4729,2.6123,2.76,2.9138,3.0816,3.1045,3.1402,3.2107,3.2188,3.1742,3.0667,3.0595,3.1006,3.1935,3.337,3.4745,3.5971,3.6658,3.7198,3.7553,3.7553,3.7227,3.6526,3.6559,3.6327,3.5907,3.636,3.6522,3.6506,3.6966,3.719,3.707,3.5835,3.4657,3.3503,3.2464,3.1495,3.0663,2.9938,2.9823,2.9794,2.8422,0.0,0.0,0.0,0.0,0.0,0.0,0.0,0.0,0.0,0.0,0.0,0.0,0.0,0.0,0.0,0.0,0.0,0.0,0.0,0.0,0.0,0.0,0.0,0.0,3.8182,3.981,4.0764,4.0904,4.1347,4.2501,4.3012,4.3408,4.376,4.4783,4.5268,4.4899,4.5946,4.6542,4.6419,4.6918,4.7329,4.7606,4.7707,4.7776,4.7896,4.7896,4.7975,4.8125,4.7954,4.7837,4.7837,4.7652,4.7622,0.0,4.7737,4.7814,4.7909,4.7909,4.7656,0.0,0.0,0.0,0.0,0.0,4.5308,4.5274,0.0,0.0,0.0,0.0,0.0,0.0,0.0,2.4612,2.5871,2.8086,2.8976,3.0447,3.3133,3.2765,3.2572,3.3228,3.2615,3.1708,3.0444,3.0756,3.2447,3.5653,3.5825,3.675,3.8673,3.8579,3.8504,3.8447,3.8361,3.802,3.7428,3.7411,3.7357,3.7319,3.7403,3.7373,3.7285,3.749,3.7586,3.7565,3.7598,3.6643,3.5063,3.3736,3.2762,3.2056,3.1361,3.1,3.0773,3.0511,0.0,0.0,0.0,0.0,0.0,0.0,0.0,0.0,0.0,0.0,0.0,0.0,0.0,0.0,0.0,0.0,0.0,0.0,0.0,0.0,0.0,0.0,0.0,0.0,4.0865,4.2918,4.5048,4.4358,4.4085,4.5291,4.5591,4.6024,4.6838,4.6804,4.6735,4.6643,4.6859,4.7198,4.7742,0.0,0.0,0.0,0.0,4.9425,4.9476,4.9383,4.9403,4.9486,4.9082,4.891,4.8973,4.8539,4.837,4.839,4.8307,4.8276,4.8295,4.82,4.8219,4.8301,4.801,4.7554,4.7085,4.7925,4.784,0.0,0.0,0.0,0.0,0.0,0.0,0.0,0.0,2.5219,2.6696,2.9647,3.0506,3.1483,3.3275,3.3273,3.2975,3.2467,3.2771,3.3032,3.3122,3.3635,3.4514,3.5755,3.7203,3.8464,3.9464,3.9367,3.9501,3.9965,3.9475,3.8876,3.8182,3.8087,3.7818,3.7476,3.7966,3.822,3.8363,3.8969,3.9229,3.9196,3.8606,3.7811,3.6959,3.6561,3.6252,3.5909,3.5205,3.4772,3.428,3.2497,3.173,3.1268,2.9799,2.8876,0.0,0.0,0.0,0.0,0.0,0.0,0.0,0.0,0.0,0.0,0.0,0.0,0.0,0.0,0.0,0.0,0.0,0.0,0.0,4.1115,4.3203,4.496,4.6166,4.734,4.7765,4.69,4.6582,4.6528,4.6869,4.7406,4.7479,4.6891,4.8408,4.9233,4.8982,4.9885,0.0,5.0912,5.0414,5.0205,5.0451,4.9835,4.9936,5.0652,0.0,0.0,5.1356,5.127,5.1328,5.1478,5.0727,5.0493,5.06,5.0048,5.0241,5.0696,4.8853,4.8158,4.8193,4.8376,4.8455,4.8487,0.0,0.0,0.0,0.0,0.0,0.0,0.0,2.5926,2.7008,2.8874,2.964,3.0593,3.1987,3.1838,3.1786,3.2064,3.2685,3.3444,3.4448,3.504,3.5969,3.7339,3.8299,3.9286,4.0318,4.022,4.0314,4.0614,4.0234,3.9914,3.969,3.9547,3.9619,3.9815,4.0053,4.0207,4.026,4.0708,4.068,4.0311,4.0026,3.9459,3.8706,3.7769,3.7357,3.7249,3.68,3.6626,3.6361,3.505,3.4134,3.3433,3.2754,3.1623,3.0488,0.0,0.0,0.0,0.0,0.0,0.0,0.0,0.0,0.0,0.0,0.0,0.0,0.0,0.0,3.641,0.0,0.0,4.1827,4.3818,4.569,4.7143,4.7844,4.9108,4.9568,4.8386,4.8571,4.8831,4.8934,4.9429,4.9553,4.918,5.0123,5.0621,5.0372,5.0891,5.1307,5.1539,5.1195,5.111,5.1348,5.1001,5.1031,5.148,5.148,5.167,5.2017,5.2017,5.2079,5.215,5.1699,5.1654,5.1824,5.1614,5.1777,5.2049,5.1012,5.0596,5.0596,5.0692,5.0839,5.0934,0.0,0.0,0.0,0.0,0.0,0.0,0.0,2.6461,2.7127,2.8022,2.8673,2.9532,3.0664,3.0524,3.0758,3.1869,3.2785,3.3859,3.5201,3.6044,3.7363,3.9356,3.9398,4.0045,4.1412,4.1191,4.1124,4.1231,4.0989,4.1003,4.121,4.1064,4.1426,4.2146,4.201,4.1936,4.1963,4.2078,4.1762,4.1263,4.1328,4.1043,4.0392,3.8925,3.8221,3.794,3.7841,3.7686,3.7464,3.7273,3.6307,3.5217,3.5683,3.4558,3.2959,3.256,3.284,0.0,0.0,0.0,0.0,0.0,0.0,0.0,0.0,3.4058,3.4883,3.7084,3.8103,3.9346,4.1772,4.3312,4.4786,4.6521,4.7981,4.9125,4.9704,5.0506,5.0829,5.0226,5.0725,5.1086,5.1128,5.1329,5.1465,5.1465,5.159,5.1736,5.1904,5.2018,5.2228,5.2555,5.2303,5.223,5.2428,5.2144,5.208,5.2218,5.2218,5.2302,5.2428,5.2428,5.2469,5.2552,5.2435,5.2452,5.2528,5.2689,5.2885,5.3034,5.3214,5.3323,5.3395,5.3169,5.3048,5.3108,0.0,0.0,0.0,0.0,0.0,0.0,0.0,0.0,2.7227,2.9381,2.9674,2.9975,3.0725,3.1393,3.1809,3.1886,3.3672,3.5097,3.5921,3.7659,3.9334,4.0899,4.083,4.1459,4.2933,4.2294,4.2225,4.2738,4.2212,4.1944,4.1971,4.1835,4.1964,4.226,4.2146,4.2126,4.2246,4.2159,4.2119,4.2158,4.2038,4.2011,4.2002,4.1708,4.078,3.9623,3.961,3.8707,3.758,3.8179,3.7369,3.6146,3.6604,3.6133,3.5152,3.3681,3.3288,3.2825,3.0652,3.0993,3.245,3.4643,3.4795,3.5403,0.0,3.9168,3.925,4.2455,4.3201,4.3781,4.5586,4.6567,4.7514,4.8758,4.9612,5.0423,5.1288,5.1883,5.2487,5.3191,5.2143,5.1444,5.1623,5.1664,5.1664,5.1664,5.2229,5.2943,5.3733,5.419,5.4819,5.5661,5.4492,5.3829,5.385,5.2618,5.2333,5.2997,5.2997,5.3281,5.385,5.385,5.4094,5.4441,5.4049,5.3508,5.2929,5.2969,5.3455,5.4196,5.4236,5.498,5.5833,5.3957,5.3245,5.3245,0.0,0.0,0.0,0.0,0.0,0.0,0.0,0.0,0.0,2.8307,2.8423,2.8644,2.9324,3.0491,3.1252,3.1315,3.3908,3.5688,3.606,3.8712,4.0523,4.1073,4.1518,4.22,4.3202,4.2899,4.2872,4.3118,4.2872,4.2731,4.2731,4.2772,4.309,4.3653,4.3598,4.3835,4.4234,4.3656,4.3426,4.3434,4.2927,4.2482,4.1997,4.16,4.1022,4.0359,3.9845,3.9067,0.0,3.8353,3.7803,3.7221,3.8061,3.7247,3.5868,3.5041,3.4828,3.4914,3.5107,3.4841,3.5027,3.7279,3.7873,3.8456,4.062,4.1308,4.2222,4.4701,4.5525,4.6358,4.8148,4.8721,4.9324,0.0,5.1382,5.2167,5.2837,5.3204,5.3687,5.4466,5.396,5.3675,5.4062,5.3856,5.3879,5.4311,5.4573,5.49,5.5304,5.5522,5.5784,5.6211,5.5642,5.5304,5.5304,5.4735,5.4387,5.4271,5.4271,5.4208,5.4103,5.4103,5.4274,5.4592,5.5097,5.5051,5.467,5.5378,5.5815,5.6032,5.621,5.6628,5.6952,5.5183,5.4774,5.5118,0.0,0.0,0.0,0.0,0.0,0.0,0.0,0.0,0.0,0.0,2.7462,2.7955,2.8861,3.0015,3.0819,3.1115,3.3912,3.5758,3.6041,3.9059,4.0972,4.1231,4.2072,4.2841,4.3505,4.3547,4.3547,4.3505,4.3547,4.3533,4.3435,4.3603,4.3928,4.4474,4.4676,4.5067,4.5525,4.4793,4.4514,4.4491,4.3695,4.29,4.2169,4.1722,4.0963,4.006,3.9532,3.8941,3.8392,3.814,3.774,3.7498,3.8443,3.7719,3.6404,3.5786,3.5662,3.6034,3.7688,3.7709,3.7722,3.9501,4.0674,4.1626,4.2494,4.37,4.5094,4.6957,4.7681,4.8529,5.0192,5.0638,5.1114,5.2104,5.2996,5.3732,5.4294,5.434,5.4553,5.5204,5.5017,5.5162,5.601,5.5686,5.562,5.6179,5.6211,5.6274,5.6473,5.6473,5.6568,5.678,5.6568,5.6473,5.6473,5.6306,5.5936,5.5408,5.5408,5.5168,5.478,5.4909,5.5027,5.5229,5.6177,5.6487,5.637,5.7226,5.7494,5.7334,5.7504,5.7772,5.7815,5.6499,5.639,5.6797,0.0,0.0,0.0,0.0,0.0,0.0,0.0,0.0,0.0,0.0,0.0,0.0,0.0,3.0545,3.0981,3.1706,3.3785,3.5288,3.5865,3.8439,4.0525,4.182,4.2729,4.3505,4.4259,4.4449,4.4449,4.4259,4.4449,4.4378,4.4078,4.4222,4.4222,4.4145,4.4867,4.5202,4.5187,4.4975,4.5005,4.5106,4.4238,4.3499,4.2973,4.2939,4.1083,3.8487,3.8728,3.827,3.7571,3.7681,3.7153,3.6542,3.7165,3.7328,3.6982,3.5538,3.5011,3.5163,3.6202,3.7972,3.983,4.1173,4.3119,4.5014,4.6407,4.7296,4.8336,5.0038,5.0358,5.0721,5.1731,5.2502,5.3165,5.3675,5.4314,5.4973,5.5642,5.5193,5.5036,5.5705,5.4803,5.4837,0.0,5.6456,5.6179,5.6211,5.6211,5.6473,5.7114,5.7177,5.7516,5.8203,5.7548,5.7177,5.7177,5.6505,5.6211,5.6179,5.6179,5.6259,5.6447,5.6905,5.712,5.7141,5.743,5.7547,5.7547,5.7568,5.76,5.76,5.76,5.817,5.8839,5.7879,5.7662,5.7795,0.0,0.0,0.0,0.0,0.0,0.0,0.0,0.0,0.0,0.0,0.0,0.0,0.0,0.0,0.0,0.0,3.3564,3.4846,3.4954,3.8523,4.0741,4.1049,4.2909,4.3958,4.4025,4.4417,4.444,4.4169,4.4327,4.4298,4.4097,4.4155,4.414,4.4097,4.4365,4.4733,4.5169,4.4523,4.456,4.4953,4.3694,4.297,4.2527,4.1174,3.9967,3.8844,0.0,3.6628,3.6083,3.6452,3.6561,3.6592,3.7045,3.6825,3.6302,3.5642,3.612,3.7242,3.8818,4.0478,4.2286,4.4545,4.5646,4.6568,4.7961,4.9256,5.0181,5.0474,5.0557,5.0728,5.1245,5.1564,5.206,5.3144,5.4258,5.5393,5.6559,5.614,5.5982,5.6654,5.6374,0.0,0.0,0.0,0.0,5.7539,5.7602,5.7697,5.7918,5.795,5.8045,5.8297,5.8076,5.795,5.795,5.7728,5.7349,5.6884,5.641,5.629,5.6533,5.6839,5.7077,5.7227,5.7958,5.8238,5.8302,5.881,5.9004,5.9004,5.9004,5.9285,5.9653,5.8966,5.9147,5.9598,0.0,0.0,0.0,0.0,0.0,0.0,0.0,0.0,0.0,0.0,0.0,0.0,0.0,0.0,0.0,0.0,0.0,3.4344,3.4418,3.7724,3.9666,3.9667,4.1496,4.244,4.2275,4.2635,4.2717,4.2454,4.2842,4.3054,4.3084,4.3466,4.3699,4.385,4.4175,4.4571,4.4972,4.4434,4.4157,4.4005,4.2793,4.1759,4.0812,3.9581,3.8524,0.0,3.6567,3.5597,3.4909,3.5499,3.5768,3.5907,3.6224,3.6187,3.6104,3.6605,3.7603,3.9064,4.1253,4.2839,4.4432,4.6715,4.767,4.835,4.9515,5.0658,5.1411,5.132,5.1101,5.0964,5.098,5.1245,5.172,5.2554,5.386,5.5219,5.6663,5.6252,5.6135,5.6992,5.6942,5.6902,0.0,0.0,0.0,5.8203,5.8228,5.83,5.8645,5.8677,5.8772,5.9025,5.9025,5.9025,5.9025,5.9118,5.8919,5.8453,5.8124,5.8037,5.8141,5.8498,5.859,5.8517,5.9133,5.9241,5.9047,5.95,5.9856,6.0105,6.0161,6.0521,6.0957,6.0597,6.1028,6.1456,0.0,0.0,0.0,0.0,0.0,0.0,0.0,0.0,0.0,0.0,0.0,0.0,0.0,0.0,0.0,0.0,0.0,0.0,3.4185,3.61,3.7431,3.792,3.8791,3.9269,3.9288,3.9534,3.9612,3.9488,4.0314,4.0833,4.1101,4.2143,4.2792,4.3221,4.4032,4.439,4.439,4.4438,4.3595,4.2274,4.1527,4.0037,3.8195,3.8251,3.6896,3.5072,3.5847,3.525,3.4205,3.4893,3.4943,3.4697,3.5006,3.562,3.6551,3.8409,3.9472,4.0638,4.3292,4.4983,4.6292,4.7781,4.9141,5.0339,5.1051,5.161,5.2073,5.2465,5.2009,5.1359,5.0917,5.1579,5.2127,5.1986,5.3229,5.4703,5.6094,5.5693,5.5689,0.0,0.0,0.0,0.0,0.0,0.0,5.8361,0.0,5.8389,5.927,5.9325,5.9633,6.0265,6.0321,6.0321,6.0321,6.0614,6.0732,6.0732,6.0967,6.1116,6.114,6.1593,6.1443,6.085,6.085,6.0461,5.9792,5.9792,6.0235,6.0872,6.1052,6.1719,6.2573,6.2595,6.3012,6.3251,0.0,0.0,0.0,0.0,0.0,0.0,0.0,0.0,0.0,0.0,0.0,0.0,0.0,0.0,0.0,0.0,0.0,0.0,3.3073,3.5143,3.6522,3.6999,3.8487,3.9221,3.8999,3.9269,3.9349,3.9188,3.9427,3.9566,3.9627,3.9811,3.999,4.0202,4.0441,4.0521,4.0535,4.0633,4.0406,3.9894,3.9281,3.8679,3.8083,3.7007,3.6245,3.569,3.5361,3.528,3.5382,3.5547,3.6189,3.6967,3.7496,3.8218,3.9116,4.0478,4.2219,4.391,4.5032,4.6715,4.849,4.9779,5.0354,5.0767,5.1372,5.2138,5.2375,5.1155,5.0428,4.977,4.8839,4.9686,5.0765,5.158,5.3911,0.0,5.7287,5.7488,0.0,5.7912,0.0,5.8022,5.8647,5.8538,0.0,0.0,5.927,5.9184,5.9702,5.9925,6.0107,6.0297,6.0487,6.0614,6.0614,6.0842,6.0982,6.0982,6.1084,6.1201,6.1386,6.1501,6.1565,6.1562,6.1562,6.1433,6.1271,6.1271,6.1368,6.1562,6.1598,6.1885,6.2328,6.2528,6.2815,6.2934,0.0,0.0,0.0,0.0,0.0,0.0,0.0,0.0,0.0,0.0,0.0,0.0,0.0,0.0,0.0,0.0,0.0,0.0,0.0,3.3776,3.4476,3.5004,3.5658,3.5933,3.5779,3.606,3.6161,3.606,3.6439,3.6755,3.6986,3.7315,3.7807,3.8444,3.8511,3.8743,3.9094,3.9161,3.8811,0.0,0.0,3.7321,3.6671,3.5843,3.5711,3.5943,3.5545,3.6335,3.7603,3.7491,3.7975,3.8757,3.965,4.046,4.1416,4.2988,4.4561,4.6119,4.7331,4.8576,4.9766,5.098,5.107,5.0916,5.1108,5.1505,5.1357,4.9738,4.912,4.8572,4.7586,4.8852,5.0224,5.076,5.3354,5.5828,5.7365,5.7709,5.8171,0.0,5.9183,0.0,5.9696,5.9586,5.9822,0.0,5.9996,5.9909,6.0498,6.0795,6.1018,6.1213,6.1607,6.1846,6.1965,6.2012,6.2083,6.2201,6.2201,6.2272,6.2412,6.2538,6.2483,6.2275,0.0,6.2113,6.1821,6.1821,6.1983,6.2298,6.2503,6.288,6.3332,6.3691,6.3892,6.3958,0.0,0.0,0.0,0.0,0.0,0.0,0.0,0.0,0.0,0.0,0.0,0.0,0.0,0.0,0.0,0.0,0.0,0.0,0.0,0.0,3.211,3.27,3.212,3.1798,3.1774,3.1998,3.2127,3.2127,3.2872,3.3469,3.3965,3.4811,3.5791,3.6841,3.7052,3.7525,3.817,3.8282,3.7655,3.6609,3.6721,3.6005,3.4859,0.0,3.5298,3.598,3.6146,3.7762,3.9799,4.0051,4.0228,4.0515,4.177,4.268,4.3685,4.5646,4.6696,4.7664,4.9544,5.0172,5.055,5.1566,5.1443,5.0968,5.0474,5.0351,4.982,4.8211,4.7938,4.7704,4.684,4.8453,4.995,5.0113,5.2376,5.4871,5.71,5.7439,5.8156,6.0076,6.0297,6.0329,6.0423,6.0518,6.0769,6.1298,6.0865,6.0868,6.1449,6.1843,6.2146,6.2488,6.3106,6.3493,6.366,6.3421,6.3421,6.366,6.366,6.366,6.3684,6.3873,6.3667,6.3052,0.0,0.0,6.2113,6.2113,6.2469,6.3098,6.3525,6.4067,6.4725,6.5179,6.5358,6.5381,0.0,0.0,0.0,0.0,0.0,0.0,0.0,0.0,0.0,0.0,2.9058,2.9306,0.0,0.0,0.0,0.0,0.0,0.0,0.0,0.0,0.0,3.1803,3.1802,3.175,3.163,3.1678,3.1702,3.1702,3.1855,3.1983,3.2088,3.2844,3.3066,3.285,3.3542,3.3628,3.3266,3.4067,3.425,3.411,3.4701,3.4861,3.4715,3.4606,0.0,0.0,3.6986,3.8081,3.9378,4.2032,4.2941,4.3248,4.4642,4.5464,4.6265,4.794,4.8711,4.9184,4.9724,5.0595,5.1364,5.1391,5.1726,5.1538,4.9614,4.9755,4.9527,4.6769,4.6797,4.6993,4.6126,4.7232,4.8944,5.0973,5.2881,5.5153,5.8161,5.8798,5.9286,6.017,6.0297,6.0518,6.115,6.1719,0.0,0.0,0.0,6.318,6.1965,6.2719,6.3168,6.3059,6.3974,6.4296,6.3953,6.3873,6.3873,6.3953,6.3953,6.3953,6.392,6.4,6.3935,6.3829,0.0,0.0,6.3612,6.3612,6.3676,6.3853,6.4068,6.4249,6.4449,6.4963,6.5144,6.5113,0.0,0.0,0.0,0.0,0.0,0.0,0.0,0.0,2.6989,2.8189,2.8262,2.857,2.943,2.9731,0.0,0.0,0.0,0.0,0.0,0.0,0.0,0.0,3.0446,3.022,3.0148,3.0236,3.0295,3.0295,0.0,3.0526,3.0514,3.089,3.1085,3.1177,3.1589,3.1857,3.2031,3.2836,3.3249,3.3469,3.4129,3.4436,3.4517,0.0,0.0,0.0,3.7578,3.8608,3.9862,4.1671,4.3298,4.4827,4.6612,4.7602,4.8253,4.902,4.9633,5.0096,5.021,5.0634,5.1106,5.124,5.1296,5.0632,4.8345,4.8447,4.82,4.5322,4.5539,4.6184,4.5837,4.6868,4.8418,5.0414,5.2492,5.498,5.8121,5.9192,6.009,6.1252,6.1379,6.1687,6.2414,6.2793,0.0,0.0,0.0,6.4544,6.335,6.3539,6.362,6.3397,6.3886,6.4247,6.4518,6.4162,6.4162,6.4518,6.4162,6.3953,6.3802,6.3953,6.3897,6.3802,0.0,0.0,6.4,6.4,6.4062,6.4202,6.4426,6.4587,6.4748,6.5111,6.5279,6.5236,0.0,0.0,0.0,0.0,0.0,0.0,0.0,2.6135,2.6555,2.7814,2.7904,2.8162,2.9028,2.9564,2.9899,0.0,0.0,0.0,0.0,0.0,0.0,0.0,0.0,0.0,0.0,0.0,0.0,2.9033,2.9264,0.0,0.0,0.0,0.0,0.0,3.0479,3.0876,3.1481,3.2293,3.2793,0.0,0.0,3.4273,0.0,0.0,0.0,0.0,0.0,3.8725,3.988,4.0815,4.2602,4.4817,4.7094,4.8387,4.9145,4.9271,4.9694,5.0223,5.0561,5.0677,5.0765,5.1069,5.0803,4.9787,4.7188,4.7277,4.7087,4.424,4.4634,4.5549,4.5659,4.6573,4.7854,4.9501,5.1706,5.4354,5.774,5.9136,6.0442,6.2207,6.2421,0.0,6.3451,6.364,0.0,0.0,0.0,0.0,6.4784,6.4551,6.4289,6.3967,6.4087,6.4392,6.5004,6.4324,6.4259,6.4777,6.4259,6.3873,6.3707,6.3897,6.3873,6.3707,0.0,0.0,0.0,6.4038,6.4179,6.4323,6.4656,6.4885,6.5122,6.5314,6.5403,6.5425,0.0,0.0,0.0,0.0,0.0,0.0,0.0,2.6161,2.6725,2.7469,2.8014,2.8355,2.8465,2.8762,2.8924,0.0,0.0,0.0,0.0,0.0,0.0,0.0,0.0,0.0,0.0,0.0,0.0,2.883,2.8897,0.0,0.0,0.0,0.0,0.0,0.0,3.0076,2.9633,3.109,0.0,0.0,0.0,0.0,0.0,0.0,0.0,0.0,0.0,3.766,3.8274,4.0544,4.1436,4.2145,4.4899,4.6773,4.8054,4.848,4.8675,4.9111,5.0492,5.092,5.09,5.072,5.079,5.0034,4.6645,4.6929,4.705,4.4032,4.4526,4.5457,4.5309,4.5834,4.6989,4.9028,5.058,5.3018,5.7329,5.8609,5.9907,6.2144,6.2421,6.2674,6.3451,6.4058,0.0,0.0,0.0,0.0,0.0,6.5925,6.5877,6.5166,6.561,6.5562,6.5004,6.4324,6.4032,6.4065,6.4032,6.4,6.3944,6.4,6.4,6.3944,0.0,0.0,0.0,6.4193,6.4286,6.4356,6.4872,6.5076,6.5122,6.5314,6.5403,6.547,0.0,0.0,0.0,0.0,0.0,0.0,0.0,2.5817,2.63,2.7395,2.7635,2.7713,2.7784,2.7831,2.7878,0.0,0.0,0.0,0.0,0.0,0.0,0.0,0.0,0.0,0.0,0.0,0.0,2.87,2.8775,0.0,0.0,0.0,0.0,0.0,0.0,2.9378,2.9258,3.0659,0.0,0.0,0.0,0.0,0.0,0.0,0.0,0.0,0.0,0.0,3.6911,3.8496,3.9992,4.1281,4.1883,4.3649,4.5759,4.741,4.7844,4.8106,4.9564,4.9961,4.9981,5.0001,4.9453,4.8355,4.626,4.6216,4.6021,4.3857,4.4418,4.5278,4.5204,4.5652,4.6473,4.7805,4.976,5.2137,5.5023,5.6994,5.8788,6.0669,6.1407,6.2182,0.0,0.0,0.0,0.0,0.0,0.0,0.0,6.6281,6.582,6.4668,6.5158,6.5295,6.5004,6.4324,6.4194,6.4583,6.4194,6.3929,6.3755,6.3953,6.3897,6.3779,0.0,0.0,0.0,6.4263,6.4495,6.4803,6.5008,6.5167,6.5291,6.5537,6.5537,6.5492,0.0,0.0,0.0,0.0,0.0,2.4751,2.5466,2.5484,2.5852,2.7082,2.7065,2.7022,2.7353,2.7106,2.6949,2.7042,0.0,0.0,0.0,0.0,0.0,0.0,0.0,0.0,0.0,0.0,0.0,0.0,0.0,2.8747,0.0,0.0,2.8794,2.8806,0.0,0.0,0.0,0.0,0.0,0.0,0.0,0.0,0.0,0.0,0.0,0.0,0.0,0.0,0.0,0.0,0.0,3.9868,3.9706,4.0938,4.2937,4.5497,4.6528,4.7185,4.8544,4.9114,4.9362,4.9642,4.8576,4.7157,4.5992,4.5664,4.5182,4.3625,4.4273,4.5154,4.5297,4.5742,4.6385,4.7204,4.9161,5.1353,5.3408,5.5385,5.7301,5.908,5.9924,6.0917,0.0,6.3464,0.0,0.0,0.0,0.0,0.0,6.6528,6.6103,6.5187,6.5182,6.5255,6.5327,6.4421,6.4227,6.4712,6.4421,6.4067,6.3731,6.4123,6.4067,0.0,0.0,0.0,0.0,6.4472,6.4781,6.5099,6.5167,6.5269,6.5425,6.5603,6.5559,6.547,0.0,0.0,0.0,0.0,0.0,0.0,0.0,2.5247,2.5501,2.6318,2.629,2.6501,2.7322,2.6688,2.6222,2.6222,0.0,0.0,0.0,0.0,0.0,0.0,0.0,0.0,0.0,0.0,0.0,0.0,0.0,0.0,0.0,0.0,2.8794,2.8794,0.0,0.0,0.0,0.0,0.0,0.0,0.0,0.0,0.0,0.0,0.0,0.0,0.0,0.0,0.0,0.0,0.0,0.0,0.0,3.9198,3.9612,4.2408,4.4514,4.6226,4.7621,4.8651,4.9406,4.9874,4.8631,4.6997,4.5789,4.5352,4.4786,4.3395,4.406,4.5053,4.5522,4.613,4.6819,4.7496,4.8789,5.0613,5.3159,5.4108,5.5363,5.7651,5.7926,5.8743,6.0816,6.3804,0.0,0.0,0.0,0.0,0.0,6.6849,6.7104,6.7356,6.6295,6.5803,6.6096,6.468,6.4,6.4,6.468,6.4647,6.4,6.468,0.0,0.0,0.0,0.0,0.0,6.4872,6.5076,6.5122,6.5314,6.5403,6.5403,6.5403,6.5403,6.5448,0.0,0.0,0.0,0.0,0.0,0.0,0.0,2.4466,2.4646,2.536,2.5418,2.5468,2.5715,2.554,2.5183,2.4726,0.0,0.0,0.0,0.0,0.0,0.0,0.0,0.0,0.0,0.0,0.0,0.0,0.0,0.0,0.0,0.0,0.0,0.0,2.8448,0.0,0.0,0.0,0.0,0.0,0.0,0.0,0.0,0.0,0.0,0.0,0.0,0.0,0.0,0.0,0.0,0.0,0.0,0.0,0.0,3.983,4.1619,4.357,4.5072,4.5672,4.5973,4.6416,4.5365,4.4184,4.3979,4.3372,4.2887,4.29,4.3377,4.3997,4.4615,4.5638,4.6445,4.668,4.8398,5.0024,5.0961,5.2909,5.4827,5.6482,5.8892,6.0939,0.0,0.0,0.0,0.0,0.0,0.0,0.0,6.6665,6.6705,6.6658,6.652,6.6344,6.6096,6.5165,6.468,6.468,6.4421,6.4194,6.4,6.4227,0.0,0.0,0.0,0.0,0.0,6.5031,6.5189,6.5314,6.5381,6.5403,6.5425,6.5603,6.5891,6.6199,0.0,0.0,0.0,0.0,0.0,0.0,0.0,2.4035,2.4102,2.457,2.4568,2.4648,2.4976,2.4719,2.4485,2.4334,0.0,0.0,0.0,0.0,0.0,0.0,0.0,0.0,0.0,0.0,0.0,0.0,0.0,0.0,0.0,0.0,0.0,0.0,0.0,0.0,0.0,0.0,0.0,0.0,0.0,0.0,3.1912,0.0,0.0,0.0,0.0,0.0,0.0,0.0,0.0,0.0,0.0,0.0,0.0,0.0,3.9721,4.1166,4.2959,4.3804,4.4266,4.4591,4.3575,4.2589,4.2895,4.2208,4.163,4.2132,4.2726,4.3377,4.4048,4.5085,4.5929,4.6253,4.7691,4.9158,5.0214,5.2085,5.4016,5.5883,5.8909,0.0,0.0,0.0,0.0,0.0,0.0,0.0,0.0,0.0,6.6456,6.5803,6.6337,6.6549,6.637,6.5441,6.5004,6.5004,6.4583,6.4227,6.4,0.0,0.0,0.0,0.0,0.0,0.0,6.5189,6.5269,6.5403,6.5403,6.5403,6.5425,6.5581,6.5835,6.611,0.0,0.0,0.0,0.0,0.0,0.0,0.0,0.0,0.0,2.3961,2.3887,2.4077,2.4821,2.4249,2.4034,0.0,0.0,0.0,0.0,0.0,0.0,0.0,0.0,0.0,0.0,0.0,0.0,0.0,2.72,2.753,2.756,0.0,0.0,0.0,0.0,0.0,0.0,0.0,0.0,0.0,0.0,0.0,0.0,0.0,0.0,0.0,0.0,0.0,0.0,0.0,0.0,0.0,0.0,0.0,0.0,0.0,0.0,0.0,0.0,4.2633,4.3711,4.3892,4.2863,4.1973,4.2327,4.1619,0.0,4.1234,4.2095,4.3058,4.3756,4.4473,4.5201,4.604,4.6753,4.808,5.0501,5.171,5.329,5.5829,5.8263,0.0,0.0,0.0,0.0,0.0,0.0,0.0,0.0,0.0,6.6242,6.4938,6.5765,6.6394,6.6703,6.5594,6.5004,6.5004,6.4939,6.4583,6.4,0.0,0.0,0.0,0.0,0.0,0.0,6.5314,6.5403,6.5403,6.5403,6.5403,6.5403,6.5403,6.5436,6.5469,0.0,0.0,0.0,0.0,0.0,0.0,0.0,0.0,0.0,0.0,2.376,2.382,2.3917,2.384,2.382,0.0,0.0,0.0,0.0,0.0,0.0,0.0,0.0,0.0,0.0,0.0,0.0,2.6431,2.6609,2.6899,2.7297,2.7335,0.0,0.0,0.0,0.0,0.0,0.0,0.0,0.0,0.0,0.0,0.0,0.0,0.0,0.0,3.2947,3.3654,0.0,0.0,0.0,0.0,0.0,0.0,0.0,0.0,3.7139,3.7304,3.8096,0.0,4.0456,4.0302,4.0368,4.0484,0.0,4.0309,4.0232,4.0927,4.1024,4.1441,4.2768,4.3542,4.4226,4.4951,4.5779,4.7047,4.9173,5.2864,5.5688,5.655,5.9111,6.0662,0.0,0.0,0.0,0.0,0.0,0.0,0.0,0.0,6.5256,6.4906,6.5518,6.5888,6.5955,6.5304,6.5004,6.5004,6.4486,6.4129,6.4024,6.4341,0.0,0.0,0.0,0.0,6.5336,6.5381,6.5403,6.5403,6.5403,6.5403,6.5403,6.5403,6.5767,6.6231,0.0,0.0,0.0,0.0,0.0,0.0,0.0,0.0,0.0,0.0,0.0,0.0,0.0,0.0,0.0,0.0,0.0,0.0,0.0,0.0,0.0,0.0,0.0,0.0,0.0,0.0,0.0,0.0,0.0,2.6254,0.0,0.0,0.0,0.0,0.0,0.0,0.0,0.0,0.0,0.0,3.1083,0.0,0.0,0.0,0.0,0.0,3.2642,3.327,0.0,3.4393,3.4563,3.468,0.0,0.0,0.0,0.0,3.6529,3.6594,3.6613,3.7699,3.8853,3.8879,3.9302,3.9762,3.9821,3.9696,3.9679,4.0179,4.0574,4.1093,4.1956,4.3147,4.4008,4.4218,4.5646,4.7607,5.0161,5.3368,5.5912,5.7131,5.9043,6.0493,0.0,0.0,0.0,0.0,0.0,0.0,0.0,0.0,6.4796,6.4158,6.4939,6.5481,6.5705,6.5239,6.5004,6.5004,6.441,6.4156,6.4156,6.4379,0.0,0.0,0.0,0.0,6.5403,6.5403,6.5403,6.5403,6.5403,6.5403,6.5403,6.5403,6.5635,6.5999,0.0,0.0,0.0,0.0,0.0,0.0,0.0,0.0,0.0,0.0,0.0,0.0,0.0,0.0,0.0,0.0,0.0,0.0,0.0,0.0,0.0,0.0,0.0,0.0,0.0,0.0,0.0,0.0,0.0,0.0,0.0,0.0,0.0,0.0,0.0,0.0,0.0,0.0,0.0,0.0,3.0572,0.0,0.0,0.0,0.0,0.0,0.0,0.0,0.0,3.4001,3.4366,3.4499,3.5137,0.0,0.0,0.0,0.0,0.0,3.5974,3.7025,3.8251,3.8459,3.8947,3.9427,3.9625,3.9517,3.9391,3.9391,4.0307,4.1194,4.1493,4.2821,4.3868,4.3987,4.6207,4.89,5.1781,5.3589,5.5326,5.7334,5.8542,0.0,0.0,0.0,0.0,0.0,0.0,0.0,0.0,0.0,0.0,6.3308,6.4312,6.5037,6.5464,6.5069,6.4842,6.4842,6.4486,6.431,6.43,6.4633,0.0,0.0,0.0,0.0,6.5403,6.5403,6.5403,6.5403,6.5403,6.5403,6.5403,6.5381,6.5381,6.5403,0.0,0.0,0.0,0.0,0.0,0.0,0.0,0.0,0.0,0.0,0.0,0.0,0.0,0.0,0.0,0.0,0.0,0.0,0.0,0.0,0.0,0.0,0.0,0.0,0.0,0.0,0.0,0.0,0.0,0.0,2.634,2.6472,2.6644,0.0,0.0,0.0,0.0,0.0,0.0,0.0,0.0,0.0,0.0,0.0,0.0,0.0,0.0,0.0,0.0,3.4138,3.4247,3.4482,3.4998,0.0,0.0,0.0,0.0,0.0,3.5739,3.7025,3.8096,3.7704,3.8529,3.9391,3.9427,3.9409,3.9391,3.9391,3.9571,4.0217,4.1912,4.2032,4.2618,4.5001,4.7593,4.9846,0.0,0.0,5.5723,5.6519,0.0,0.0,0.0,0.0,0.0,0.0,0.0,0.0,0.0,0.0,0.0,6.3564,6.3923,6.4194,6.4276,6.4194,6.4129,6.4129,6.4258,6.431,6.4333,6.4826,6.5054,0.0,0.0,6.5381,6.5403,6.5403,6.5403,6.5403,6.5403,6.5403,6.5381,6.5212,6.5246,6.5403,0.0,0.0,0.0,0.0,0.0,0.0,0.0,0.0,0.0,0.0,0.0,0.0,0.0,0.0,0.0,0.0,0.0,0.0,0.0,0.0,0.0,0.0,0.0,0.0,0.0,0.0,0.0,0.0,0.0,2.5594,2.6206,2.6498,2.6712,2.682,0.0,0.0,0.0,0.0,0.0,0.0,0.0,0.0,0.0,0.0,0.0,0.0,0.0,0.0,0.0,0.0,3.4054,3.4168,3.4473,0.0,0.0,0.0,0.0,0.0,3.5714,3.6573,3.7468,3.8267,3.9499,4.0542,4.0763,4.0653,4.0524,4.0604,4.0923,4.1584,4.2866,4.3836,4.5424,4.8399,0.0,5.02,5.2362,5.3441,5.4643,0.0,0.0,0.0,0.0,0.0,0.0,0.0,0.0,0.0,0.0,0.0,0.0,0.0,6.3953,6.4,6.4,6.3603,6.3673,6.4146,6.4402,6.4587,6.4725,6.5089,6.5246,6.5279,0.0,6.5403,6.5403,6.5403,6.5403,6.5403,6.5403,6.5403,6.5381,6.5167,6.5234,6.5381,0.0,0.0,0.0,0.0,0.0,0.0,0.0,0.0,0.0,0.0,0.0,0.0,0.0,0.0,0.0,0.0,0.0,0.0,0.0,0.0,0.0,0.0,0.0,0.0,0.0,0.0,2.4753,2.5364,2.513,2.5369,2.6125,2.65,2.6686,0.0,0.0,0.0,0.0,0.0,0.0,0.0,0.0,0.0,0.0,0.0,0.0,0.0,0.0,0.0,0.0,0.0,0.0,0.0,0.0,0.0,0.0,3.4332,3.4635,3.5049,3.5731,3.6416,3.7332,3.899,4.0038,4.0939,4.187,4.175,4.1531,4.1983,4.2541,4.3193,4.4026,4.6001,4.8329,5.0736,5.0456,5.0832,5.3447,0.0,0.0,0.0,0.0,0.0,0.0,0.0,0.0,0.0,0.0,0.0,0.0,0.0,0.0,0.0,6.3976,6.4,6.4,6.3487,6.3594,6.4277,6.4391,6.4675,6.5099,6.5314,6.5403,6.5403,6.5403,6.5403,6.5403,6.5403,6.5403,6.5403,6.5403,6.5381,6.5314,6.5212,6.5257,6.5269,0.0,0.0,0.0,0.0,0.0,0.0,0.0,0.0,0.0,0.0,0.0,0.0,0.0,0.0,0.0,0.0,0.0,0.0,0.0,0.0,0.0,0.0,0.0,0.0,0.0,2.4573,2.4757,2.585,2.5288,2.5369,2.6111,2.626,2.6392,2.6525,0.0,0.0,0.0,0.0,0.0,0.0,0.0,0.0,0.0,0.0,0.0,0.0,0.0,0.0,0.0,0.0,0.0,0.0,0.0,0.0,3.4145,3.4332,3.4635,3.5049,3.5731,3.7057,3.8439,3.9188,3.9008,3.9278,4.182,4.189,4.1733,4.294,4.3417,4.4026,4.5313,4.7521,4.9261,4.968,5.0857,5.2355,5.4249,0.0,0.0,0.0,0.0,0.0,0.0,0.0,0.0,0.0,0.0,0.0,0.0,0.0,0.0,0.0,0.0,6.4,6.4,6.4137,6.4221,6.4277,6.39,6.4183,6.5099,6.5314,6.5403,6.5403,6.5403,6.5403,6.5403,6.5403,6.5403,6.5403,6.5403,6.5269,6.5144,6.5314,6.5246,6.5122,0.0,0.0,0.0,0.0,0.0,0.0,0.0,0.0,0.0,0.0,0.0,0.0,0.0,0.0,0.0,0.0,0.0,0.0,0.0,0.0,0.0,0.0,0.0,2.5156,2.5823,2.5543,2.5523,2.577,2.5546,2.5614,2.5989,2.6125,0.0,0.0,0.0,0.0,0.0,0.0,0.0,0.0,0.0,0.0,0.0,0.0,0.0,0.0,0.0,0.0,0.0,0.0,3.3363,3.3687,3.3934,3.4059,3.4145,3.4332,3.4635,3.5049,3.5731,3.6905,3.8206,3.9176,3.9396,4.0105,4.2776,4.3102,4.3076,4.3928,4.4739,4.5768,4.7231,4.8852,5.0345,5.1698,5.2493,5.3548,0.0,0.0,0.0,0.0,0.0,0.0,0.0,0.0,0.0,0.0,0.0,0.0,0.0,0.0,0.0,0.0,0.0,6.3311,6.3311,6.295,6.3101,6.3878,6.4324,6.478,6.5291,6.5381,6.5403,6.5403,6.5403,6.5336,6.5234,6.5358,6.5314,6.5212,6.5212,6.5167,6.5054,6.4816,6.4862,6.5031,0.0,0.0,0.0,0.0,0.0,0.0,0.0,0.0,0.0,0.0,0.0,0.0,0.0,0.0,0.0,0.0,0.0,0.0,0.0,0.0,0.0,0.0,0.0,2.5211,2.5693,2.5876,2.5894,2.5688,2.5661,2.5729,2.5907,0.0,0.0,0.0,0.0,0.0,0.0,0.0,0.0,0.0,0.0,0.0,0.0,0.0,0.0,0.0,0.0,0.0,0.0,0.0,3.3124,3.3631,3.3985,3.4059,3.4077,3.4344,3.4747,3.5293,3.6094,3.7054,3.8137,3.9397,4.0076,4.1061,4.3521,4.3885,4.4017,4.5201,4.6183,4.7262,4.8696,4.9769,0.0,0.0,5.3327,0.0,0.0,0.0,0.0,0.0,0.0,0.0,0.0,0.0,0.0,0.0,0.0,0.0,0.0,0.0,0.0,0.0,0.0,0.0,6.2534,6.2207,6.2489,6.3293,6.4132,6.4608,6.473,6.473,6.473,6.473,6.473,6.463,6.4407,6.4652,6.4785,6.4893,6.5056,6.5076,6.5031,6.4587,6.4656,6.4918,0.0,0.0,0.0,0.0,0.0,0.0,0.0,0.0,0.0,0.0,0.0,0.0,0.0,0.0,0.0,0.0,0.0,0.0,0.0,0.0,0.0,0.0,0.0,2.5813,2.4836,2.5381,2.5688,2.5688,2.555,2.5619,2.5907,2.5907,0.0,0.0,0.0,0.0,0.0,0.0,0.0,0.0,2.7317,2.8158,0.0,0.0,0.0,0.0,0.0,0.0,0.0,0.0,3.2894,3.3042,3.3858,3.402,3.3968,3.4281,3.4954,3.5837,3.6912,3.7634,3.8502,4.0013,4.0924,4.1942,4.3868,4.3948,4.4318,4.6813,4.7666,4.8347,4.9495,5.0236,0.0,0.0,0.0,0.0,0.0,0.0,0.0,0.0,0.0,0.0,0.0,0.0,0.0,0.0,0.0,0.0,0.0,0.0,0.0,0.0,0.0,0.0,6.1789,6.2317,6.2595,6.2617,6.3077,6.3294,6.3294,6.3294,6.3294,6.3294,6.3294,6.3142,6.2925,6.3186,6.3758,6.4465,6.4926,6.5076,6.5054,6.4793,6.4702,6.4679,0.0,0.0,0.0,0.0,0.0,0.0,0.0,0.0,0.0,0.0,0.0,0.0,0.0,0.0,0.0,0.0,0.0,0.0,0.0,0.0,0.0,0.0,0.0,0.0,0.0,0.0,2.5356,2.5688,2.5425,2.5397,0.0,0.0,0.0,2.5673,0.0,0.0,0.0,0.0,0.0,0.0,2.8079,2.8672,0.0,0.0,0.0,0.0,0.0,0.0,0.0,0.0,0.0,0.0,3.3558,3.3934,3.431,3.4547,3.4848,3.5297,3.6247,3.7844,3.9289,3.9619,4.1441,4.3352,4.4138,4.4689,4.5585,4.7441,4.7901,4.8304,4.9252,5.0497,0.0,0.0,0.0,0.0,0.0,0.0,0.0,0.0,0.0,0.0,0.0,0.0,0.0,0.0,0.0,0.0,0.0,0.0,0.0,0.0,0.0,0.0,6.13,6.1456,6.1699,6.2026,6.165,6.2096,6.3294,6.3099,6.3034,6.3034,6.3034,6.2782,6.2461,6.3208,6.3848,6.4443,6.4712,6.4816,6.4771,6.4365,6.4286,6.4449,0.0,0.0,0.0,0.0,0.0,0.0,0.0,0.0,0.0,0.0,2.3696,2.3685,0.0,0.0,0.0,0.0,0.0,0.0,0.0,0.0,0.0,0.0,0.0,0.0,0.0,2.5131,2.5146,0.0,0.0,0.0,0.0,0.0,0.0,2.5914,0.0,2.6413,0.0,0.0,2.726,2.8192,2.8192,2.8688,2.9413,0.0,0.0,0.0,0.0,0.0,0.0,0.0,0.0,0.0,3.3339,3.3856,3.4549,3.5334,3.5646,3.6094,3.7881,3.9349,4.0569,4.1276,4.3042,4.477,4.5366,4.5918,4.6728,4.8125,4.8402,4.8791,5.0008,5.1041,0.0,0.0,0.0,0.0,0.0,0.0,0.0,0.0,0.0,0.0,0.0,0.0,0.0,0.0,0.0,0.0,0.0,0.0,0.0,0.0,0.0,0.0,6.0717,6.0772,6.099,6.1355,6.1033,6.1327,6.225,6.21,6.2078,6.2176,6.2003,6.1753,6.1545,6.2397,6.3177,6.3826,6.4139,6.4243,6.4263,6.4081,6.397,6.3942,0.0,0.0,0.0,0.0,0.0,0.0,0.0,0.0,0.0,0.0,2.3782,2.3801,0.0,0.0,0.0,0.0,0.0,0.0,0.0,0.0,0.0,0.0,0.0,0.0,0.0,0.0,0.0,0.0,0.0,0.0,0.0,0.0,2.6377,2.6911,0.0,2.7176,0.0,2.7236,2.7379,2.7884,2.7966,2.8432,2.9113,2.9129,0.0,0.0,0.0,0.0,0.0,0.0,0.0,0.0,3.3128,3.3743,3.4717,3.6281,3.6827,3.7618,4.0611,4.149,4.2016,4.4047,4.5193,4.6086,4.7117,4.7404,4.7744,4.8758,0.0,4.9648,5.1357,5.1722,0.0,0.0,0.0,0.0,0.0,0.0,0.0,0.0,0.0,0.0,0.0,0.0,0.0,0.0,0.0,0.0,0.0,0.0,0.0,0.0,0.0,0.0,6.0131,6.0226,6.0407,0.0,6.0882,6.0861,6.064,6.0685,6.0802,6.1035,6.056,6.0356,6.0443,6.1164,6.1961,6.2826,6.336,6.3566,6.3596,6.3896,6.3743,6.3463,0.0,0.0,0.0,0.0,0.0,0.0,0.0,0.0,0.0,0.0,0.0,0.0,0.0,0.0,0.0,0.0,0.0,0.0,0.0,0.0,0.0,0.0,0.0,0.0,0.0,0.0,0.0,0.0,0.0,0.0,0.0,0.0,0.0,2.6136,0.0,2.6459,2.6984,2.6894,2.7257,2.7939,2.8415,2.88,2.9129,2.9287,2.9366,0.0,0.0,0.0,0.0,0.0,0.0,0.0,3.3,3.3873,3.4739,3.5175,3.6306,3.7674,3.8981,4.097,4.2879,4.3869,4.5435,4.6921,4.7677,4.8282,4.8633,4.8675,4.9383,5.0275,5.1242,0.0,0.0,0.0,0.0,0.0,0.0,0.0,0.0,0.0,0.0,0.0,0.0,0.0,0.0,0.0,0.0,0.0,0.0,0.0,0.0,0.0,0.0,5.8905,6.0313,5.9799,5.9736,0.0,6.0204,6.0204,6.0175,6.0517,6.0654,6.0538,6.0066,6.0033,6.0443,6.099,6.1448,6.1917,6.295,6.3359,6.3434,6.3826,6.395,6.3914,0.0,0.0,0.0,0.0,0.0,0.0,0.0,0.0,0.0,0.0,0.0,0.0,0.0,0.0,0.0,0.0,0.0,0.0,0.0,0.0,0.0,0.0,0.0,0.0,0.0,0.0,0.0,0.0,0.0,0.0,0.0,0.0,0.0,2.5826,0.0,2.6613,2.7244,2.732,2.7724,2.8361,2.8673,2.8874,2.8986,2.9192,2.9271,2.9303,2.9523,0.0,0.0,0.0,0.0,0.0,0.0,0.0,3.5007,3.6021,3.693,3.806,4.0196,4.2154,4.4029,4.5655,4.6762,4.7672,4.8341,4.88,4.93,4.9808,5.0357,5.1036,5.1821,0.0,0.0,0.0,0.0,0.0,0.0,0.0,0.0,0.0,0.0,0.0,0.0,0.0,0.0,0.0,0.0,0.0,0.0,0.0,0.0,0.0,5.83,5.8486,5.9329,5.9329,5.9526,5.9993,5.9993,6.0191,6.0535,6.0795,6.0729,6.0378,6.0152,6.0131,6.0293,6.0544,6.087,6.1371,6.2,6.2248,6.2291,6.2788,6.3094,6.3411,0.0,0.0,0.0,0.0,0.0,0.0,0.0,0.0,0.0,0.0,0.0,0.0,0.0,0.0,0.0,0.0,0.0,0.0,0.0,0.0,0.0,0.0,0.0,0.0,0.0,0.0,0.0,0.0,0.0,0.0,0.0,0.0,0.0,2.5664,0.0,2.6831,2.7464,2.7623,2.804,2.8566,2.8707,2.8777,2.8794,0.0,0.0,2.9113,2.9476,2.9894,3.0355,3.0596,0.0,0.0,0.0,0.0,3.5192,3.688,3.7625,3.8577,4.151,4.3426,4.5147,4.7589,4.8168,4.8307,4.8813,4.9154,4.9711,5.0936,5.1303,5.1623,0.0,0.0,0.0,0.0,0.0,0.0,0.0,0.0,0.0,0.0,0.0,0.0,0.0,0.0,0.0,0.0,0.0,0.0,5.7579,0.0,5.7195,5.76,5.799,5.8183,5.8215,5.8847,5.9338,5.9628,5.9761,6.0258,6.1119,6.1119,6.0835,6.0399,6.0356,6.0239,6.0044,6.0044,6.0348,6.0869,6.1009,6.1042,6.1107,6.1675,6.2138,6.2649,0.0,0.0,0.0,0.0,0.0,0.0,0.0,0.0,0.0,0.0,2.3079,2.3023,0.0,0.0,0.0,0.0,0.0,0.0,0.0,0.0,0.0,0.0,0.0,0.0,0.0,0.0,0.0,0.0,0.0,0.0,2.4378,0.0,0.0,2.5457,0.0,0.0,2.652,2.6811,2.7194,2.7651,2.8351,2.8633,2.8665,0.0,0.0,0.0,0.0,2.9594,2.974,3.0961,3.1603,0.0,0.0,0.0,3.4794,3.5192,3.6969,3.8918,3.9408,4.2548,4.5998,4.7373,4.8286,4.8811,4.8686,4.9157,4.9854,0.0,5.1238,5.1854,0.0,0.0,0.0,0.0,0.0,0.0,0.0,0.0,0.0,0.0,0.0,0.0,0.0,0.0,0.0,0.0,0.0,0.0,5.7579,5.6786,5.67,5.7568,5.7676,5.7867,5.8215,5.8519,5.8492,5.8104,5.8734,5.9761,6.1119,6.1119,6.0835,6.0378,6.0217,6.0001,5.976,5.976,5.9825,5.9955,6.0603,6.083,6.0949,6.1843,6.2193,6.2403,0.0,0.0,0.0,0.0,0.0,0.0,0.0,0.0,0.0,0.0,0.0,2.2872,0.0,0.0,0.0,2.2615,2.2465,2.2358,2.2375,0.0,0.0,0.0,0.0,0.0,0.0,0.0,0.0,0.0,0.0,2.478,2.4925,2.5086,2.5218,0.0,0.0,0.0,0.0,2.6968,2.7368,2.7954,2.8303,2.8682,0.0,0.0,0.0,0.0,0.0,0.0,0.0,3.1174,3.1669,3.2098,3.3465,0.0,0.0,0.0,3.6513,3.8199,4.0427,4.3334,4.6012,4.7301,4.8173,4.8852,4.9148,4.9743,5.0451,5.1128,5.1805,5.2404,0.0,0.0,0.0,0.0,0.0,0.0,0.0,0.0,0.0,0.0,0.0,0.0,0.0,0.0,0.0,0.0,0.0,5.5575,5.6328,5.5954,5.6016,5.6567,5.6978,5.7163,5.7184,5.7712,5.7939,5.7806,5.8415,5.928,6.027,6.0145,6.0271,6.0548,6.0335,6.0152,5.9913,5.976,5.9694,5.9727,6.0073,6.0202,6.0235,6.0637,6.1388,6.2293,0.0,0.0,0.0,0.0,0.0,0.0,0.0,0.0,0.0,0.0,0.0,0.0,0.0,0.0,0.0,0.0,2.2287,2.2261,2.2463,2.2531,0.0,0.0,0.0,0.0,0.0,0.0,0.0,0.0,2.4763,2.4805,2.5128,2.5064,2.5161,0.0,2.5383,2.6025,0.0,0.0,0.0,0.0,0.0,0.0,0.0,0.0,0.0,0.0,0.0,0.0,0.0,0.0,0.0,0.0,3.3539,3.3879,0.0,0.0,0.0,3.7546,4.1106,4.3347,4.5048,4.6685,4.7609,4.8389,4.9241,4.9805,5.0359,0.0,5.1634,0.0,0.0,0.0,0.0,0.0,0.0,0.0,0.0,0.0,0.0,0.0,0.0,0.0,0.0,0.0,0.0,0.0,0.0,5.4198,5.5336,5.545,5.5604,5.5766,5.6572,5.6774,5.6402,5.7008,5.7569,5.8071,5.8434,5.9037,5.9873,5.9664,5.9917,6.0527,6.0378,6.0217,5.9979,5.9782,5.9694,5.9694,5.9694,5.9694,5.9716,5.9782,6.0693,6.1945,0.0,0.0,0.0,0.0,0.0,0.0,0.0,0.0,0.0,0.0,0.0,0.0,0.0,2.25,2.2431,2.2419,2.2159,2.2138,2.2463,2.2899,2.3445,0.0,0.0,0.0,0.0,0.0,0.0,2.482,2.4806,2.4649,2.4373,2.4939,2.5402,2.5772,2.5897,2.6254,2.6767,0.0,0.0,0.0,0.0,0.0,0.0,0.0,0.0,0.0,0.0,0.0,0.0,0.0,0.0,0.0,0.0,0.0,3.4438,0.0,0.0,0.0,3.9944,4.1343,4.2674,4.5091,4.636,4.7274,4.8399,4.8676,4.8943,4.9651,4.9974,0.0,0.0,0.0,0.0,0.0,0.0,0.0,0.0,0.0,0.0,0.0,0.0,0.0,0.0,0.0,0.0,0.0,0.0,5.4198,5.5336,5.5645,5.5799,5.5819,5.6874,5.7126,5.6421,5.6649,5.7442,5.8833,5.8698,5.9301,6.063,6.0419,6.0292,6.0131,6.0131,5.9979,5.9716,5.9716,5.9694,5.9694,5.9694,5.9694,5.9738,6.0001,6.0554,6.1293,0.0,0.0,0.0,0.0,0.0,0.0,0.0,0.0,0.0,0.0,0.0,0.0,0.0,2.2489,2.2385,2.2263,2.2018,2.2187,2.2885,2.3236,2.3768,2.4625,0.0,0.0,0.0,2.5018,2.499,2.4948,2.4763,2.4792,2.5019,2.5417,2.5871,2.6389,2.6437,2.6735,2.7236,2.7351,0.0,0.0,0.0,0.0,0.0,0.0,0.0,0.0,0.0,0.0,0.0,0.0,0.0,0.0,0.0,0.0,0.0,3.4998,3.602,3.7105,3.8524,4.0165,4.184,4.3162,4.4799,4.6301,4.7147,4.7968,4.882,4.9549,5.019,0.0,0.0,0.0,0.0,0.0,0.0,0.0,0.0,0.0,0.0,0.0,0.0,0.0,0.0,0.0,0.0,0.0,0.0,0.0,5.4009,5.4702,5.5161,5.528,5.6264,5.6744,5.6583,5.6661,5.6964,5.7475,5.7278,5.7626,5.8384,5.8668,5.8926,5.9145,5.9653,5.9782,5.9694,5.9694,5.9694,5.9694,5.9694,5.9694,5.9716,5.9804,6.0302,6.0951,0.0,0.0,0.0,0.0,0.0,0.0,0.0,0.0,0.0,0.0,0.0,0.0,0.0,0.0,2.2336,2.2384,2.2241,2.2548,2.3431,2.3725,2.4203,2.4964,2.5118,0.0,0.0,2.5018,2.5018,2.5018,2.4734,2.487,2.5412,2.566,2.6138,2.6719,2.6886,2.7183,0.0,0.0,0.0,2.7828,0.0,0.0,3.094,0.0,0.0,0.0,0.0,0.0,0.0,0.0,0.0,0.0,0.0,0.0,0.0,0.0,0.0,3.6567,3.7414,3.8916,4.0484,4.1668,4.3235,4.4803,4.5988,4.7187,4.8224,4.8871,4.9822,0.0,0.0,0.0,0.0,0.0,0.0,0.0,0.0,0.0,0.0,0.0,0.0,0.0,0.0,0.0,0.0,0.0,0.0,0.0,5.3331,5.4281,5.5025,5.5547,5.5946,5.6313,5.6699,5.6622,5.6715,5.698,5.6652,5.6847,5.7372,5.7655,5.8084,5.8637,5.9112,5.9468,5.9694,5.9694,5.9694,5.9694,5.9694,5.9694,5.9694,5.9694,6.017,6.0785,0.0,0.0,0.0,0.0,0.0,0.0,0.0,0.0,0.0,0.0,0.0,0.0,0.0,0.0,0.0,2.2702,2.2856,2.327,2.4055,2.4421,2.4737,2.4978,2.5118,0.0,0.0,2.5018,2.5018,2.5018,2.4749,2.487,2.5412,2.5686,2.6138,2.6703,2.7245,2.749,2.749,0.0,2.749,2.7644,0.0,3.0237,3.0895,0.0,0.0,0.0,3.4075,3.459,0.0,0.0,0.0,0.0,0.0,0.0,0.0,0.0,0.0,0.0,0.0,0.0,0.0,4.0624,4.1686,4.2781,4.4964,4.6144,4.6903,4.7475,4.8589,0.0,0.0,0.0,0.0,0.0,0.0,0.0,0.0,0.0,0.0,0.0,0.0,0.0,0.0,0.0,0.0,0.0,0.0,5.2145,5.346,5.4449,5.5514,5.6647,5.5998,5.5965,5.6699,5.6486,5.6751,5.7456,5.698,5.7134,5.7818,5.7641,5.7935,5.8572,5.8572,5.9015,5.9694,5.9694,5.9694,5.9694,5.9694,5.9694,5.9694,5.9694,6.017,6.0753,0.0,0.0,0.0,0.0,0.0,0.0,0.0,0.0,0.0,0.0,0.0,0.0,0.0,0.0,0.0,2.3365,2.3365,2.3647,2.4204,2.434,2.4614,2.5105,2.5174,2.5132,2.5018,2.5018,2.5018,2.5018,2.4834,0.0,0.0,0.0,0.0,0.0,2.7245,2.749,2.749,2.749,0.0,2.7871,2.9741,3.0637,0.0,0.0,0.0,0.0,0.0,3.4836,0.0,0.0,3.5967,3.5161,0.0,0.0,0.0,0.0,0.0,0.0,3.5829,0.0,0.0,0.0,0.0,0.0,4.2319,4.3254,4.4382,4.6469,4.7294,4.7986,0.0,0.0,0.0,0.0,0.0,0.0,0.0,0.0,0.0,0.0,0.0,0.0,0.0,0.0,0.0,0.0,5.0787,5.1173,5.1826,5.3493,5.4891,5.5866,5.6216,5.6481,5.6699,5.6486,5.652,5.6718,5.6281,5.6177,5.6385,5.6679,5.7191,5.7871,5.7871,5.8583,5.9694,5.9694,5.9694,5.9694,5.9694,5.9694,5.9694,5.9694,5.9824,6.0008,0.0,0.0,0.0,0.0,0.0,0.0,0.0,0.0,0.0,0.0,0.0,0.0,0.0,0.0,0.0,0.0,2.3977,2.4145,2.4559,2.4723,2.4902,2.5118,2.516,2.5132,2.5018,2.5018,2.5127,2.5371,0.0,0.0,0.0,0.0,0.0,0.0,0.0,0.0,0.0,0.0,0.0,0.0,2.9635,0.0,0.0,3.2082,3.3556,0.0,0.0,0.0,3.6605,3.7323,3.6666,0.0,0.0,0.0,0.0,0.0,0.0,0.0,0.0,0.0,0.0,0.0,0.0,0.0,4.1076,4.2043,4.3267,4.5699,4.6655,4.7325,0.0,0.0,0.0,0.0,0.0,0.0,0.0,0.0,0.0,0.0,0.0,0.0,0.0,0.0,0.0,5.0246,5.0492,5.0987,5.1866,5.2879,5.3985,5.5104,5.5256,5.5582,5.6101,5.5921,5.5949,5.6145,5.5806,5.5625,5.5625,5.5924,5.6446,5.7147,5.7147,5.7935,5.9241,5.9241,5.9403,5.9694,5.9694,5.9694,5.9694,5.9694,5.9694,5.9694,0.0,0.0,0.0,0.0,0.0,0.0,0.0,0.0,0.0,0.0,0.0,0.0,0.0,0.0,0.0,0.0,2.4584,2.471,2.4992,2.5299,0.0,2.5047,2.5104,2.5104,2.5018,2.5018,2.529,0.0,0.0,0.0,0.0,0.0,0.0,0.0,0.0,0.0,0.0,0.0,0.0,2.8086,2.9228,3.0209,0.0,0.0,3.3525,0.0,3.5541,3.6484,3.7434,3.7652,3.7357,0.0,0.0,0.0,0.0,0.0,3.5549,0.0,0.0,0.0,0.0,0.0,0.0,0.0,4.0362,4.1431,4.2558,4.4584,4.5796,4.6473,0.0,0.0,0.0,0.0,0.0,0.0,0.0,0.0,0.0,0.0,0.0,0.0,0.0,4.9394,4.9884,5.017,5.0486,5.1307,5.273,5.2623,5.3069,5.4343,5.3894,5.4099,5.5169,5.5135,5.5247,5.5538,5.5446,5.5357,5.5292,5.5357,5.5777,5.651,5.651,5.732,5.8605,5.8605,5.9047,5.9694,5.9694,5.9694,5.9716,5.9738,5.9738,5.9694,0.0,0.0,0.0,0.0,0.0,0.0,0.0,0.0,0.0,0.0,0.0,0.0,0.0,0.0,0.0,0.0,0.0,2.5093,0.0,0.0,2.5131,2.5146,2.5062,2.5047,2.5018,2.5018,2.529,2.5901,2.5872,0.0,0.0,0.0,0.0,0.0,0.0,0.0,0.0,0.0,0.0,2.9153,2.8984,0.0,3.1092,3.1801,3.3322,3.5134,3.5622,3.6021,3.6354,0.0,3.6957,3.722,0.0,0.0,0.0,0.0,0.0,0.0,0.0,0.0,0.0,0.0,0.0,0.0,3.7571,3.7972,3.8727,4.0895,4.1367,4.1904,4.3381,0.0,0.0,0.0,0.0,0.0,0.0,0.0,0.0,0.0,0.0,0.0,0.0,4.8699,4.9175,4.94,5.0612,5.1601,5.2225,5.2876,5.3316,5.3614,5.4458,5.4778,5.4411,5.5241,5.5089,5.402,5.4939,5.5118,5.4632,5.513,5.5777,5.651,5.651,5.732,5.8605,5.8605,5.9047,5.9694,5.9694,5.9694,5.9738,5.9935,5.9892,5.9814,0.0,0.0,0.0,0.0,0.0,0.0,0.0,0.0,0.0,0.0,0.0,0.0,0.0,0.0,0.0,0.0,0.0,0.0,0.0,0.0,2.5047,2.509,2.5047,2.5197,2.5582,2.5496,2.5931,2.6903,2.6828,2.7151,0.0,0.0,0.0,0.0,0.0,0.0,2.8129,0.0,2.8707,2.8996,2.939,0.0,3.2329,3.2549,3.3904,3.568,3.5994,3.6394,3.6873,3.7421,3.7368,0.0,0.0,3.6679,3.6501,0.0,3.6058,3.641,0.0,0.0,0.0,3.5508,0.0,0.0,0.0,3.7111,3.7664,3.9721,4.0033,4.0286,4.1595,0.0,0.0,0.0,0.0,0.0,0.0,0.0,0.0,0.0,0.0,0.0,0.0,4.7915,4.8675,4.9298,5.0236,5.109,5.1776,5.2397,5.2704,5.2613,5.3305,5.3607,5.3367,5.3876,5.4111,5.3993,5.4608,5.4924,5.4903,5.5227,5.5583,5.596,5.6349,5.7093,5.813,5.8464,5.9047,5.9694,5.9694,5.9694,5.9716,5.9848,5.9826,5.9803,2.3494,0.0,0.0,0.0,0.0,0.0,0.0,0.0,0.0,0.0,0.0,0.0,0.0,0.0,0.0,0.0,0.0,0.0,0.0,0.0,0.0,2.533,2.5236,2.5593,2.6505,2.6219,2.6682,2.7899,2.7783,2.794,2.8352,0.0,0.0,0.0,0.0,2.8338,2.8764,0.0,0.0,2.9285,0.0,3.1742,3.3193,3.3077,3.422,3.5902,3.627,3.6889,3.7643,3.8275,0.0,3.6791,3.7007,3.6817,0.0,0.0,0.0,0.0,0.0,0.0,0.0,0.0,0.0,3.563,0.0,0.0,0.0,3.859,3.8784,0.0,0.0,0.0,0.0,0.0,0.0,0.0,0.0,0.0,0.0,0.0,0.0,0.0,0.0,4.6754,4.7945,4.9499,4.9637,5.0204,5.1471,5.1868,5.1959,5.1813,5.2035,5.2239,5.2294,5.2549,5.3104,5.3984,5.4276,5.4697,5.5195,5.5324,5.5389,5.5454,5.6316,5.6985,5.7438,5.827,5.895,5.95,5.963,5.9694,5.9716,5.976,5.9738,5.9771,2.4129,2.4264,0.0,0.0,0.0,0.0,0.0,0.0,0.0,0.0,0.0,0.0,0.0,0.0,0.0,0.0,0.0,0.0,2.6604,0.0,0.0,0.0,2.6077,2.641,2.768,2.7048,2.7087,2.7899,2.7783,2.7988,2.8584,2.8584,0.0,0.0,2.8856,0.0,2.9012,0.0,3.0897,0.0,3.2027,3.1925,0.0,3.1811,3.3108,3.5063,3.6045,3.6792,3.729,0.0,3.7065,3.7048,0.0,3.647,3.7098,0.0,0.0,0.0,0.0,0.0,0.0,0.0,3.4783,0.0,0.0,0.0,3.5106,3.4907,0.0,0.0,0.0,0.0,0.0,0.0,0.0,0.0,0.0,0.0,0.0,0.0,0.0,0.0,0.0,0.0,4.6502,4.9794,4.8824,4.9167,5.1627,5.1813,5.1831,5.1813,5.2235,5.2169,5.1629,5.2656,5.2948,5.2462,5.379,5.4438,5.4535,5.513,5.5389,5.5486,5.6867,5.7147,5.6737,5.8044,5.8637,5.8788,5.9436,5.9694,5.9738,5.9979,5.9913,5.9858,2.4798,2.5118,0.0,0.0,0.0,0.0,0.0,0.0,0.0,0.0,0.0,0.0,0.0,0.0,0.0,0.0,0.0,2.731,0.0,0.0,0.0,0.0,0.0,0.0,0.0,2.7603,2.7752,2.8415,2.83,2.8356,2.8616,2.8616,0.0,0.0,2.9494,0.0,3.0068,0.0,3.1622,0.0,0.0,0.0,0.0,3.3001,3.431,3.5789,3.6235,3.6792,3.728,0.0,3.6925,0.0,0.0,0.0,0.0,0.0,0.0,0.0,0.0,0.0,0.0,0.0,0.0,0.0,0.0,0.0,3.3469,0.0,0.0,0.0,0.0,0.0,0.0,0.0,3.5082,0.0,0.0,0.0,0.0,0.0,0.0,0.0,0.0,0.0,0.0,0.0,0.0,4.8356,5.0859,5.0994,5.119,5.1596,5.1829,5.1736,5.1331,5.2209,5.2663,5.2675,5.3828,5.4519,5.4818,5.5198,5.5389,5.5454,5.651,5.679,5.6608,5.8011,5.8605,5.8669,5.9403,5.9694,5.9738,6.0001,6.0022,6.0033,2.5392,0.0,0.0,0.0,0.0,0.0,0.0,0.0,0.0,0.0,0.0,0.0,2.6297,2.6745,0.0,0.0,2.8486,2.8421,0.0,0.0,2.7906,0.0,0.0,0.0,0.0,0.0,2.8455,2.889,2.8745,2.8649,2.8616,2.8616,2.8834,0.0,0.0,3.0438,3.0931,0.0,3.2357,3.2114,3.2864,3.3304,3.3661,3.4421,3.536,3.6345,3.6496,3.6889,3.7327,3.7406,3.6944,0.0,3.7392,0.0,0.0,0.0,0.0,0.0,3.5284,0.0,0.0,0.0,0.0,0.0,0.0,0.0,0.0,0.0,0.0,0.0,0.0,0.0,0.0,0.0,0.0,3.3646,0.0,0.0,0.0,0.0,0.0,0.0,0.0,0.0,0.0,4.6326,4.6114,4.7005,4.9599,4.9928,5.0351,5.1081,5.1327,5.135,5.1218,5.1628,5.2262,5.3088,5.3736,5.4426,5.5196,5.5328,5.5389,5.5421,5.6187,5.651,5.6575,5.7817,5.8432,5.8637,5.9209,5.9533,5.9716,5.9913,6.0044,6.0152,2.5865,2.5522,0.0,0.0,0.0,0.0,0.0,0.0,0.0,0.0,0.0,0.0,0.0,0.0,0.0,0.0,0.0,3.0293,3.0293,0.0,2.9089,0.0,0.0,2.88,0.0,0.0,0.0,2.9097,2.8906,2.8745,2.8616,2.8616,2.8616,0.0,2.9859,3.0727,3.135,3.2359,3.3511,3.4701,3.478,3.5417,3.618,0.0,3.5566,3.6186,3.6772,0.0,0.0,3.7089,3.7137,0.0,0.0,0.0,0.0,0.0,0.0,0.0,0.0,0.0,0.0,3.4152,0.0,0.0,0.0,0.0,3.2099,0.0,0.0,0.0,0.0,0.0,0.0,0.0,0.0,0.0,0.0,0.0,0.0,0.0,0.0,0.0,0.0,0.0,0.0,4.4003,4.3645,4.4697,4.7911,4.8706,4.9386,5.0098,5.083,5.1218,5.1218,5.1043,5.1733,5.3298,5.312,5.3882,5.5389,5.5389,5.5389,5.5421,5.6187,5.651,5.6543,5.7341,5.8,5.8605,5.8637,5.9079,5.9694,5.9716,5.9892,6.0131,0.0,0.0,0.0,0.0,0.0,0.0,0.0,2.5117,0.0,0.0,0.0,0.0,0.0,2.9165,3.0055,0.0,0.0,3.1204,3.1691,3.059,0.0,0.0,0.0,2.9331,0.0,0.0,0.0,0.0,0.0,2.8922,2.8745,2.8745,2.8888,2.9241,0.0,3.1442,0.0,0.0,0.0,0.0,0.0,3.5362,3.5758,0.0,0.0,3.6544,3.6889,3.7115,0.0,3.7548,3.7391,3.7184,3.7616,3.7649,3.7463,3.7301,3.7443,0.0,0.0,0.0,3.6593,3.5175,0.0,0.0,0.0,0.0,0.0,0.0,0.0,0.0,0.0,0.0,0.0,0.0,0.0,0.0,0.0,0.0,0.0,0.0,0.0,0.0,0.0,0.0,0.0,4.2439,4.2638,4.4073,0.0,4.7545,4.8435,5.0231,4.9927,5.0154,5.0991,5.0934,5.134,5.2195,5.3226,5.3995,5.4487,5.5134,5.5389,5.5421,5.5648,5.5745,5.5863,5.7082,5.773,5.8032,5.895,5.9468,5.9716,5.9913,6.0109,6.0346,2.5936,0.0,0.0,0.0,0.0,0.0,0.0,0.0,0.0,0.0,2.7402,0.0,2.9449,0.0,3.0598,0.0,3.1712,3.1756,3.2053,3.1359,0.0,3.1195,3.047,0.0,0.0,0.0,0.0,0.0,0.0,2.9527,2.9553,2.9553,2.9696,3.0023,3.1034,3.2082,3.3142,3.4263,3.4897,0.0,0.0,3.6064,0.0,0.0,3.6671,0.0,0.0,3.7413,3.7596,3.8169,3.8111,3.7897,3.8623,3.8754,3.8557,3.8216,3.83,3.8282,3.7256,3.7225,0.0,0.0,3.531,0.0,3.2712,0.0,0.0,0.0,0.0,0.0,0.0,0.0,0.0,0.0,0.0,0.0,0.0,3.0006,0.0,0.0,0.0,0.0,0.0,0.0,3.8091,4.0784,4.1405,4.2879,0.0,0.0,4.743,4.9484,4.9213,4.9636,5.101,5.0677,5.0954,5.1829,5.3097,5.3866,5.4184,5.5004,5.5389,5.5421,5.568,5.5798,5.5895,5.7352,5.7968,5.8065,5.9263,5.9694,5.9716,5.9892,6.0152,6.042,0.0,0.0,0.0,0.0,2.5633,0.0,0.0,0.0,2.6872,0.0,2.8623,2.9236,2.9931,3.0865,3.145,3.1477,3.1983,0.0,3.1715,3.1713,0.0,0.0,3.1527,3.1601,3.219,0.0,0.0,0.0,0.0,3.0559,3.0942,3.0942,3.0942,3.0997,3.1561,3.2546,3.3781,3.4352,3.5347,3.6512,3.6945,3.7557,3.8187,3.7805,0.0,3.6344,3.7472,3.7891,3.8045,3.89,3.9208,3.9247,3.9447,3.9992,4.0343,3.9424,3.9613,3.9839,3.8579,3.8091,3.7729,3.6887,0.0,0.0,0.0,0.0,3.1838,0.0,0.0,0.0,0.0,0.0,0.0,0.0,0.0,0.0,0.0,0.0,0.0,0.0,0.0,0.0,0.0,3.508,3.646,3.8968,3.9795,4.1142,0.0,0.0,0.0,4.7879,4.8591,4.9659,5.1135,5.0268,5.0591,5.2119,5.2701,5.3462,5.4373,5.5065,5.5389,5.5421,5.6134,5.6425,5.6522,5.7957,5.854,5.8605,5.9403,5.9694,5.9694,5.9738,6.0022,6.042,2.6694,2.6947,2.7212,0.0,2.6188,2.5797,0.0,0.0,0.0,0.0,3.0677,3.1711,3.2753,3.3078,3.3393,3.3873,3.3799,0.0,0.0,0.0,0.0,3.4312,3.3322,3.3042,3.364,3.2505,0.0,3.2078,0.0,0.0,3.136,3.1509,3.1746,3.2016,3.203,3.2945,3.452,3.4583,3.5742,3.759,3.8507,3.8726,0.0,0.0,3.8131,3.7529,3.7796,3.7891,3.7977,3.8481,3.9011,3.9466,3.9826,4.0412,4.0797,4.0051,3.997,3.991,3.9108,3.8616,3.8212,3.7705,3.6816,3.5763,0.0,0.0,0.0,0.0,0.0,0.0,0.0,0.0,0.0,0.0,0.0,0.0,0.0,0.0,0.0,2.9504,0.0,0.0,3.2228,3.3576,3.5061,3.6731,3.8144,0.0,0.0,0.0,0.0,4.7119,4.7723,4.8715,5.0153,4.9936,5.029,5.1262,5.2448,5.3204,5.3609,5.4839,5.5389,5.5389,5.5451,5.5454,5.5583,5.6969,5.7549,5.77,5.9143,5.9694,5.9738,6.0076,6.0292,6.042,2.7399,0.0,0.0,2.7995,0.0,0.0,2.8138,0.0,0.0,3.0682,3.1492,0.0,3.332,3.3818,3.4254,3.4678,3.4538,0.0,0.0,0.0,0.0,3.4759,3.4355,3.4281,3.4618,3.3779,0.0,3.3318,0.0,0.0,3.2545,3.2674,3.2845,3.305,3.3201,3.3977,3.5236,3.6023,3.7217,3.8649,3.9359,0.0,0.0,3.9477,3.9208,3.891,3.8996,3.8668,3.8223,3.8777,3.9455,4.0077,4.0207,4.0799,4.1296,4.0325,4.0194,4.0247,3.9661,3.9265,3.8957,3.8638,3.8037,3.7166,3.5808,3.5039,3.4427,0.0,0.0,0.0,0.0,0.0,0.0,0.0,0.0,0.0,0.0,0.0,0.0,0.0,2.9767,0.0,3.1406,3.3003,3.4573,3.5891,0.0,0.0,0.0,0.0,0.0,4.5836,4.7071,4.8421,4.99,4.9932,5.0287,5.1029,5.2127,5.2896,5.335,5.445,5.513,5.5421,5.5518,5.5445,5.5366,5.6991,5.756,5.7538,5.9068,5.9694,5.976,6.0131,6.0313,6.0399,2.8222,0.0,0.0,0.0,0.0,0.0,0.0,2.9575,0.0,3.1693,0.0,3.2424,3.3155,3.4037,3.4651,3.4841,0.0,3.4705,3.4297,3.4827,3.4985,3.4582,3.5133,3.5479,3.5479,3.5014,0.0,0.0,0.0,0.0,3.4003,3.3968,3.3968,3.4014,3.4581,3.5232,3.6053,3.7968,3.9152,3.9745,4.0032,4.0507,4.0981,4.0515,4.0313,4.0323,4.0471,3.9768,3.8889,3.9522,4.0281,4.0865,4.0659,4.1178,4.1628,4.0438,4.0341,4.051,4.0127,3.9821,3.9625,3.9463,3.9247,3.8629,3.7043,3.6633,3.6165,3.4663,3.3671,0.0,0.0,0.0,0.0,0.0,0.0,0.0,0.0,0.0,0.0,0.0,0.0,0.0,0.0,3.2913,3.4331,0.0,0.0,0.0,0.0,0.0,0.0,0.0,4.6451,0.0,4.99,0.0,5.0436,5.1218,5.1879,5.2527,5.3188,5.4017,5.4729,5.5292,5.5829,5.5797,5.5489,5.7291,5.7861,5.773,5.9166,5.963,5.9609,5.9925,6.0195,6.0356,0.0,0.0,0.0,0.0,0.0,3.1444,3.2288,3.2722,3.3133,3.3742,3.4835,3.5534,3.5507,3.5845,3.6034,3.6073,3.623,0.0,0.0,0.0,0.0,3.6501,3.6786,3.6939,3.6939,3.6532,3.6119,0.0,0.0,0.0,3.4563,3.4395,3.4412,3.4576,3.4894,3.5863,3.7377,3.8935,0.0,4.0908,4.1634,4.2099,4.2291,4.1665,4.142,4.1361,4.091,4.0605,4.0467,4.0929,4.1265,4.1581,4.1665,4.146,4.1091,4.0674,4.0353,4.0097,4.0023,3.9714,3.9481,3.9625,3.9235,3.8738,3.8256,3.7861,3.7468,3.6838,3.5763,3.4755,3.4248,0.0,0.0,0.0,0.0,0.0,0.0,0.0,0.0,0.0,0.0,0.0,0.0,0.0,0.0,0.0,0.0,0.0,0.0,0.0,0.0,0.0,0.0,0.0,0.0,0.0,0.0,5.1218,5.1879,5.2268,5.243,5.379,5.447,5.4612,5.5067,5.5263,5.5219,5.6165,5.6968,5.773,5.9166,5.9338,5.8885,5.9534,5.9935,6.0217,0.0,0.0,0.0,0.0,0.0,0.0,0.0,3.5675,0.0,3.4627,3.506,3.5477,3.5477,3.6385,3.6928,3.6741,3.7091,3.7226,3.7035,3.7104,3.7192,3.7289,3.7413,0.0,3.7471,3.7377,3.6952,3.6143,0.0,0.0,0.0,3.4702,3.4844,3.5207,3.6257,3.735,0.0,0.0,0.0,4.1336,4.2322,4.2708,4.2679,4.2455,4.2316,4.2207,4.212,4.2109,4.2029,4.1566,4.1821,4.2285,4.1791,4.159,4.1395,4.0774,4.0383,4.0156,4.0226,4.0069,3.9857,3.9857,3.9571,3.918,3.887,3.8398,3.7765,3.6957,3.6043,3.5015,3.376,3.1906,0.0,0.0,0.0,0.0,0.0,0.0,0.0,0.0,0.0,0.0,0.0,0.0,0.0,0.0,0.0,0.0,0.0,0.0,0.0,0.0,0.0,0.0,0.0,0.0,0.0,5.0896,5.1218,5.1823,5.263,5.3341,5.4144,5.4936,5.5035,5.5155,5.531,5.6053,5.6848,5.7697,5.8723,5.8918,5.8669,5.9436,5.9782,5.9957,0.0,3.1743,0.0,0.0,3.4263,0.0,3.6249,3.7797,3.8118,3.575,3.5481,3.5558,3.5654,3.6995,3.7746,3.7428,3.7881,3.8045,3.7723,3.7724,3.785,3.8005,3.8044,3.8025,3.7882,3.8112,3.7703,0.0,0.0,0.0,0.0,0.0,0.0,0.0,0.0,0.0,0.0,0.0,4.1556,4.1812,4.2653,4.295,4.285,4.307,4.305,4.295,4.3309,4.3468,4.3357,4.2286,4.2334,4.2704,4.1839,4.1631,4.151,4.069,4.0401,4.0349,4.0436,4.0349,4.0204,4.0046,3.9803,3.9553,3.9247,3.8668,3.7825,3.6663,3.5776,3.4691,3.3056,3.182,0.0,0.0,0.0,0.0,0.0,0.0,0.0,0.0,0.0,0.0,0.0,0.0,0.0,0.0,0.0,0.0,0.0,0.0,0.0,0.0,0.0,0.0,4.8129,0.0,4.9834,0.0,5.0749,5.1487,5.2704,5.3025,5.3866,5.5113,5.5111,5.5216,5.5454,5.6187,5.6834,5.7438,5.827,5.8605,5.8669,5.9436,5.9694,5.9782,0.0,0.0,0.0,0.0,0.0,0.0,0.0,3.8198,3.892,3.8211,3.8354,3.8394,3.8183,3.8542,3.8749,3.8713,3.8932,3.9054,3.9017,3.919,3.931,3.933,3.949,3.933,3.8774,3.9131,3.8772,0.0,0.0,0.0,0.0,0.0,0.0,0.0,0.0,0.0,0.0,4.1597,4.2119,4.2852,4.2951,4.311,4.327,4.3537,4.3616,4.3636,4.3851,4.4065,4.417,4.3855,4.313,4.2359,4.2449,4.1625,4.0589,4.0362,4.0401,4.047,4.0349,4.0187,4.0028,4.0011,3.9696,3.9409,3.9373,3.8835,3.809,3.7068,3.557,3.4059,3.2621,3.3252,3.3198,0.0,0.0,0.0,0.0,0.0,0.0,0.0,0.0,0.0,0.0,0.0,0.0,0.0,0.0,0.0,0.0,0.0,0.0,4.2362,0.0,4.5593,4.7027,4.8491,0.0,5.0608,5.1209,5.1593,5.1773,5.3041,5.3836,5.418,5.4803,5.5216,5.5454,5.6187,5.6543,5.6737,5.8076,5.8605,5.8669,5.9436,5.9694,5.9782,0.0,0.0,0.0,0.0,0.0,0.0,0.0,3.9918,4.0466,4.0271,3.9455,3.8861,3.8731,3.9178,3.9345,3.9093,3.9466,3.9686,3.9579,3.9651,3.9801,4.0088,4.0167,4.0168,4.0042,3.9786,3.9309,0.0,0.0,0.0,0.0,0.0,0.0,0.0,0.0,4.083,4.1725,4.2268,4.2663,4.3021,4.3309,4.3369,4.3329,4.3596,4.3596,4.3518,4.3871,4.389,4.3762,4.4208,4.3787,4.2965,4.2432,4.1727,4.1151,4.0944,4.0668,4.0458,4.0804,4.0355,3.9821,3.9821,3.9607,3.9391,3.9391,3.8871,3.8125,3.7103,3.5575,3.4221,3.3649,3.3392,3.308,0.0,0.0,0.0,0.0,0.0,0.0,0.0,0.0,0.0,0.0,0.0,0.0,0.0,0.0,0.0,0.0,0.0,0.0,4.2188,0.0,4.6289,4.7316,4.8453,4.9411,5.0168,5.0918,5.1518,5.2104,5.3073,5.3928,5.4654,5.4819,5.5093,5.5454,5.6074,5.6406,5.664,5.8044,5.8605,5.8691,5.961,5.9848,5.9782,3.661,0.0,3.8216,0.0,3.9693,4.044,4.0723,4.1173,4.148,4.1417,4.0376,3.9651,3.9651,4.0018,4.0145,3.9864,4.0296,4.0559,4.0447,4.0518,4.0739,4.1145,4.1165,0.0,4.1086,4.0653,4.0224,3.9776,3.9157,0.0,0.0,0.0,0.0,0.0,4.126,4.1812,4.2218,4.2902,4.317,4.313,4.3458,4.3478,4.3329,4.3675,4.3675,4.3547,4.4026,4.3957,4.3762,4.4324,4.4122,4.3476,4.2719,4.204,4.1479,4.1324,4.0794,4.0314,4.0771,4.0327,3.9714,3.9714,3.9553,3.9391,3.9391,3.8871,3.8083,3.6936,3.5548,3.4551,3.4551,3.3806,3.333,0.0,0.0,0.0,0.0,0.0,0.0,0.0,3.3713,3.3837,3.4238,0.0,0.0,0.0,0.0,0.0,0.0,0.0,0.0,0.0,0.0,0.0,0.0,0.0,4.9552,5.0247,5.0943,5.174,5.2613,5.3374,5.4134,5.4906,5.4834,5.5076,5.5539,5.5799,5.6195,5.6794,5.7893,5.8432,5.8713,5.974,5.9935,5.9804,4.0071,4.0098,4.0176,4.1414,4.1673,4.1611,4.1438,4.1556,4.1619,4.1438,4.1367,4.1367,4.1367,4.1367,4.1367,4.1367,4.1577,4.1757,4.1943,4.2219,4.2465,0.0,0.0,4.2364,4.1696,4.1883,4.1771,4.1373,0.0,0.0,4.0927,0.0,0.0,4.0679,4.0496,4.1493,4.3309,4.3577,4.3537,4.329,4.329,4.329,4.3349,4.3832,4.3988,4.4046,4.4438,4.4591,4.4553,4.4362,4.399,4.3593,4.3575,4.2523,4.1288,4.1288,4.0687,4.0011,4.0011,3.9839,3.9714,3.9714,3.9553,3.9391,3.9391,3.8871,3.7981,3.6527,3.5524,3.4902,3.4902,3.4872,3.4682,3.4096,0.0,0.0,0.0,0.0,0.0,0.0,3.4005,3.4488,3.4503,0.0,0.0,0.0,0.0,0.0,0.0,0.0,0.0,4.1757,4.4877,0.0,4.6322,4.8694,5.0279,5.0994,5.167,5.2396,5.3123,5.3989,5.438,5.4433,5.4676,5.5176,5.5762,5.5299,5.5929,5.7217,5.7494,5.8032,5.8713,5.974,5.9935,5.9804,4.1116,4.1204,4.1328,4.2033,4.2187,4.225,4.2447,4.2207,4.2113,4.2455,4.2116,4.1885,4.1885,4.1585,4.1459,0.0,4.1785,4.1993,0.0,4.2494,4.2688,4.291,4.288,4.2961,4.308,4.2689,4.2541,4.269,0.0,0.0,0.0,4.2004,4.2259,4.3149,4.294,4.313,4.3577,4.3478,4.3369,4.3309,4.3498,4.3577,4.3596,4.389,4.4007,4.4046,4.4316,4.4316,4.4208,4.4419,4.4316,4.4094,4.4245,4.2892,4.1362,4.1675,4.0825,3.9894,4.0347,3.9992,3.9499,3.9499,3.9445,3.9391,3.9391,3.8811,3.8144,3.7657,3.6504,3.5566,3.5566,3.5213,3.4892,3.4833,0.0,0.0,0.0,0.0,0.0,0.0,0.0,3.5685,0.0,3.5968,0.0,0.0,0.0,0.0,0.0,0.0,0.0,0.0,4.5458,0.0,4.7657,4.951,5.0643,5.0994,5.2175,5.3123,5.3787,5.4062,5.4263,5.4412,5.4359,5.4613,5.5165,5.5452,5.622,5.7292,5.799,5.8723,5.9393,5.9903,5.9935,5.9782,4.2809,4.2896,4.2913,4.3201,4.3269,4.3345,4.3608,4.3324,4.3207,4.3587,4.3324,4.309,4.309,4.281,0.0,4.2009,4.2137,4.2363,4.2607,4.2749,4.295,4.325,4.3509,4.3698,4.3793,0.0,0.0,4.3787,4.3407,4.3284,4.3419,4.3419,4.3596,4.3918,4.3785,4.3706,4.3695,4.3665,4.3586,4.3478,4.3714,4.3812,4.3832,4.4046,4.4123,4.4143,4.4354,4.4324,4.4247,4.4515,4.4515,4.4419,4.4553,4.3444,4.2126,4.2394,4.1352,4.0167,4.0589,4.0064,3.9391,3.9391,3.9391,3.9391,3.9391,3.8829,3.8281,3.8281,3.7312,3.6501,3.6552,3.6034,3.5604,3.5736,0.0,0.0,0.0,0.0,0.0,0.0,0.0,0.0,0.0,3.6334,0.0,0.0,0.0,0.0,0.0,0.0,0.0,4.3562,4.5739,0.0,4.8292,4.9607,5.0646,5.1405,5.2807,5.3692,5.4103,5.4103,5.4189,5.4285,5.4135,5.4475,5.5102,5.5314,5.5964,5.6927,5.7935,5.8583,5.9015,5.9892,6.0001,5.9782,4.4894,4.4874,0.0,0.0,4.4706,0.0,4.4744,4.4714,4.4735,4.4744,4.4714,4.4685,4.4685,4.4706,4.415,4.2708,0.0,0.0,0.0,4.316,4.3389,4.3785,4.4378,0.0,4.4137,4.4911,4.5106,4.469,4.5049,4.4707,4.3723,4.3685,4.3592,4.3405,4.3387,4.3526,4.3754,4.4143,4.4065,4.3734,4.3949,4.4026,4.4046,4.4228,4.4305,4.4354,4.4515,4.4591,4.4591,4.4572,4.4572,4.4591,4.4572,4.4028,4.3387,4.3288,4.2051,4.0679,4.0661,4.0064,3.9391,3.9391,3.9391,3.9391,3.9391,3.8931,3.8469,3.8469,3.7943,3.7546,3.7699,3.7191,3.674,3.6682,3.6216,3.579,3.5612,0.0,0.0,0.0,0.0,0.0,0.0,3.6061,3.7251,0.0,0.0,0.0,0.0,0.0,4.218,4.3759,4.5843,4.7401,4.8335,4.9211,5.0468,5.2091,5.3439,5.4103,5.4103,5.4103,5.4103,5.4103,5.4103,5.4611,5.5388,5.4963,5.5355,5.6303,5.7456,5.7811,5.7912,5.9737,6.0109,5.9826,0.0,0.0,4.5117,4.498,4.4938,4.5023,4.5325,4.4979,4.4862,4.5333,4.4979,4.4685,4.4685,4.4832,4.4768,4.443,4.4558,4.4493,4.4077,4.485,4.5102,4.4717,4.4839,4.5017,4.5206,4.5418,4.5611,4.582,4.5397,4.5086,4.4806,4.4526,4.4401,4.4495,4.4205,4.4106,4.4162,4.4104,4.4026,4.3949,4.4162,4.4239,4.4258,4.4438,4.4515,4.4534,4.4572,4.4591,4.4572,4.44,4.4458,4.4572,4.44,4.4346,4.412,4.3309,4.194,4.0691,4.0507,3.9955,3.9391,3.9391,3.9391,3.9391,3.9391,3.9272,3.9152,3.9152,3.8631,3.817,3.8222,3.7683,3.7066,3.662,3.693,3.7027,3.6499,0.0,0.0,0.0,3.7772,3.7923,3.7257,3.8425,3.9148,0.0,0.0,0.0,0.0,0.0,4.3925,4.5834,4.6889,4.7894,4.8829,4.9687,5.1027,5.2849,5.3692,5.4103,5.4103,5.4103,5.4103,5.4103,5.4103,5.4295,5.4688,5.4772,5.5355,5.6303,5.7456,5.8221,5.8785,5.9805,6.0109,6.0022,4.6202,4.6286,4.6308,4.6232,4.6181,4.63,4.6659,4.6314,4.6139,4.6466,4.6335,4.6168,4.6041,4.6126,4.6103,4.5929,4.5546,4.5217,4.501,4.5535,4.5809,4.5744,4.6019,4.6249,4.6373,4.678,4.6866,4.667,4.6153,4.5803,4.5521,4.5098,4.4874,4.4893,4.4572,4.4412,4.4316,4.4266,4.4239,4.4162,4.4374,4.4419,4.4438,4.4553,4.4591,4.4591,4.4591,4.4534,4.4458,4.4438,4.4438,4.4427,4.407,4.4193,4.4216,4.2917,4.1959,4.1254,4.1051,4.0201,3.9391,3.9391,3.9391,3.9391,3.9391,3.9391,3.9409,3.9517,3.9253,3.9036,3.9211,3.8702,3.8111,3.7842,3.762,3.7441,3.7331,3.7428,0.0,3.795,3.8861,3.9195,3.8527,4.0025,4.0815,4.0248,0.0,0.0,4.3464,4.4714,4.585,4.6711,4.7421,4.8222,4.9128,5.0351,5.1455,5.2471,5.3586,5.4103,5.4103,5.4103,5.4167,5.4221,5.4146,5.4359,5.476,5.5259,5.5896,5.6682,5.816,5.8822,5.9099,5.9923,6.0195,6.0109,4.7352,4.7482,4.7538,4.7538,4.7581,4.7666,4.7901,4.7773,4.7666,4.7666,4.7858,4.7901,4.7688,4.7666,4.754,4.7175,4.6279,4.5823,4.5938,4.6111,4.6377,4.6797,4.7392,4.7623,4.7509,4.8267,4.8236,4.7454,4.7101,4.6617,4.6019,4.564,4.526,4.493,4.4828,4.4588,4.4343,4.4515,4.4496,4.4343,4.4515,4.4591,4.4591,4.4591,4.4591,4.4591,4.4591,4.4477,4.4343,4.4458,4.4419,4.4251,4.3641,4.386,4.4003,4.2416,4.1947,4.1879,4.1572,4.0466,3.9391,3.9391,3.9391,3.9391,3.9391,3.9391,3.9445,3.9661,3.9714,3.9851,4.0326,3.9799,3.931,3.9266,3.8366,3.7767,3.8016,0.0,3.7789,3.8459,3.9556,4.0043,3.9586,4.127,4.2217,4.1832,4.358,0.0,0.0,4.6744,4.7585,4.7308,4.7818,4.8499,4.9375,5.0881,5.1717,5.1863,5.3365,5.4124,5.4146,5.4124,5.4253,5.4454,5.4221,5.4592,5.5339,5.5949,5.6554,5.7187,5.9004,5.9413,5.9099,6.0052,6.027,6.0174,4.7538,4.743,4.7352,4.7352,4.7473,4.7602,4.7645,4.7816,4.7943,4.7943,4.7964,4.7986,4.7943,4.7943,4.7913,4.7834,4.7848,4.7627,4.7088,4.7958,4.8265,4.7809,4.8051,4.825,4.84,4.869,4.8767,4.8653,4.7876,4.7196,4.6654,4.6632,4.6105,4.5161,4.536,4.5126,4.4553,4.4572,4.4572,4.4553,4.4572,4.4591,4.4591,4.4591,4.4591,4.4591,4.4591,4.4572,4.4496,4.42,4.4316,4.4335,4.3198,4.3499,4.3964,4.2236,4.173,4.1572,4.0808,4.0026,3.9391,3.9391,3.9391,3.9391,3.9391,3.9391,3.9445,3.9661,3.9714,3.9919,4.0757,4.032,3.9699,3.9139,3.949,3.9453,0.0,0.0,4.0238,4.0944,4.1221,4.1546,4.2007,4.2507,4.3148,4.4018,4.4557,4.563,4.7375,4.7907,4.8511,4.9168,4.8748,4.8934,4.9874,5.0933,5.1831,5.2565,5.3585,5.4178,5.4348,5.4189,5.4338,5.4729,5.4454,5.4995,5.6036,5.6321,5.6867,5.763,5.9106,5.9413,5.9099,6.0052,6.0378,6.0335,4.7816,4.7837,4.7837,4.7837,4.7922,4.8007,4.8133,4.8154,4.8175,4.8175,4.826,4.8301,4.8175,4.8175,4.826,4.8541,4.8489,4.844,4.8378,4.8769,4.8943,4.8874,4.8943,4.9102,4.932,4.9367,4.9399,4.93,4.8627,4.8045,4.7596,4.6857,4.6174,4.5546,4.5217,4.4899,4.4591,4.4591,4.4591,4.4591,4.4591,4.4591,4.4591,4.4591,4.4591,4.4591,4.4591,4.4515,4.4419,4.4343,4.4362,4.4278,4.3464,4.3708,4.4003,4.246,4.1526,4.0826,4.0056,3.99,3.9948,3.9948,4.0217,4.0397,4.0019,3.9948,3.9901,3.9876,3.9857,4.0157,4.1143,4.1074,4.0878,4.0908,4.0642,0.0,0.0,4.0636,4.1079,4.2178,4.261,4.3104,4.3753,4.4136,4.4754,4.5762,4.6292,4.706,4.8122,4.8596,4.9048,4.9582,4.9552,4.9667,4.9997,5.1275,5.2131,5.2529,5.3713,5.4306,5.4412,5.4465,5.4634,5.4959,5.5101,5.5686,5.6638,5.7521,5.8176,5.8841,6.0014,6.0172,5.9813,6.0353,6.0484,6.0399,4.8344,4.8398,4.8422,4.8269,4.8281,4.8364,4.85,4.8417,4.8385,4.8385,4.8573,4.8635,4.8489,4.851,4.8676,4.9057,4.8924,4.8975,4.9372,4.927,4.9311,4.9593,4.9622,4.9753,4.9912,4.9912,4.9832,4.9673,4.9316,4.8828,4.8181,4.7204,4.6476,4.5942,4.5391,4.4999,4.4837,4.4837,4.4745,4.4591,4.4591,4.4683,4.4806,4.4652,4.4683,4.4806,4.4652,4.4496,4.4412,4.4477,4.4458,4.427,4.3641,4.386,4.4041,4.2639,4.1546,4.0628,4.0026,4.0247,4.0636,4.0636,4.1014,4.1302,4.08,4.068,4.0671,4.0557,4.0538,4.0858,4.1871,4.1925,4.2017,4.2509,0.0,0.0,0.0,4.178,4.1761,4.3055,4.38,4.4434,4.5048,4.5646,4.6307,4.7105,4.7723,4.8246,4.8571,4.909,4.9555,4.9913,5.0152,5.0341,5.0483,5.1699,5.2442,5.2694,5.3754,5.437,5.456,5.4655,5.4864,5.5207,5.5493,5.6216,5.722,5.8358,5.9222,5.9951,6.072,6.0729,6.0335,6.0548,6.0527,6.042,4.9319,4.9069,4.8757,4.8149,4.8175,4.8292,4.8343,4.8489,4.8563,4.8563,4.88,4.8955,4.8955,4.9108,4.925,4.9291,4.9452,4.9553,4.9593,4.9753,4.9773,4.9613,4.9793,4.9892,4.9912,4.9912,4.9892,4.9892,4.9848,4.9185,4.7934,4.8258,4.7625,4.6183,4.6563,4.6276,4.5545,4.5545,4.5176,4.4591,4.4591,4.496,4.5453,4.4837,4.4991,4.5453,4.4806,4.4591,4.4553,4.4362,4.4419,4.4392,4.3369,4.3632,4.4003,4.2472,4.1954,4.1782,4.1378,4.1283,4.1343,4.1343,4.1373,4.143,4.1558,4.1614,4.1677,4.2053,4.2126,4.2414,4.331,4.2959,4.254,4.2602,0.0,0.0,4.1908,4.2364,4.3086,4.4013,4.4705,4.5285,4.5761,4.6578,4.7313,4.7869,4.8122,4.8653,4.9447,4.9562,4.9976,5.0879,5.0515,5.0808,5.1847,5.1961,5.2551,5.362,5.3779,5.4253,5.5031,5.4623,5.479,5.5348,5.524,5.6148,5.7839,5.8198,5.9154,6.0376,6.0621,6.0463,6.0152,6.0368,6.0399,6.042,5.0383,4.9843,4.9478,4.9662,4.9389,4.9341,4.9889,4.9675,4.9501,4.9647,4.9377,4.9189,4.9189,4.925,4.934,4.9493,4.9573,4.9673,4.9793,4.9872,4.9872,4.9793,4.9872,4.9912,4.9912,4.9912,4.9912,4.9912,4.9469,4.8957,4.8328,4.8113,4.755,4.6807,4.706,4.6645,4.5831,4.6214,4.597,4.5268,4.5669,4.6007,4.6172,4.5946,4.5761,4.5576,4.533,4.496,4.4572,4.4496,4.4534,4.4541,4.4143,4.4235,4.4346,4.3647,4.3438,4.3381,4.3095,4.2716,4.2346,4.2242,4.262,4.2916,4.2569,4.2497,4.2451,4.2334,4.2297,4.2585,4.3433,4.339,4.3482,4.4326,0.0,4.3476,4.4236,4.4334,4.4655,4.5527,4.6254,4.6905,4.7497,4.775,4.8187,4.8934,4.9077,4.929,4.9761,5.0082,5.0636,5.1606,5.1612,5.1806,5.225,5.2838,5.3333,5.3705,5.4007,5.4507,5.5125,5.5397,5.5458,5.5454,5.6298,5.7207,5.8177,5.8719,5.9661,6.0814,6.0739,6.0527,6.0325,6.0506,6.0506,6.0442,5.148,5.0948,5.0625,5.0903,5.0532,5.042,5.1023,5.0527,5.0133,5.0268,4.9757,4.9381,4.9381,4.9472,4.9636,5.0027,5.0048,5.0088,5.0228,5.0038,4.9951,5.003,4.9951,4.9951,5.003,4.9951,4.9785,4.9596,4.911,4.8716,4.8372,4.7919,4.7678,4.7622,4.7704,4.7286,4.6578,4.7043,4.6739,4.5926,4.6419,4.6726,4.688,4.6665,4.6296,4.5884,4.5699,4.5176,4.4591,4.4591,4.4591,4.4591,4.4591,4.4591,4.4553,4.4343,4.4324,4.4354,4.4085,4.3769,4.3442,4.3185,4.3557,4.3905,4.3506,4.3404,4.3339,4.3087,4.3002,4.3211,4.3802,4.4067,4.4468,4.5176,4.474,4.4699,4.5849,4.5778,4.5953,4.6831,4.7573,4.8152,4.8577,4.8658,4.8951,4.9582,4.9613,4.9807,5.0228,5.0627,5.1256,5.2177,5.2477,5.2657,5.2722,5.3365,5.3714,5.3813,5.4157,5.4708,5.5467,5.595,5.614,5.6154,5.721,5.8046,5.8662,5.91,6.0029,6.1077,6.0717,6.0506,6.042,6.0633,6.0569,6.0463,5.2535,5.241,5.2192,5.1527,5.1402,5.1402,5.1433,5.0809,5.032,5.0289,4.9879,4.9613,4.9613,4.9793,5.0216,5.0931,5.0994,5.0994,5.0994,5.0311,5.003,5.0266,5.005,5.003,5.0266,5.003,4.9564,4.8908,4.8908,4.856,4.7909,4.7909,4.8173,4.8588,4.862,4.8372,4.7993,4.8024,4.747,4.6603,4.6603,4.7004,4.7558,4.688,4.6603,4.6511,4.5853,4.5176,4.4591,4.4591,4.4591,4.4591,4.4591,4.4591,4.4553,4.4343,4.4438,4.4496,4.4123,4.4316,4.4496,4.4104,4.4007,4.4065,4.4278,4.4316,4.4343,4.4553,4.4591,4.4622,4.4622,4.5145,4.5391,4.4714,4.5348,4.5973,4.6183,4.6391,4.6862,4.7795,4.8478,4.8842,4.8608,4.9205,4.9613,4.9613,4.9613,5.0027,5.0963,5.1205,5.1746,5.269,5.2978,5.3188,5.3399,5.3399,5.364,5.4103,5.4103,5.4868,5.6197,5.6208,5.6742,5.7621,5.7832,5.8454,5.9296,5.9296,6.0029,6.1056,6.0602,6.0399,6.042,6.0612,6.0569,6.0463,5.3398,5.2852,5.2494,5.2744,5.2401,5.2309,5.2991,5.2458,5.1863,5.1538,5.0979,5.0578,5.0578,5.0638,5.0943,5.1638,5.1279,5.0773,5.0279,5.0006,5.003,5.0266,5.005,4.9951,5.003,4.9951,4.9785,4.9596,4.911,4.8813,4.8604,4.8604,4.868,4.8823,4.9296,4.9028,4.8224,4.8711,4.8292,4.7342,4.7804,4.8122,4.8296,4.8081,4.7434,4.6573,4.6357,4.5576,4.4591,4.4591,4.4591,4.4591,4.4591,4.4591,4.4572,4.4515,4.4553,4.4591,4.4629,4.4723,4.4704,4.4316,4.44,4.461,4.4515,4.461,4.4685,4.461,4.496,4.5299,4.5299,4.5853,4.6388,4.6665,4.654,4.6666,4.7567,4.7727,4.7946,4.8534,4.9205,4.9576,4.9517,4.9686,4.9812,4.9812,5.0294,5.0914,5.167,5.1926,5.2363,5.2965,5.3218,5.3518,5.3909,5.3736,5.3888,5.4306,5.4846,5.5559,5.6439,5.7291,5.7646,5.7633,5.8161,5.8656,5.9086,5.9233,5.9891,6.0781,6.0506,6.0399,6.0399,6.0463,6.0442,6.0463,5.3941,5.3541,5.3288,5.362,5.3338,5.3255,5.3825,5.3321,5.2681,5.2194,5.1478,5.094,5.0735,5.0723,5.0989,5.1665,5.1429,5.0965,5.0374,5.0169,5.0089,5.0129,4.9991,4.9951,5.005,4.9951,4.9754,4.9521,4.9078,4.8908,4.8908,4.8908,4.9015,4.9299,4.9722,4.9512,4.8818,4.9244,4.894,4.8173,4.8605,4.8697,4.8553,4.8327,4.7558,4.6573,4.6296,4.5515,4.4591,4.4591,4.4591,4.461,4.4685,4.4667,4.4591,4.4591,4.4648,4.4742,4.4874,4.5135,4.529,4.4797,4.4761,4.4936,4.5082,4.5144,4.5237,4.5349,4.5788,4.6086,4.6007,4.6621,4.7165,4.7208,4.7156,4.7398,4.819,4.8352,4.8624,4.9229,4.9659,4.9912,4.9912,4.9832,4.9887,5.0202,5.0965,5.1701,5.2396,5.2481,5.2793,5.3354,5.3386,5.3618,5.4103,5.4171,5.4406,5.4825,5.5495,5.6274,5.7226,5.8055,5.8421,5.8475,5.8961,5.9285,5.9457,5.9638,6.0069,6.0569,6.0442,6.0335,6.0325,6.0442,6.0463,6.0463,5.4146,5.4242,5.4327,5.4167,5.4124,5.4124,5.4124,5.3555,5.2922,5.2359,5.1559,5.0862,5.0456,5.0381,5.0667,5.1347,5.1538,5.1435,5.098,5.0537,5.0207,4.9971,4.9951,5.005,5.0266,5.003,4.9596,4.9003,4.9003,4.9003,4.9003,4.9003,4.9331,4.9912,4.9912,4.9793,4.9613,4.9613,4.9372,4.9016,4.9016,4.8862,4.8563,4.7886,4.7208,4.6511,4.5853,4.5176,4.4591,4.4591,4.461,4.4648,4.4818,4.4761,4.4678,4.4721,4.4823,4.4961,4.5104,4.5671,4.6115,4.5584,4.5279,4.5253,4.5792,4.5793,4.5873,4.65,4.6812,4.6953,4.6735,4.7461,4.7789,4.694,4.7461,4.8095,4.8386,4.8564,4.8981,4.9797,4.9912,4.9912,4.9912,4.9784,5.001,5.0732,5.1609,5.2428,5.3155,5.2965,5.312,5.3801,5.3606,5.3661,5.4103,5.4624,5.5102,5.5515,5.605,5.7023,5.8312,5.8529,5.9025,5.9716,5.9957,6.0066,6.0087,6.0325,6.0378,6.0356,6.0399,6.027,6.0152,6.0548,6.0569,6.0463,5.4124,5.4146,5.42,5.4327,5.42,5.4135,5.4306,5.3756,5.3016,5.2174,5.1721,5.1383,5.1125,5.1073,5.1419,5.2249,5.1873,5.133,5.0728,5.0575,5.0512,5.0473,5.0317,5.0227,5.0317,5.003,4.9817,4.969,4.969,4.969,4.969,4.969,4.9754,4.9912,4.9912,4.9793,4.9613,4.9613,4.9472,4.923,4.923,4.9108,4.8821,4.816,4.7379,4.6511,4.5853,4.5176,4.4591,4.4591,4.4704,4.4818,4.4685,4.4867,4.5129,4.5525,4.5384,4.5416,4.6648,4.6724,4.658,4.7171,4.7006,4.6555,4.6028,4.6261,4.6616,4.6612,4.7214,4.7665,4.7444,4.8141,4.8727,4.8501,4.8645,4.887,4.9273,4.9373,4.9516,4.986,4.9912,4.9912,4.9912,5.0365,5.0916,5.1444,5.2335,5.3155,5.385,5.3839,5.3881,5.4038,5.3995,5.4017,5.4103,5.4928,5.5472,5.5751,5.6782,5.766,5.8333,5.8892,5.9357,5.9694,5.976,5.9782,5.9826,6.0206,6.0325,6.0195,6.0506,6.0399,6.0152,6.0548,6.0569,6.0463,5.4423,5.4507,5.455,5.4433,5.4327,5.4242,5.4242,5.3777,5.3119,5.2368,5.1901,5.1477,5.1145,5.1113,5.1408,5.2212,5.2022,5.1738,5.1462,5.13,5.1127,5.0932,5.0613,5.0453,5.0453,5.0207,5.003,4.9912,4.9912,4.9912,4.9912,4.9912,4.9912,4.9912,4.9912,4.9852,4.9753,4.9892,4.9753,4.9472,4.9553,4.9412,4.9066,4.8413,4.7619,4.6807,4.6145,4.5406,4.4823,4.5208,4.5172,4.4974,4.5378,4.536,4.526,4.5509,4.5466,4.5603,4.6768,4.7114,4.7253,4.7631,4.7965,4.7992,4.722,4.7136,4.7278,4.7516,4.8129,4.8539,4.8316,4.885,4.921,4.9037,4.9078,4.921,4.9432,4.9553,4.9661,4.9892,4.9912,4.9958,5.0073,5.0846,5.1517,5.1998,5.289,5.3649,5.4071,5.4178,5.42,5.4103,5.4178,5.4401,5.4781,5.5479,5.6117,5.6686,5.753,5.8251,5.8793,5.928,5.9584,5.9694,5.9694,5.9694,5.9738,6.0109,6.0195,6.0131,6.042,6.042,6.0282,6.0463,6.0548,6.0656,5.475,5.4885,5.4948,5.4581,5.4497,5.4412,5.4295,5.3744,5.3177,5.2692,5.1972,5.1365,5.0941,5.1012,5.1321,5.1842,5.2198,5.2378,5.2376,5.2111,5.1745,5.1315,5.0889,5.0647,5.0647,5.0473,5.0227,4.9971,4.9971,4.9971,4.9971,4.9971,4.9971,4.9971,4.9931,4.9931,4.9991,5.0187,5.0089,4.9793,4.9912,4.9753,4.9318,4.8622,4.7875,4.7119,4.6452,4.5733,4.5216,4.5939,4.5733,4.5322,4.6341,4.6109,4.5497,4.5728,4.5859,4.607,4.6875,4.7555,4.806,4.7932,4.8615,4.9215,4.8664,4.8168,4.8019,4.8553,4.9015,4.9291,4.9037,4.9311,4.9493,4.918,4.925,4.9372,4.9412,4.9553,4.9733,4.9892,4.9912,5.0005,5.0268,5.1132,5.1894,5.2348,5.3283,5.3898,5.4103,5.4327,5.4348,5.4124,5.4454,5.491,5.5428,5.6078,5.6775,5.7525,5.8143,5.8717,5.9264,5.9508,5.9673,5.9694,5.9694,5.9694,5.9716,6.0044,6.0131,6.0131,6.0335,6.0399,6.0335,6.0378,6.0647,6.1066,5.4454,5.4655,5.4896,5.4989,5.4843,5.4813,5.4948,5.3885,5.2978,5.2721,5.1862,5.1164,5.0947,5.1565,5.1991,5.1894,5.2682,5.289,5.2282,5.2159,5.1887,5.1248,5.0999,5.0858,5.0858,5.0666,5.0473,5.0258,5.0258,5.0258,5.0258,5.0258,5.0258,5.0227,5.001,5.003,5.0246,5.0266,5.0344,5.0473,5.0285,5.007,4.9718,4.8867,4.8001,4.7119,4.6452,4.6121,4.6021,4.5961,4.6102,4.6379,4.7016,4.6906,4.6786,4.783,4.7876,4.7839,4.9083,4.9122,4.8889,4.943,4.9556,4.9541,4.9447,4.9105,4.8831,4.8924,4.927,4.9452,4.9078,4.9311,4.9593,4.9533,4.9553,4.9633,4.9812,4.9852,4.9872,4.9912,4.9912,5.0005,5.0268,5.1132,5.1894,5.2348,5.3283,5.3898,5.4103,5.4507,5.4528,5.4124,5.508,5.5452,5.5168,5.641,5.7137,5.7277,5.8377,5.8953,5.9072,5.9264,5.9464,5.9694,5.9694,5.9694,5.9738,6.0195,6.026,6.0152,6.0506,6.0442,6.0174,6.0346,6.107,6.2025,5.4915,5.504,5.5134,5.5113,5.5031,5.4948,5.4959,5.4142,5.3508,5.3459,5.2817,5.2165,5.1681,5.1952,5.2489,5.3231,5.3291,5.3258,5.3204,5.2579,5.2035,5.161,5.1356,5.1181,5.1067,5.0991,5.0896,5.0788,5.0589,5.0473,5.0473,5.0473,5.0473,5.0473,5.0324,5.0375,5.0473,5.0589,5.0628,5.0608,5.0628,5.0434,5.0077,4.9682,4.8716,4.7415,4.6122,4.589,4.6265,4.6574,4.6872,4.7246,4.7956,4.7839,4.7511,4.8066,4.8054,4.8098,4.9078,4.911,4.9027,4.9584,4.9673,4.9613,4.9613,4.9472,4.9291,4.9189,4.9412,4.9553,4.9372,4.9573,4.9733,4.9633,4.9681,4.9773,4.9753,4.9852,4.9912,4.9912,5.0279,5.0623,5.0861,5.1621,5.2297,5.2766,5.3296,5.3671,5.3941,5.4497,5.4762,5.4672,5.5388,5.5952,5.6261,5.6893,5.7467,5.8006,5.8687,5.9004,5.9027,5.9353,5.9606,5.9694,5.9694,5.9782,5.9935,6.0152,6.0325,6.0442,6.0506,6.0335,6.0152,6.0442,6.1072,6.1892]}]]